[[{"header":{"parameterUnit":"m.s-1","parameterCategory":1,"la1":30.6,"la2":28.766,"lo1":-90.7593,"lo2":-88.6598,"dy":0.0162,"dx":0.0183,"nx":116,"ny":114,"refTime":"2024-04-17T12:00:00:Z","depth":0,"parameterNumber":2,"parameterNumberName":"U-component_of_WINDS"},"data":[0.0,0.0,0.0,0.0,0.0,0.0,0.0,0.0,0.0,0.0,0.0,0.0,0.0,0.0,0.0,0.0,0.0,0.0,0.0,0.0,0.0,0.0,0.0,0.0,0.0,0.0,0.0,0.0,0.0,0.0,0.0,0.0,0.0,0.0,0.0,0.0,0.0,0.0,0.0,0.0,0.0,0.0,0.0,0.0,0.0,0.0,0.0,0.0,0.0,0.0,0.0,0.0,0.0,0.0,0.0,0.0,0.0,0.0,0.0,0.0,0.0,0.0,0.0,0.0,0.0,0.0,0.0,0.0,0.0,0.0,0.0,0.0,0.0,0.0,0.0,0.0,0.0,0.0,0.0,0.0,0.0,0.0,0.0,0.0,0.0,0.0,0.0,0.0,0.0,0.0,0.0,0.0,0.0,0.0,0.0,0.0,0.0,0.0,0.0,0.0,0.0,0.0,0.0,0.0,0.0,0.0,0.0,0.0,0.0,0.0,0.0,0.0,0.0,0.0,0.0,0.0,0.0,0.0,0.0,0.0,0.0,0.0,0.0,0.0,0.0,0.0,0.0,0.0,0.0,0.0,0.0,0.0,0.0,0.0,0.0,0.0,0.0,0.0,0.0,0.0,0.0,0.0,0.0,0.0,0.0,0.0,0.0,0.0,0.0,0.0,0.0,0.0,0.0,0.0,0.0,0.0,0.0,0.0,0.0,0.0,0.0,0.0,0.0,0.0,0.0,0.0,0.0,0.0,0.0,0.0,0.0,0.0,0.0,0.0,0.0,0.0,0.0,0.0,0.0,0.0,0.0,0.0,0.0,0.0,0.0,0.0,0.0,0.0,0.0,0.0,0.0,0.0,0.0,0.0,0.0,0.0,0.0,0.0,0.0,0.0,0.0,0.0,0.0,0.0,0.0,0.0,0.0,0.0,0.0,0.0,0.0,0.0,0.0,0.0,0.0,0.0,0.0,0.0,0.0,0.0,0.0,0.0,0.0,0.0,0.0,0.0,0.0,0.0,0.0,0.0,0.0,0.0,0.0,0.0,0.0,0.0,0.0,0.0,0.0,0.0,0.0,0.0,0.0,0.0,0.0,0.0,0.0,0.0,0.0,0.0,0.0,0.0,0.0,0.0,0.0,0.0,0.0,0.0,0.0,0.0,0.0,0.0,0.0,0.0,0.0,0.0,0.0,0.0,0.0,0.0,0.0,0.0,0.0,0.0,0.0,0.0,0.0,0.0,0.0,0.0,0.0,0.0,0.0,0.0,0.0,0.0,0.0,0.0,0.0,0.0,0.0,0.0,0.0,0.0,0.0,0.0,0.0,0.0,0.0,0.0,0.0,0.0,0.0,0.0,0.0,0.0,0.0,0.0,0.0,0.0,0.0,0.0,0.0,0.0,0.0,0.0,0.0,0.0,0.0,0.0,0.0,0.0,0.0,0.0,0.0,0.0,0.0,0.0,0.0,0.0,0.0,0.0,0.0,0.0,0.0,0.0,0.0,0.0,0.0,0.0,0.0,0.0,0.0,0.0,0.0,0.0,0.0,0.0,0.0,0.0,0.0,0.0,0.0,0.0,0.0,0.0,0.0,0.0,0.0,0.0,0.0,0.0,0.0,0.0,0.0,0.0,0.0,0.0,0.0,0.0,0.0,0.0,0.0,0.0,0.0,0.0,0.0,0.0,0.0,0.0,0.0,0.0,0.0,0.0,0.0,0.0,0.0,0.0,0.0,0.0,0.0,0.0,0.0,0.0,0.0,0.0,0.0,0.0,0.0,0.0,0.0,0.0,0.0,0.0,0.0,0.0,0.0,0.0,0.0,0.0,0.0,0.0,0.0,0.0,0.0,0.0,0.0,0.0,0.0,0.0,0.0,0.0,0.0,0.0,0.0,0.0,0.0,0.0,0.0,0.0,0.0,0.0,0.0,0.0,0.0,0.0,0.0,0.0,0.0,0.0,0.0,0.0,0.0,0.0,0.0,0.0,0.0,0.0,0.0,0.0,0.0,0.0,0.0,0.0,0.0,0.0,0.0,0.0,0.0,0.0,0.0,0.0,0.0,0.0,0.0,0.0,0.0,0.0,0.0,0.0,0.0,0.0,0.0,0.0,0.0,0.0,0.0,0.0,0.0,0.0,0.0,0.0,0.0,0.0,0.0,0.0,0.0,0.0,0.0,0.0,0.0,0.0,0.0,0.0,0.0,0.0,0.0,0.0,0.0,0.0,0.0,0.0,0.0,0.0,0.0,0.0,0.0,0.0,0.0,0.0,0.0,0.0,0.0,0.0,0.0,0.0,0.0,0.0,0.0,0.0,0.0,0.0,0.0,0.0,0.0,0.0,0.0,0.0,0.0,0.0,0.0,0.0,0.0,0.0,0.0,0.0,0.0,0.0,0.0,0.0,0.0,0.0,0.0,0.0,0.0,0.0,0.0,0.0,0.0,0.0,0.0,0.0,0.0,0.0,0.0,0.0,0.0,0.0,0.0,0.0,0.0,0.0,0.0,0.0,0.0,0.0,0.0,0.0,0.0,0.0,0.0,0.0,0.0,0.0,0.0,0.0,0.0,0.0,0.0,0.0,0.0,0.0,0.0,0.0,0.0,0.0,0.0,0.0,0.0,0.0,0.0,0.0,0.0,0.0,0.0,0.0,0.0,0.0,0.0,0.0,0.0,0.0,0.0,0.0,0.0,0.0,0.0,0.0,0.0,0.0,0.0,0.0,0.0,0.0,0.0,0.0,0.0,0.0,0.0,0.0,0.0,0.0,0.0,0.0,0.0,0.0,0.0,0.0,0.0,0.0,0.0,0.0,0.0,0.0,0.0,0.0,0.0,0.0,0.0,0.0,0.0,0.0,0.0,0.0,0.0,0.0,0.0,0.0,0.0,0.0,0.0,0.0,0.0,0.0,0.0,0.0,0.0,0.0,0.0,0.0,0.0,0.0,0.0,0.0,0.0,0.0,0.0,0.0,0.0,0.0,0.0,0.0,0.0,0.0,0.0,0.0,0.0,0.0,0.0,0.0,0.0,0.0,0.0,0.0,0.0,0.0,0.0,0.0,0.0,0.0,0.0,0.0,0.0,0.0,0.0,0.0,0.0,0.0,0.0,0.0,0.0,0.0,0.0,0.0,0.0,0.0,0.0,0.0,0.0,0.0,0.0,0.0,0.0,0.0,0.0,0.0,0.0,0.0,0.0,0.0,0.0,0.0,0.0,0.0,0.0,0.0,0.0,0.0,0.0,0.0,0.0,0.0,0.0,0.0,0.0,0.0,0.0,0.0,0.0,0.0,0.0,0.0,0.0,0.0,0.0,0.0,0.0,0.0,0.0,0.0,0.0,0.0,0.0,0.0,0.0,0.0,0.0,0.0,0.0,0.0,0.0,0.0,0.0,0.0,0.0,0.0,0.0,0.0,0.0,0.0,0.0,0.0,0.0,0.0,0.0,0.0,0.0,0.0,0.0,0.0,0.0,0.0,0.0,0.0,0.0,0.0,0.0,0.0,0.0,0.0,0.0,0.0,0.0,0.0,0.0,0.0,0.0,0.0,0.0,0.0,0.0,0.0,0.0,0.0,0.0,0.0,0.0,0.0,0.0,0.0,0.0,0.0,0.0,0.0,0.0,0.0,0.0,0.0,0.0,0.0,0.0,0.0,0.0,0.0,0.0,0.0,0.0,0.0,0.0,0.0,0.0,0.0,0.0,0.0,0.0,0.0,0.0,0.0,0.0,0.0,0.0,0.0,0.0,0.0,0.0,0.0,0.0,0.0,0.0,0.0,0.0,0.0,0.0,0.0,0.0,0.0,0.0,0.0,0.0,0.0,0.0,0.0,0.0,0.0,0.0,0.0,0.0,0.0,0.0,0.0,0.0,0.0,0.0,0.0,0.0,0.0,0.0,0.0,0.0,0.0,0.0,0.0,0.0,0.0,0.0,0.0,0.0,0.0,0.0,0.0,0.0,0.0,0.0,0.0,0.0,0.0,0.0,0.0,0.0,0.0,0.0,0.0,0.0,0.0,0.0,0.0,0.0,0.0,0.0,0.0,0.0,0.0,0.0,0.0,0.0,0.0,0.0,0.0,0.0,0.0,0.0,0.0,0.0,0.0,0.0,0.0,0.0,0.0,0.0,0.0,0.0,0.0,0.0,0.0,0.0,0.0,0.0,0.0,0.0,0.0,0.0,0.0,0.0,0.0,0.0,0.0,0.0,0.0,0.0,0.0,0.0,0.0,0.0,0.0,0.0,0.0,0.0,0.0,0.0,0.0,0.0,0.0,0.0,0.0,0.0,0.0,0.0,0.0,0.0,0.0,0.0,0.0,0.0,0.0,0.0,0.0,0.0,0.0,0.0,0.0,0.0,0.0,0.0,0.0,0.0,0.0,0.0,0.0,0.0,0.0,0.0,0.0,0.0,0.0,0.0,0.0,0.0,0.0,0.0,0.0,0.0,0.0,0.0,0.0,0.0,0.0,0.0,0.0,0.0,0.0,0.0,0.0,0.0,0.0,0.0,0.0,0.0,0.0,0.0,0.0,0.0,0.0,0.0,0.0,0.0,0.0,0.0,0.0,0.0,0.0,0.0,0.0,0.0,0.0,0.0,0.0,0.0,0.0,0.0,0.0,0.0,0.0,0.0,0.0,0.0,0.0,0.0,0.0,0.0,0.0,0.0,0.0,0.0,0.0,0.0,0.0,0.0,0.0,0.0,0.0,0.0,0.0,0.0,0.0,0.0,0.0,0.0,0.0,0.0,0.0,0.0,0.0,0.0,0.0,0.0,0.0,0.0,0.0,0.0,0.0,0.0,0.0,0.0,0.0,0.0,0.0,0.0,0.0,0.0,0.0,0.0,0.0,0.0,0.0,0.0,0.0,0.0,0.0,0.0,0.0,0.0,0.0,0.0,0.0,0.0,0.0,0.0,0.0,0.0,0.0,0.0,0.0,0.0,0.0,0.0,0.0,0.0,0.0,0.0,0.0,0.0,0.0,0.0,0.0,0.0,0.0,0.0,0.0,0.0,0.0,0.0,0.0,0.0,0.0,0.0,0.0,0.0,0.0,0.0,0.0,0.0,0.0,0.0,0.0,0.0,0.0,0.0,0.0,0.0,0.0,0.0,0.0,0.0,0.0,0.0,0.0,0.0,0.0,0.0,0.0,0.0,0.0,0.0,0.0,0.0,0.0,0.0,0.0,0.0,0.0,0.0,0.0,0.0,0.0,0.0,0.0,0.0,0.0,0.0,0.0,0.0,0.0,0.0,0.0,0.0,0.0,0.0,0.0,0.0,0.0,0.0,0.0,0.0,0.0,0.0,0.0,0.0,0.0,0.0,0.0,0.0,0.0,0.0,0.0,0.0,0.0,0.0,0.0,0.0,0.0,0.0,0.0,0.0,0.0,0.0,0.0,0.0,0.0,0.0,0.0,0.0,0.0,0.0,0.0,0.0,0.0,0.0,0.0,0.0,0.0,0.0,0.0,0.0,0.0,0.0,0.0,0.0,0.0,0.0,0.0,0.0,0.0,0.0,0.0,0.0,0.0,0.0,0.0,0.0,0.0,0.0,0.0,0.0,0.0,0.0,0.0,0.0,0.0,0.0,0.0,0.0,0.0,0.0,0.0,0.0,0.0,0.0,0.0,0.0,0.0,0.0,0.0,0.0,0.0,0.0,0.0,0.0,0.0,0.0,0.0,0.0,0.0,0.0,0.0,0.0,0.0,0.0,0.0,0.0,0.0,0.0,0.0,0.0,0.0,0.0,0.0,0.0,0.0,0.0,0.0,0.0,0.0,0.0,0.0,0.0,0.0,0.0,0.0,0.0,0.0,0.0,0.0,0.0,0.0,0.0,0.0,0.0,0.0,0.0,0.0,0.0,0.0,0.0,0.0,0.0,0.0,0.0,0.0,0.0,0.0,0.0,0.0,0.0,0.0,0.0,0.0,0.0,0.0,0.0,0.0,0.0,0.0,0.0,0.0,0.0,0.0,0.0,0.0,0.0,0.0,0.0,0.0,0.0,0.0,0.0,0.0,0.0,0.0,0.0,0.0,0.0,0.0,0.0,0.0,0.0,0.0,0.0,0.0,0.0,0.0,0.0,0.0,0.0,0.0,0.0,0.0,0.0,0.0,0.0,0.0,2.6148,0.0,0.0,0.0,0.0,0.0,0.0,0.0,0.0,0.0,0.0,0.0,0.0,0.0,0.0,0.0,0.0,0.0,0.0,0.0,0.0,0.0,0.0,0.0,0.0,0.9739,0.9659,0.9659,0.9325,0.9218,0.9417,0.0,0.0,0.0,0.0,0.0,0.0,0.0,1.0907,1.1261,1.2132,1.2957,1.3771,1.3821,1.3162,1.1949,0.0,0.0,0.0,0.0,0.0,0.0,0.0,0.0,0.0,0.0,0.0,0.0,0.0,0.0,0.0,0.0,0.0,0.0,0.0,0.0,0.0,0.0,0.0,0.0,0.0,0.0,0.0,0.0,0.0,0.0,0.0,0.0,0.0,0.0,0.0,0.0,0.0,0.0,0.0,0.0,0.0,0.0,0.0,0.0,0.0,0.0,0.0,0.0,0.0,0.0,0.0,0.0,0.0,0.0,0.0,0.0,0.0,0.0,0.0,0.0,0.0,0.0,0.0,0.0,0.0,0.0,0.0,0.0,0.0,0.0,0.0,2.645,0.0,0.0,0.0,0.0,0.0,0.0,0.0,0.0,0.0,0.0,0.0,0.0,0.0,0.0,0.0,0.0,0.0,0.0,0.0,0.0,0.0,0.8806,0.9783,0.9501,0.924,0.924,0.8749,0.8529,0.8765,0.8926,0.0,0.0,0.0,1.0264,1.0456,1.0774,1.1297,1.1997,1.3309,1.4743,1.6208,1.6093,1.4898,1.2899,1.2905,0.0,0.0,0.0,0.0,0.0,0.0,0.0,0.0,0.0,0.0,0.0,0.0,0.0,0.0,0.0,0.0,0.0,0.0,0.0,0.0,0.0,0.0,0.0,0.0,0.0,0.0,0.0,0.0,0.0,0.0,0.0,0.0,0.0,0.0,0.0,0.0,0.0,0.0,0.0,0.0,0.0,0.0,0.0,0.0,0.0,0.0,0.0,0.0,0.0,0.0,0.0,0.0,0.0,0.0,0.0,0.0,0.0,0.0,0.0,0.0,0.0,0.0,0.0,1.4523,1.7296,2.1366,2.3054,2.548,2.8414,2.882,2.9326,2.9703,0.0,0.0,0.0,0.0,0.0,0.0,0.0,0.0,0.0,0.0,0.0,0.0,0.0,0.0,0.0,0.0,0.0,0.0,0.0,0.0,0.8569,0.9071,0.9013,0.8947,0.8947,0.8684,0.8683,0.9096,0.9056,0.9366,1.0127,1.0242,1.052,1.1066,1.1434,1.2062,1.3077,1.4615,1.5656,1.6285,1.6171,1.5961,1.5741,1.5342,1.4315,1.2865,0.0,0.0,0.0,0.0,0.0,0.0,0.0,0.0,0.0,0.0,0.0,0.0,0.0,0.0,0.0,0.0,0.0,0.0,0.0,0.0,0.0,0.0,0.0,0.0,0.0,0.0,0.0,0.0,0.0,0.0,0.0,0.0,0.0,0.0,0.0,0.0,0.0,0.0,0.0,0.0,0.0,0.783,1.1324,0.0,0.0,0.0,0.0,0.0,0.0,0.0,0.0,0.0,0.0,0.0,0.0,0.0,1.5574,1.4663,1.4865,1.5685,1.7095,1.9329,2.2539,2.659,2.8841,3.12,3.343,3.1968,0.0,3.062,3.0243,0.0,0.0,0.0,0.0,0.0,0.0,0.0,0.0,0.0,0.0,0.0,0.0,0.0,0.0,0.0,0.0,0.0,0.0,0.0,0.0,0.0,0.9325,0.9536,0.9536,0.9637,0.9786,0.9805,0.9727,0.9818,1.0174,1.0339,1.0743,1.1465,1.1674,1.2752,1.4835,1.6095,1.7246,1.832,1.8247,1.8185,1.8134,1.7937,1.6607,1.4525,1.4525,0.0,0.0,0.0,0.0,0.0,0.0,0.0,0.0,0.0,0.0,0.0,0.0,0.0,0.0,0.0,0.0,0.0,0.0,0.0,0.0,0.0,0.0,0.0,0.0,0.0,0.0,0.0,0.0,0.0,0.0,0.0,0.0,0.0,0.0,0.0,0.0,0.0,0.0,0.0,0.4126,0.6053,0.9224,1.0611,1.1728,0.0,0.0,0.0,0.0,0.0,0.0,0.0,0.0,0.0,1.4081,1.4126,1.3792,1.3027,1.3984,1.5526,1.7644,1.8776,2.2439,2.8191,2.8728,3.1011,3.4502,3.3683,3.3109,3.2672,3.1385,3.033,2.9367,0.0,0.0,0.0,0.0,2.4602,2.5448,0.0,0.0,0.0,0.0,0.0,0.0,0.0,0.0,0.0,0.0,0.0,0.0,0.9265,0.9939,1.0344,1.0344,1.0607,1.0648,1.0464,1.0271,1.0224,1.0271,1.039,1.0866,1.1709,1.234,1.3916,1.644,1.7595,1.885,2.0129,2.0313,2.0366,2.0237,2.0237,1.8605,1.5879,1.5879,1.5015,1.3619,0.0,0.0,0.0,0.0,0.0,0.0,0.0,0.0,0.0,0.0,0.0,0.0,0.0,0.0,0.0,0.0,0.0,0.0,0.0,0.0,0.0,0.0,0.0,0.0,0.0,0.0,0.0,0.0,0.0,0.0,0.0,0.0,0.0,0.0,0.0,0.0,0.0,0.3472,0.4605,0.7392,0.9093,1.053,0.0,0.0,0.0,0.0,0.0,0.0,1.5951,1.4712,1.4134,1.4404,1.3453,1.274,1.2292,1.3798,1.5469,1.7287,1.8432,2.2207,2.8135,2.83,3.0688,3.4668,3.4561,3.4473,3.4251,3.247,3.1345,3.0677,2.9622,2.8217,2.6664,2.5805,2.5918,2.6454,0.0,0.0,0.0,0.0,0.0,0.0,0.0,0.0,0.0,0.0,0.0,0.9258,1.0122,1.081,1.1216,1.1216,1.0998,1.0864,1.0863,1.0389,1.0301,1.0731,1.0539,1.0835,1.1752,1.392,1.5881,1.7708,1.9052,2.0063,2.0828,2.1514,2.1865,2.1978,2.1978,1.9923,1.6567,1.6567,1.5751,1.4443,1.3307,0.0,0.0,0.0,0.0,0.0,0.0,0.0,0.0,0.0,0.0,0.0,0.0,0.0,0.0,0.0,0.0,0.0,0.0,0.0,0.0,0.0,0.0,0.0,0.0,0.0,0.0,0.0,0.0,0.0,0.0,0.0,0.0,0.0,0.0,0.0,0.0,0.0,0.0,0.776,0.8949,0.0,0.0,0.0,0.0,1.2706,1.355,1.4052,1.4043,1.4003,1.4374,1.5212,1.439,1.4277,1.5005,1.5851,1.6403,1.6681,2.0586,2.391,2.6701,2.966,3.2432,3.487,3.4668,3.4583,3.4561,3.4181,3.3672,3.2898,3.0656,2.9846,2.9608,2.6524,2.6941,2.8813,0.0,0.0,0.0,0.0,0.0,0.4688,0.5407,0.5677,0.6321,0.7773,0.866,0.9406,1.0092,1.125,1.2147,1.2564,1.2505,1.2466,1.2568,1.1607,1.1078,1.1328,1.0847,1.1562,1.3638,1.5649,1.7478,1.9063,1.9816,2.0677,2.1577,2.1815,2.2002,2.2113,2.1865,2.0666,1.887,1.9059,1.7922,1.6006,1.57,1.4576,0.0,0.0,0.0,0.0,0.0,0.0,0.0,0.0,0.0,0.0,0.0,0.0,0.0,0.0,0.0,0.0,0.0,0.0,0.0,0.0,0.0,0.0,0.0,0.0,0.0,0.0,0.0,0.0,0.0,0.0,0.0,0.0,0.0,0.0,0.0,0.0,0.0,0.8898,0.9869,0.0,1.2139,1.3558,1.4409,1.4396,1.5709,1.6507,1.6475,1.5911,1.5761,1.6127,1.5255,1.4934,1.526,1.4942,1.5634,1.7319,1.8223,2.1659,2.7244,2.8427,3.1123,3.4889,3.479,3.4666,3.4517,3.4404,3.3949,3.3239,3.1958,3.1267,3.0791,2.9193,2.9244,3.0035,0.0,0.0,0.0,0.0,0.0,0.4616,0.5222,0.5751,0.6611,0.803,0.9229,1.0222,1.0931,1.2128,1.2994,1.3325,1.3355,1.3279,1.3259,1.2155,1.1517,1.1479,1.1727,1.3017,1.5541,1.7238,1.8818,2.0234,2.0359,2.0859,2.1616,2.1689,2.18,2.191,2.172,2.1215,2.0579,2.0451,1.9211,1.7211,1.7051,1.5581,1.3525,0.0,0.0,0.0,0.0,0.0,0.0,0.0,0.0,0.0,0.0,0.0,0.0,0.0,0.0,0.0,0.0,0.0,0.0,0.0,0.0,0.0,0.0,0.0,0.0,0.0,0.0,0.0,0.0,0.0,0.0,0.0,0.0,0.0,0.0,0.0,0.7429,0.9281,1.0512,1.1581,1.2547,1.4222,1.5283,1.5365,1.6396,1.7159,1.7455,1.657,1.6213,1.6556,1.5685,1.5226,1.5265,1.458,1.5123,1.6848,1.6491,1.9974,2.6704,2.7024,2.9632,3.394,3.4381,3.4054,3.3239,3.3852,3.3697,3.3012,3.2782,3.2426,3.1968,3.1312,3.1001,3.0846,0.0,0.0,0.0,0.0,0.0,0.451,0.5185,0.5963,0.7113,0.8905,1.0431,1.1684,1.2633,1.3397,1.37,1.3571,1.3415,1.316,1.2829,1.2,1.1438,1.1226,1.3063,1.5145,1.7414,1.8663,1.9894,2.1187,2.0804,2.0791,2.1164,2.1308,2.1487,2.1593,2.1604,2.1581,2.1491,2.0515,1.9288,1.79,1.7141,1.6065,1.4828,0.0,0.0,0.0,0.0,0.0,0.0,0.0,0.0,0.0,0.0,0.0,0.0,0.0,0.0,0.0,0.0,0.0,0.0,0.0,0.0,0.0,0.0,0.0,0.0,0.0,0.0,0.0,0.0,0.0,0.0,0.0,0.0,0.0,0.4895,0.6529,0.7889,0.8771,1.072,1.2252,1.2956,1.4339,1.5206,1.5255,1.5274,1.5651,1.651,1.5666,1.5524,1.6396,1.559,1.5145,1.5145,1.4971,1.4979,1.5187,1.584,1.9208,2.4924,2.57,2.8249,3.2112,3.3491,3.2768,3.0794,3.2739,3.3069,3.2364,3.3025,3.3264,3.321,3.2618,3.1968,3.132,0.0,0.0,0.0,0.3728,0.4086,0.4476,0.5,0.5392,0.6078,0.7351,0.9266,1.0724,1.1282,1.2914,1.407,1.435,1.3941,1.3556,1.3378,1.2328,1.1787,1.1938,1.3451,1.5581,1.8359,1.9119,2.0511,2.2567,2.1475,2.1278,2.1817,2.1607,2.1571,2.1593,2.1516,2.1101,2.0451,1.9803,1.8911,1.7978,1.8015,1.7146,1.5772,0.0,0.0,0.0,0.0,0.0,0.0,0.0,0.0,0.0,0.0,0.0,0.0,0.0,0.0,0.0,0.0,0.0,0.0,0.0,0.0,0.0,0.0,0.0,0.0,0.0,0.0,0.0,0.0,0.0,0.0,0.0,0.0,0.4191,0.5248,0.5993,0.6959,0.8372,1.0324,1.1553,1.1514,1.365,1.4845,1.4314,1.4596,1.5026,1.5565,1.4504,1.4092,1.4526,1.4166,1.3978,1.3963,1.426,1.4472,1.4624,1.4858,1.8378,2.4685,2.5017,2.7922,3.2757,3.3338,3.277,3.154,3.2264,3.2549,3.2549,3.2877,3.2933,3.2825,3.258,3.2035,3.1283,0.0,0.0,0.0,0.3499,0.3891,0.4342,0.4846,0.5383,0.6129,0.7291,0.9305,1.0875,1.139,1.297,1.407,1.43,1.401,1.3611,1.3201,1.2536,1.2554,1.3459,1.5034,1.6952,1.9269,2.0351,2.1491,2.2689,2.154,2.104,2.1066,2.0819,2.0661,2.0558,2.0563,2.042,2.0161,1.9243,1.8721,1.8529,1.8337,1.7421,1.6184,1.6418,1.5285,1.3518,1.2877,1.2344,1.1701,1.0332,0.0,0.0,0.0,0.0,0.0,0.0,0.0,0.0,0.0,0.0,0.0,0.0,0.0,0.0,0.0,0.0,0.0,0.0,0.0,0.0,0.0,0.0,0.0,0.0,0.3032,0.3664,0.4543,0.5606,0.6659,0.7613,0.9363,1.0427,1.0292,1.2493,1.3842,1.359,1.4153,1.456,1.4641,1.4102,1.3511,1.2937,1.3512,1.3432,1.2541,1.3088,1.3374,1.3386,1.3233,1.6041,2.1388,2.2242,2.5206,0.0,3.1118,3.1276,3.0716,3.1585,3.1829,0.0,0.0,0.0,0.0,0.0,3.2084,3.1089,0.0,0.0,0.0,0.3331,0.3728,0.413,0.4698,0.5579,0.6625,0.7983,0.9919,1.1431,1.2184,1.3366,1.401,1.389,1.3716,1.3354,1.2638,1.2535,1.3347,1.5256,1.6935,1.8457,1.9987,2.1616,2.2334,2.2113,2.1242,2.0424,1.9631,1.9481,1.9324,1.9081,1.9244,1.9681,2.014,1.8875,1.8664,1.911,1.8337,1.739,1.6409,1.6699,1.5704,1.4083,1.3194,1.257,1.2138,1.1164,0.0,0.0,0.0,0.0,0.0,0.0,0.0,0.0,0.0,0.0,0.0,0.0,0.0,0.0,0.0,0.0,0.0,0.0,0.0,0.0,0.0,0.0,0.0,0.0,0.2233,0.2486,0.3259,0.5076,0.6403,0.663,0.8087,0.9109,0.9195,1.1083,1.2392,1.2685,1.3471,1.3827,1.3585,0.0,0.0,0.0,0.0,1.2857,1.1009,1.1605,1.1842,1.1727,1.1191,1.298,1.6805,1.8497,2.1456,2.5408,2.8144,2.929,2.9367,3.0997,3.1257,3.0683,3.2212,3.2967,3.319,3.2985,3.2081,3.0998,0.0,0.0,0.2299,0.2765,0.3318,0.3899,0.4529,0.5031,0.5948,0.7663,0.932,1.0829,1.2061,1.3546,1.4327,1.4207,1.3374,1.2739,1.2473,1.1911,1.2838,1.5584,1.6517,1.8033,2.018,2.0579,2.1302,2.2347,2.1095,2.0217,1.9654,1.9761,1.9465,1.8923,1.919,1.9341,1.9341,1.8607,1.8269,1.8269,1.8076,1.7861,1.7646,1.7389,1.6794,1.5977,1.5172,1.4576,1.394,1.2833,1.2415,1.2307,1.1783,1.1108,0.0,0.0,0.0,0.0,0.0,0.0,0.0,0.0,0.0,0.0,0.0,0.0,0.0,0.0,0.0,0.0,0.0,0.0,0.0,0.2115,0.2277,0.2387,0.2532,0.3413,0.4466,0.5617,0.7264,0.8215,0.7963,0.9782,1.0775,1.0308,1.0777,1.1213,1.1465,1.0851,1.0444,1.0328,1.034,1.0152,0.9744,0.9982,1.0101,1.0039,0.0,0.0,1.5787,1.6818,2.0315,2.5817,2.8283,2.9838,3.0718,3.1778,3.2413,3.2648,3.2737,3.3281,3.3827,3.2639,3.2123,3.1844,0.0,0.134,0.1904,0.2272,0.29,0.3557,0.4147,0.4698,0.5579,0.7015,0.8535,1.0067,1.1525,1.2418,1.2987,1.3338,1.2663,1.2491,1.3058,1.3282,1.4279,1.6287,1.7687,1.9048,2.0384,2.0939,2.1428,2.1901,2.0882,2.0245,1.9998,2.0268,2.0172,1.9912,2.0087,1.9835,1.9142,1.8741,1.8414,1.8144,1.7872,1.7803,1.7862,1.7657,1.7097,1.6403,1.5842,1.5275,1.4649,1.3878,1.3377,1.3065,1.2817,1.2215,1.1196,0.0,0.0,0.0,0.0,0.0,0.0,0.0,0.0,0.0,0.0,0.0,0.0,0.0,0.0,0.0872,0.1002,0.0,0.1278,0.1799,0.191,0.1934,0.2025,0.2603,0.3379,0.4349,0.5585,0.6295,0.6156,0.7933,0.9023,0.8808,0.9445,0.9857,0.9902,0.9638,0.9163,0.8417,0.9075,0.8957,0.7911,0.8406,0.8673,0.869,0.8046,0.9328,1.2265,1.4428,1.8315,2.3566,2.6434,2.9277,3.1927,3.2438,3.2944,3.3386,3.3159,3.3066,3.3039,3.2557,3.2097,3.161,0.0,0.0,0.1542,0.1845,0.2474,0.3115,0.3738,0.4411,0.5326,0.6481,0.7859,0.933,1.0985,1.119,1.1456,1.2027,1.1938,1.2349,1.3556,1.4654,1.5778,1.7079,1.8885,2.0095,2.0459,2.133,2.1628,2.1388,2.0597,2.0161,2.0098,2.0427,2.0537,2.0488,2.058,2.0062,1.9208,1.8808,1.8472,1.8212,1.7676,1.752,1.7569,1.7501,1.6959,1.6202,1.5912,1.5409,1.4768,1.4497,1.3992,1.3492,1.3492,1.3046,1.2134,0.9957,0.9926,0.0,0.0,0.0,0.0,0.0,0.0,0.0,0.0,0.0,0.3342,0.1827,0.0944,0.0564,0.0991,0.102,0.1186,0.176,0.1698,0.1597,0.1796,0.2161,0.2563,0.3023,0.3941,0.4575,0.4691,0.6224,0.7305,0.7529,0.8263,0.8582,0.8264,0.8607,0.8151,0.6708,0.8073,0.8038,0.6344,0.7056,0.7425,0.7462,0.7265,0.7676,0.8728,1.2195,1.6203,2.0759,2.4847,2.902,3.2829,3.2724,3.3041,3.3543,3.3256,3.2711,3.2192,3.2654,3.218,3.1305,0.0,0.0,0.0,0.1475,0.1904,0.2507,0.3394,0.4056,0.5054,0.6635,0.7565,0.8853,1.0831,1.1223,1.1265,1.0941,1.1341,1.2054,1.3106,1.4043,1.5419,1.7471,1.8882,1.9835,2.0322,2.0495,2.0839,2.1388,2.0451,1.9705,1.9304,1.9585,1.9511,1.9145,1.8945,1.8877,1.8808,1.8279,1.8076,1.8008,1.7666,1.7392,1.7166,1.6691,1.6342,1.6061,1.5903,1.5267,1.4641,1.4569,1.4497,1.4353,1.371,1.3419,1.2992,1.1136,0.0,1.0841,0.8771,0.7553,0.6732,0.6212,0.6494,0.6256,0.0,0.0,0.3272,0.0877,0.0445,0.0743,0.1549,0.1651,0.1772,0.2376,0.2303,0.2063,0.1822,0.1701,0.1697,0.1863,0.3337,0.4428,0.4683,0.5372,0.5853,0.5957,0.6116,0.6149,0.5963,0.6388,0.6511,0.6198,0.6381,0.6362,0.612,0.6289,0.6328,0.6311,0.6501,0.6965,0.7749,1.1014,1.4814,1.928,2.6272,3.0693,3.2947,3.2283,3.2557,3.3363,3.2815,3.2598,3.2645,3.2879,3.2516,3.1919,0.0,0.0,0.0,0.0839,0.154,0.2308,0.3035,0.3691,0.4634,0.6058,0.6667,0.7659,0.9452,1.0032,1.0058,0.9526,1.0533,1.1659,1.2732,1.4083,1.5546,1.7306,1.8595,1.9458,1.9857,2.0085,2.0409,2.073,1.9951,1.9799,2.0299,2.0318,2.0268,2.0161,1.996,1.9511,1.8808,1.8539,1.8279,1.794,1.752,1.7323,1.7323,1.6482,1.5771,1.5176,1.4681,1.4197,0.0,1.3735,1.3593,1.3423,1.3739,1.3175,1.2298,1.1744,1.1122,0.0,0.9151,0.8329,0.0,0.0,0.7911,0.7933,0.5586,0.4987,0.4436,0.2739,0.1682,0.1418,0.2618,0.2223,0.2045,0.0,0.2536,0.212,0.223,0.2056,0.1959,0.2085,0.2618,0.309,0.3398,0.461,0.5224,0.4847,0.51,0.5254,0.5189,0.5366,0.5397,0.5225,0.532,0.5294,0.5156,0.548,0.5817,0.622,0.6495,0.7266,0.8565,1.14,1.6148,2.2445,2.8034,3.1091,3.2133,3.2085,3.2465,3.2958,3.2226,3.2141,3.2434,3.2353,3.232,3.2307,0.0,0.0,0.0,0.0403,0.1209,0.2045,0.2739,0.335,0.4142,0.5331,0.5795,0.6532,0.804,0.8641,0.8869,0.8682,0.9655,1.0946,1.253,1.3883,1.5347,1.6795,1.8103,1.8935,1.9219,1.9619,1.9944,2.0085,1.9554,1.9683,2.0579,2.0409,2.0444,2.0579,2.037,1.9695,1.8808,1.8741,1.8337,1.7647,1.7157,1.689,1.6682,1.5692,1.4857,1.4146,1.3721,1.3196,1.2629,1.2515,1.2445,1.2485,1.284,1.2255,1.1489,1.1481,1.0649,0.9596,0.9375,0.0,0.0,0.843,0.8755,0.8729,0.6986,0.5954,0.5083,0.4137,0.2939,0.2375,0.3594,0.314,0.2774,0.343,0.2875,0.2481,0.2663,0.2389,0.2257,0.2344,0.2274,0.2182,0.2116,0.357,0.434,0.3913,0.4183,0.4321,0.4223,0.4395,0.4317,0.3956,0.4228,0.4282,0.4059,0.4681,0.5347,0.6102,0.6515,0.7542,0.9112,1.2562,1.7874,2.4494,2.8279,3.0338,3.0998,3.1238,3.1656,3.203,3.1391,3.1475,3.1844,3.1709,3.1932,3.2262,0.0,0.0,0.0,0.0,0.0942,0.1646,0.2547,0.3013,0.3573,0.4598,0.5124,0.5785,0.6765,0.7235,0.7807,0.8718,0.8728,0.9813,1.2493,1.3247,1.4326,1.6086,1.7403,1.8263,1.8456,1.8903,1.9274,1.9605,1.9253,1.9198,1.933,1.919,1.9222,1.932,1.9041,1.8835,1.8808,1.8617,1.792,1.6932,1.6515,1.5816,1.4824,1.3738,1.3293,1.3244,1.3523,1.2732,1.1575,1.0994,1.1419,1.1944,1.0408,1.0477,1.0954,1.0064,0.9309,0.8885,0.9602,0.0,0.8193,0.8565,0.8321,0.7614,0.6452,0.5676,0.4899,0.4007,0.3678,0.3724,0.4301,0.4374,0.4297,0.3829,0.3571,0.3275,0.2926,0.2508,0.221,0.2296,0.2531,0.2262,0.0,0.2189,0.292,0.3048,0.3061,0.2884,0.2482,0.3097,0.3075,0.2297,0.297,0.3224,0.2955,0.3979,0.4879,0.5528,0.6473,0.7436,0.8614,1.4515,1.9457,2.3472,2.6141,2.8177,2.9618,2.9364,2.9684,3.0272,3.0315,3.0535,3.0861,3.1179,3.1449,3.1637,0.0,0.0,0.0,0.0,0.0,0.1209,0.2147,0.2616,0.3182,0.398,0.4862,0.0,0.0,0.0,0.0,0.0,0.8152,0.885,1.062,1.1659,1.2927,1.4513,1.5829,1.6841,1.7419,1.7632,1.8105,1.8741,1.8741,1.8875,1.9142,1.9107,1.9117,1.9131,1.9031,1.892,1.8741,1.7891,1.7335,1.6941,1.5965,1.5242,1.4585,1.3423,1.2432,1.1461,0.0,1.0322,1.0324,0.9932,0.9829,0.9992,1.0208,0.964,0.8741,0.7842,0.8637,0.9595,0.8758,0.0,0.9569,0.9003,0.9141,0.915,0.8103,0.7017,0.612,0.5684,0.4934,0.4399,0.4504,0.4038,0.346,0.2962,0.2515,0.2291,0.2378,0.2091,0.2197,0.2838,0.1665,0.0,0.0,0.0,0.0,0.2237,0.2512,0.2663,0.2672,0.2762,0.2554,0.2033,0.2265,0.2323,0.2114,0.3309,0.4248,0.498,0.7117,0.8783,1.0127,1.5314,1.909,2.1687,2.5382,2.764,2.8733,2.8398,2.8896,2.9801,2.9328,2.9556,3.0182,3.0502,3.0747,3.1027,0.0,0.0,0.0,0.0,0.0,0.0,0.0,0.0,0.0,0.0,0.0,0.0,0.0,0.0,0.0,0.0,0.0,0.7698,0.9178,1.0022,1.1132,1.2512,1.3772,1.46,1.4996,1.5927,1.6632,1.7015,1.7829,1.8395,1.8721,1.8865,1.8931,1.8854,1.8798,1.8519,1.8037,1.7189,1.6567,1.6123,1.4888,1.4037,1.3294,1.2059,1.087,0.0,0.8521,0.8399,0.8736,0.8309,0.8393,0.8702,0.8952,0.8285,0.738,0.7173,0.8242,0.9351,0.8639,0.9518,1.0403,0.9661,0.9874,0.9992,0.8856,0.771,0.6822,0.6563,0.5811,0.511,0.4971,0.4213,0.3579,0.336,0.2493,0.1976,0.2383,0.1949,0.1809,0.2271,0.0819,-0.0105,0.0,0.0,0.0,0.0794,0.1074,0.1345,0.1469,0.1566,0.1444,0.1073,0.1311,0.1368,0.1188,0.2239,0.328,0.4309,0.6864,0.9028,1.0856,1.5159,1.8248,2.0456,2.4644,2.6765,2.7341,2.7917,2.8691,2.9364,2.8679,2.8873,2.9617,3.0064,3.0691,3.1383,0.0,0.0,0.0,0.0,0.0,0.0,0.0,0.0,0.0,0.0,0.0,0.0,0.0,0.0,0.0,0.0,0.0,0.0,0.8214,0.8395,0.8984,1.0196,1.1277,1.178,1.1518,1.3774,1.4847,1.4604,1.6493,1.7543,1.7744,1.8318,1.8451,1.8298,1.8108,1.7494,1.6661,1.6258,1.5496,1.4355,1.3215,1.2191,1.1166,0.9667,0.8839,0.833,0.7361,0.7031,0.6875,0.6318,0.7148,0.8186,0.6774,0.6532,0.6901,0.7862,0.8138,0.8311,0.919,1.0116,1.0714,1.0557,1.0519,1.0137,0.878,0.7718,0.6954,0.6641,0.6143,0.5762,0.0,0.0,0.4488,0.4765,0.322,0.2177,0.29,0.1991,0.1148,0.0,0.0,0.0,0.0,0.0,0.0,-0.1233,0.0,-0.0954,-0.0919,-0.0403,-0.0226,-0.0454,0.0049,0.0298,0.0267,0.0927,0.2038,0.3566,0.5727,0.8126,1.0724,1.414,1.7086,1.9673,2.3851,2.5676,2.5786,2.7869,2.8861,2.895,2.8445,2.8591,2.912,2.9789,3.1046,3.242,0.0,0.0,0.0,0.0,0.0,0.0,0.0,0.0,0.0,0.0,0.0,0.0,0.0,0.0,0.0,0.0,0.0,0.0,0.6219,0.7093,0.7741,0.8005,0.9412,1.03,1.0468,1.141,1.2016,1.2254,1.3259,1.3895,1.4194,1.5008,1.5335,1.5221,1.5469,1.5288,1.4706,1.3808,1.322,1.2788,1.1634,1.0792,1.0118,0.9296,0.8507,0.7686,0.6728,0.6359,0.6327,0.6367,0.6862,0.7401,0.7112,0.7083,0.6957,0.6423,0.7824,0.932,0.8605,1.0217,1.188,1.0765,1.0588,1.0363,0.9155,0.8429,0.7646,0.6154,0.5971,0.5623,0.0,0.0,0.0,0.255,0.1578,0.0,0.135,0.1067,0.0,0.1516,0.0,-0.0653,-0.0501,-0.1466,0.0,0.0,-0.1947,-0.152,-0.1505,-0.1502,-0.1359,-0.1144,-0.1053,-0.0687,0.0,0.1321,0.2619,0.3918,0.5739,0.7221,0.8406,1.4255,1.7531,1.8916,2.4147,2.6802,2.7421,2.7869,2.8453,2.891,2.812,2.7959,2.8317,2.8622,2.9155,2.9779,0.0,0.0,0.0,0.0,0.0,0.0,0.0,0.0,0.0,0.0,0.0,0.0,0.0,0.0,0.0,0.0,0.0,0.0,0.0,0.6138,0.6515,0.6415,0.7346,0.7949,0.8123,0.9241,0.9902,1.0073,1.1379,1.2082,1.2184,1.302,1.3298,1.3204,1.3359,1.3143,1.2666,1.1761,1.1333,0.0,0.0,0.9207,0.9004,0.8154,0.7505,0.6939,0.6233,0.5848,0.5837,0.0,0.0,0.6941,0.8017,0.7862,0.7255,0.7221,0.0,0.9139,0.8452,0.9678,1.0938,0.997,0.9669,0.936,0.8344,0.7706,0.6944,0.5784,0.5766,0.0,0.409,0.0,0.0,0.0,0.0,0.0,0.1034,0.0672,0.0498,0.0,-0.0294,0.0,-0.0533,-0.1613,-0.2454,0.0,-0.2591,-0.2352,-0.2409,-0.2395,-0.2063,-0.1372,-0.1515,-0.1179,-0.0229,0.0781,0.1778,0.2739,0.4817,0.6646,0.8333,1.3856,1.7159,1.8835,0.0,2.6104,2.6857,2.7568,2.8146,2.8636,2.7773,2.759,2.784,2.8076,2.8585,2.9281,0.0,0.0,0.0,0.0,0.0,0.0,0.0,0.0,0.0,0.0,0.2543,0.0,0.0,0.0,0.0,0.0,0.0,0.0,0.0,0.0,0.5456,0.5326,0.5499,0.5596,0.5515,0.7199,0.8048,0.7984,0.9925,1.0824,1.0711,1.1384,1.161,1.1372,1.1334,1.0941,1.0352,0.987,0.9631,0.9388,0.8064,0.7715,0.7868,0.0,0.6405,0.6264,0.5881,0.5497,0.5413,0.0,0.6974,0.6771,0.8948,0.865,0.7694,0.8674,0.8708,0.8466,0.8461,0.8861,0.9165,0.8746,0.8371,0.7935,0.7232,0.6448,0.5854,0.5555,0.0,0.5306,0.4707,0.3945,0.3565,0.3981,0.0,0.0777,0.1228,0.0578,-0.0059,-0.0289,-0.0818,-0.0978,-0.0733,-0.1465,-0.206,-0.2348,-0.2754,-0.3173,-0.3351,-0.3249,-0.2592,-0.1417,-0.1542,-0.1131,-0.0238,0.0062,0.057,0.1303,0.3673,0.624,0.9176,1.3286,1.6533,1.92,2.3103,0.0,2.5711,2.7293,2.815,2.8305,2.7513,2.7372,2.7575,2.773,2.8476,2.9526,0.0,0.0,0.0,0.0,0.0,0.0,0.0,0.0,0.0,0.0,0.239,0.2901,0.0,0.0,0.0,0.0,0.0,0.0,0.0,0.0,0.0,0.4925,0.5044,0.5116,0.5122,0.5589,0.5865,0.5925,0.6742,0.7274,0.75,0.8351,0.8488,0.8054,0.8517,0.8329,0.7679,0.7563,0.7455,0.7292,0.6996,0.6821,0.6687,0.6557,0.0,0.0,0.5769,0.5371,0.5149,0.594,0.6533,0.7155,0.8799,0.8965,0.84,0.7423,0.8073,0.8854,0.772,0.8186,0.898,0.8562,0.8376,0.8201,0.7585,0.6997,0.0,0.0,0.5159,0.4952,0.4509,0.3748,0.3192,0.3327,0.0,0.0,0.0,0.0,0.0286,0.0,0.0,0.0,0.0,0.0,0.0,0.0,0.0,-0.2756,-0.3808,-0.4149,-0.3606,-0.2013,-0.131,-0.038,0.0825,0.1176,0.168,0.2345,0.3776,0.5827,0.8473,1.352,1.7181,1.9779,2.4627,0.0,2.7524,2.8223,2.8548,2.8583,2.7586,2.7284,2.7401,2.7078,2.7292,2.7688,0.0,0.0,0.0,0.0,0.0,0.0,0.0,0.0993,0.1336,0.1521,0.1954,0.2382,0.2757,0.3631,0.4356,0.0,0.0,0.0,0.0,0.0,0.0,0.0,0.0,0.0,0.501,0.5221,0.0,0.0,0.0,0.6215,0.6229,0.0,0.0,0.6327,0.6689,0.6708,0.6443,0.6535,0.6484,0.6297,0.6031,0.5932,0.0,0.0,0.0,0.0,0.0,0.5391,0.4838,0.5417,0.5562,0.5747,0.707,0.7429,0.7077,0.6083,0.6306,0.679,0.5978,0.6451,0.7005,0.6578,0.6663,0.667,0.5956,0.0,0.0,0.0,0.3856,0.3722,0.3571,0.3184,0.0,0.3113,0.0,0.0,0.0,0.0,0.0,0.0,0.0,0.0,0.0,0.0,0.0,0.0,0.0,-0.2213,-0.3284,-0.3333,-0.2874,-0.1951,-0.102,-0.0064,0.0837,0.1412,0.1934,0.2448,0.3956,0.6324,0.9525,1.3469,1.726,2.1,2.414,0.0,2.6438,2.7413,2.7448,2.7012,2.7203,2.7284,2.7284,2.7093,2.7181,2.7423,0.0,0.0,0.0,0.0,0.0,0.0,0.0194,0.0688,0.112,0.138,0.1585,0.1892,0.2437,0.3109,0.3831,0.0,0.0,0.0,0.0,0.0,0.0,0.0,0.0,0.0,0.0,0.0,0.0,0.0,0.0,0.0,0.0,0.0,0.0,0.0,0.0,0.0,0.57,0.5861,0.5823,0.0,0.0,0.0,0.0,0.0,0.0,0.0,0.0,0.0,0.4763,0.5142,0.4747,0.4256,0.5241,0.5528,0.5408,0.4941,0.4758,0.473,0.4632,0.4794,0.4905,0.4571,0.4868,0.4982,0.4353,0.3717,0.0,0.0,0.2737,0.2539,0.2819,0.0,0.2715,0.0,0.2179,0.144,0.0,0.0,0.0,0.0,0.0,0.0,0.0,0.0,0.0,0.0,0.0,0.0,-0.2748,-0.2566,-0.2215,-0.1701,-0.0911,0.0,0.086,0.1715,0.239,0.2844,0.448,0.7187,1.0977,1.3534,1.7315,2.1903,2.3673,0.0,0.0,2.6651,2.6601,2.5593,2.6876,2.7284,2.7233,2.7181,2.7335,2.7524,0.0,0.0,0.0,0.0,0.0,0.0,0.0573,0.1048,0.1371,0.1475,0.1548,0.1663,0.178,0.2489,0.3268,0.0,0.0,0.0,0.0,0.0,0.0,0.0,0.0,0.0,0.0,0.0,0.0,0.0,0.0,0.0,0.0,0.0,0.0,0.0,0.0,0.0,0.0,0.4969,0.0,0.0,0.0,0.0,0.0,0.0,0.0,0.0,0.0,0.0,0.0,0.0,0.0,0.4086,0.4012,0.4385,0.4778,0.4631,0.0,0.0,0.457,0.4312,0.4021,0.3824,0.4145,0.4349,0.3843,0.0,0.3377,0.3378,0.2655,0.2252,0.2962,0.2919,0.281,0.0,0.0,0.1725,0.0,0.0,0.0,0.0,0.0,0.0,0.0,0.0,0.0,0.0,0.0,0.0,-0.2963,-0.3416,-0.2975,-0.1454,-0.115,-0.0068,0.187,0.2822,0.379,0.4641,0.5757,0.8212,1.1891,1.4306,1.7423,2.121,2.4602,0.0,0.0,2.7371,2.7496,2.6079,2.6901,2.7284,2.735,2.7107,2.7093,2.7233,0.0,0.0,0.0,0.0,0.0,0.0,0.0663,0.1164,0.1431,0.1393,0.1556,0.1681,0.1696,0.2051,0.2733,0.3801,0.0,0.0,0.0,0.0,0.0,0.0,0.0,0.0,0.0,0.0,0.0,0.5838,0.0,0.0,0.0,0.0,0.0,0.0,0.0,0.0,0.0,0.0,0.0,0.0,0.0,0.0,0.0,0.0,0.0,0.0,0.0,0.0,0.0,0.0,0.0,0.0,0.2965,0.2976,0.0,0.0,0.3115,0.3047,0.2856,0.3107,0.3349,0.2906,0.3299,0.3566,0.268,0.0,0.2429,0.2131,0.1793,0.1648,0.1839,0.1855,0.1959,0.2287,0.1966,0.0,0.143,0.0,0.0,0.0,0.0,0.0,0.0,0.0,0.0,0.0,0.0,0.0,-0.2606,-0.2847,-0.2142,-0.028,0.0138,0.105,0.262,0.3724,0.4727,0.5492,0.7015,0.9607,1.3033,1.4849,1.7752,2.1532,2.3213,0.0,0.0,2.5784,2.5957,2.4724,2.6659,2.7437,2.7401,2.7386,2.7335,2.7335,0.0,0.0,0.0,0.0,0.0,0.0149,0.0832,0.1207,0.1378,0.1329,0.1476,0.1601,0.1607,0.1856,0.2408,0.3374,0.4157,0.0,0.0,0.0,0.0,0.0,0.0,0.0,0.0,0.0,0.5884,0.6019,0.6355,0.0,0.0,0.0,0.0,0.0,0.0,0.0,0.0,0.0,0.0,0.0,0.0,0.0,0.0,0.0,0.0,0.0,0.0,0.0,0.0,0.0,0.0,0.0,0.26,0.2319,0.2069,0.0,0.2159,0.2034,0.1859,0.2312,0.2751,0.2017,0.2491,0.2785,0.0,0.0,0.1862,0.1316,0.1277,0.1292,0.1062,0.1119,0.1394,0.1823,0.1699,0.1623,0.1965,0.1701,0.0,0.0,0.0,0.0,0.0,0.0,0.0,0.0,0.0,0.0,0.0,-0.2096,-0.1503,-0.0143,0.0852,0.194,0.305,0.4718,0.5884,0.6525,0.8485,1.0815,1.3374,1.5428,1.8022,2.0995,0.0,0.0,0.0,2.4967,2.5307,2.4358,2.6658,2.7488,2.7488,2.7539,2.7488,2.7452,0.0,0.0,0.0,0.0,0.0,0.0,0.1233,0.1203,0.1183,0.1357,0.1346,0.1319,0.1399,0.1943,0.2405,0.2683,0.3331,0.0,0.0,0.0,0.0,0.0,0.0,0.0,0.0,0.0,0.5976,0.6019,0.6355,0.6477,0.6477,0.569,0.0,0.0,0.0,0.0,0.0,0.0,0.0,0.0,0.0,0.0,0.0,0.0,0.0,0.0,0.0,0.0,0.0,0.0,0.0,0.0,0.0,0.2729,0.2232,0.246,0.2227,0.1966,0.2161,0.2189,0.2018,0.1277,0.174,0.2032,0.0,0.0,0.2005,0.1339,0.1343,0.134,0.0875,0.1092,0.1381,0.1671,0.1998,0.186,0.0923,0.0999,0.0,0.0,0.0,0.0,0.0,0.0,0.0,0.0,0.0,0.0,0.0,-0.1431,-0.1431,-0.1736,0.0441,0.2079,0.312,0.5773,0.7439,0.808,1.0429,1.1938,1.2607,1.623,1.825,0.0,0.0,0.0,0.0,2.5647,2.6265,2.5719,2.6932,2.7488,2.7575,2.7437,2.7401,2.7401,0.0,0.0,0.0,0.0,0.0,0.0,0.1645,0.21,0.2266,0.1877,0.2192,0.2346,0.2044,0.235,0.2676,0.2944,0.3331,0.0,0.0,0.0,0.0,0.0,0.0,0.0,0.0,0.0,0.6084,0.6288,0.6211,0.6215,0.6264,0.5529,0.5009,0.4666,0.0,0.0,0.0,0.0,0.0,0.0,0.0,0.0,0.0,0.0,0.0,0.0,0.0,0.0,0.0,0.0,0.0,0.0,0.0,0.0,0.0,0.1289,0.1463,0.1647,0.1453,0.1505,0.1431,0.0656,0.0939,0.1061,0.0,0.0502,0.1025,0.0492,0.084,0.1075,0.0605,0.058,0.0882,0.1743,0.1715,0.1687,0.0,0.0,0.0,0.0,0.0,0.0,0.0,0.0,0.0,0.0,0.0,0.0,0.0,-0.1471,-0.0461,0.0227,0.1947,0.3402,0.4593,0.61,0.7918,0.9906,1.2001,1.3299,1.3976,1.7632,0.0,0.0,0.0,0.0,0.0,2.4431,2.5154,2.5257,2.6716,2.7233,2.7196,2.7233,2.7335,2.7386,0.0,0.0,0.0,0.0,0.0,0.0,0.1747,0.2282,0.2472,0.2076,0.2451,0.2667,0.2361,0.2508,0.2709,0.297,0.3237,0.0,0.0,0.0,0.0,0.0,0.0,0.0,0.551,0.5775,0.604,0.6201,0.6163,0.6137,0.6073,0.5439,0.4938,0.4539,0.4408,0.0,0.0,0.0,0.0,0.0,0.0,0.0,0.2716,0.0,0.0,0.0,0.0,0.0,0.0,0.0,0.0,0.0,0.0,0.0,0.0,0.0,0.0556,0.0821,0.0729,0.0783,0.0728,0.0112,0.0385,0.0525,-0.0329,0.0221,0.0741,0.0215,0.0573,0.0831,0.034,0.0212,0.0419,0.1216,0.1211,0.0,0.0,0.0,0.0,0.0,0.0,0.0,0.0,0.0,0.0,0.0,0.0,0.0,0.0,-0.094,0.0233,0.1305,0.3088,0.4498,0.5594,0.7344,0.9243,1.1188,1.3434,1.4569,1.4935,1.8215,0.0,0.0,0.0,0.0,0.0,2.4173,2.5091,2.5898,2.6959,2.7233,2.7093,2.7181,2.7115,2.7063,0.0,0.0,0.0,0.0,0.0,0.0,0.0,0.1942,0.2127,0.2173,0.2355,0.2501,0.2501,0.2559,0.2673,0.2834,0.3105,0.0,0.0,0.0,0.0,0.0,0.0,0.0,0.5205,0.5613,0.5825,0.5905,0.6176,0.6173,0.5835,0.5372,0.5007,0.4739,0.4565,0.4212,0.0,0.0,0.0,0.0,0.0,0.2563,0.0,0.0,0.0,0.0,0.0,0.0,0.0,0.0,0.0,0.0,0.0,0.0,0.0,0.0,0.0,0.0,0.0,0.0052,0.0,-0.0387,-0.0053,0.0247,-0.019,0.0429,0.0,0.0297,0.0474,0.0605,0.0,-0.0039,0.0042,0.024,0.0569,0.0,0.0,0.0,0.0,0.0,0.0,0.0,0.0,0.0,0.0,0.0,0.0,0.0,0.0,0.0157,0.0784,0.1646,0.3914,0.5507,0.6377,0.9147,1.1095,1.203,1.4589,1.5679,1.5475,1.8341,1.9561,0.0,0.0,0.0,0.0,2.4598,2.5645,2.7063,2.7357,2.7321,2.7115,2.7115,2.6841,2.6563,0.0,0.0,0.0,0.0,0.0,0.0,0.0,0.0,0.0,0.0,0.3213,0.3401,0.3401,0.3416,0.3438,0.0,0.0,0.0,0.0,0.0,0.0,0.0,0.0,0.0,0.541,0.5671,0.5895,0.6041,0.5675,0.5433,0.5345,0.4868,0.4573,0.4407,0.4277,0.4148,0.0,0.0,0.0,0.0,0.331,0.258,0.0,0.0,0.0,0.0,0.0549,0.043,0.0,0.0,0.0,0.0,0.0,0.0,0.0,0.0,-0.1478,-0.1575,-0.1377,0.0,-0.1086,-0.1418,-0.1118,-0.0811,0.0,-0.0361,-0.0039,0.0,0.0,0.0125,-0.0805,-0.058,0.0,0.0701,0.0,0.0,0.0,0.0,0.0,0.0,0.0,0.0,0.0,0.0,0.0,0.0,0.0,0.0,0.0,0.0627,0.1644,0.25,0.4554,0.643,0.7943,0.9605,1.1266,1.2998,1.5628,1.6311,1.5274,1.8905,1.9907,0.0,0.0,0.0,2.269,2.31,2.4182,2.555,2.5906,2.6229,2.651,2.651,2.6563,2.6616,0.0,0.0,0.0,0.0,0.0,0.0,0.0,0.0,0.0,0.0,0.3551,0.3741,0.3815,0.3745,0.3737,0.0,0.0,0.0,0.0,0.0,0.0,0.0,0.0,0.5055,0.5404,0.5503,0.5685,0.5964,0.5631,0.5424,0.5275,0.5014,0.4791,0.4623,0.4369,0.4203,0.401,0.0,0.0,0.0,0.2679,0.0,0.0,0.0,0.0,0.0,0.0248,0.0126,0.0,-0.0399,-0.0682,-0.0874,0.0,0.0,0.0,0.0,-0.1839,-0.1928,-0.2061,-0.1878,-0.1624,-0.1829,-0.1496,-0.1082,-0.1205,-0.0727,-0.0468,0.0,0.0,-0.0462,-0.1174,-0.0993,-0.0664,0.0,0.0,0.0,0.0,0.0,0.0,0.0,0.0,0.0,0.0,0.0,0.0,0.0,0.0,0.0,0.0,0.1412,0.2348,0.3513,0.4902,0.6506,0.844,1.051,1.2101,1.3042,1.6521,1.7635,1.6668,1.9507,2.0551,0.0,0.0,0.0,2.2356,2.2295,2.3238,2.4654,2.5022,2.5425,2.5892,2.5892,2.6082,2.6312,0.0,0.0,0.0,0.0,0.0,0.0,0.0,0.0,0.0,0.0,0.0,0.0,0.0,0.0,0.0,0.0,0.0,0.0,0.0,0.0,0.0,0.0,0.4793,0.4996,0.5312,0.5423,0.5571,0.5854,0.5814,0.5649,0.5398,0.5358,0.5196,0.4984,0.4774,0.4373,0.3829,0.3497,0.0,0.0,0.1963,0.0,0.0,0.0,0.0,0.0,0.0,0.0,0.0,-0.0531,-0.0923,-0.1183,-0.1281,0.0,0.0,0.0,0.0,0.0,-0.2237,-0.2095,-0.1816,-0.198,-0.1569,-0.1157,-0.1345,-0.0957,-0.0725,0.0,0.0,-0.1038,-0.1383,-0.138,0.0,0.0,0.0,0.0,0.0,0.0,0.0,0.0,0.0,0.0,0.0,0.0,0.0,0.0,0.0,0.0,0.0,0.2275,0.3052,0.4603,0.5148,0.6458,0.8609,1.155,1.3003,1.2989,1.7268,1.8956,1.8431,2.0106,2.1138,2.1636,0.0,0.0,2.2359,2.1809,2.2515,2.3968,2.4244,2.467,2.5106,2.5217,2.5467,2.577,0.0,0.0,0.0,0.0,0.0,0.0,0.0,0.0,0.0,0.0,0.0,0.0,0.0,0.0,0.0,0.0,0.0,0.0,0.0,0.0,0.0,0.5614,0.5291,0.5209,0.5373,0.5885,0.6104,0.6042,0.5832,0.5585,0.531,0.5145,0.5003,0.4949,0.5355,0.5004,0.4127,0.4077,0.3683,0.302,0.2283,0.0,0.0,0.0,0.0,0.0,0.0,0.0,0.0,-0.0481,-0.083,-0.1093,-0.1324,0.0,0.0,0.0,0.0,0.0,-0.1703,-0.1745,-0.1792,-0.2158,-0.2213,-0.208,-0.17,-0.134,-0.1281,-0.2049,0.0,0.0,0.0,-0.1713,-0.1325,0.0,0.0,0.0,0.0,0.0,0.0,0.0,0.0,0.0,0.0,0.0,0.0,0.0,0.0,0.0,0.0,0.2747,0.3756,0.56,0.6073,0.7383,0.9614,1.1936,1.3369,1.4101,1.7637,1.9117,1.8873,2.0446,2.1097,2.1079,0.0,2.0972,2.116,2.1197,2.1822,2.2882,2.299,2.3348,2.3878,2.457,2.4867,2.4993,0.0,0.0,0.0,0.0,0.0,0.0,0.0,0.0,0.0,0.0,0.0,0.0,0.0,0.0,0.0,0.0,0.0,0.0,0.0,0.0,0.5671,0.5813,0.5733,0.5788,0.5994,0.5933,0.5956,0.5976,0.5718,0.5441,0.5138,0.5213,0.5121,0.4898,0.5211,0.4743,0.3774,0.3745,0.3298,0.2572,0.0,0.0,0.0,0.0,0.0,0.0,0.0,0.0,0.0,0.0,-0.0985,-0.1143,-0.1477,0.0,0.0,0.0,0.0,0.0,-0.1703,-0.1769,-0.1896,-0.2122,-0.2119,-0.2106,-0.2267,-0.2069,-0.203,0.0,0.0,0.0,0.0,0.0,0.0,0.0,0.0,0.0,0.0,0.0,0.0,0.0,0.0,0.0,0.0,0.0,0.0,0.0,0.0,0.0,0.0,0.0,0.4382,0.5538,0.6314,0.7468,0.9084,1.1307,1.2962,1.3956,1.8015,1.9668,1.9174,2.0815,2.158,2.1722,0.0,2.1141,2.1688,2.0937,2.1307,2.2218,2.2109,2.247,2.31,2.3966,2.4675,2.5226,0.0,0.0,0.0,0.0,0.0,0.0,0.0,0.0,0.0,0.0,0.0,0.0,0.0,0.0,0.0,0.0,0.0,0.0,0.0,0.5823,0.5861,0.5926,0.6058,0.6173,0.6276,0.592,0.5738,0.57,0.5564,0.5353,0.5062,0.538,0.5359,0.5091,0.499,0.4455,0.3561,0.3385,0.2864,0.2167,0.0,0.0,0.0,0.0,0.0,0.0,0.0,0.0,0.0,0.0,0.0,0.0,0.0,0.0,0.0,-0.2022,-0.1808,-0.1614,-0.1703,-0.1825,-0.1969,-0.2043,-0.2014,-0.2151,-0.2672,-0.2642,-0.2556,0.0,0.0,0.0,0.0,0.0,0.0,0.0,0.0,0.0,0.0,0.0,0.0,0.0,0.0,0.0,0.0,0.0,0.0,0.0,0.0,0.0,0.0,0.0,0.4771,0.547,0.6549,0.7625,0.878,1.0983,1.2695,1.38,1.7972,1.9811,1.9555,2.0982,2.1897,2.2243,2.1177,2.1359,2.228,2.1003,2.1035,2.1815,2.1544,2.1922,2.2641,2.3343,2.4473,2.5558,0.0,0.0,0.0,0.0,0.0,0.0,0.0,0.0,0.0,0.0,0.0,0.0,0.0,0.0,0.0,0.0,0.0,0.0,0.0,0.6609,0.6512,0.6277,0.6222,0.5996,0.5596,0.5943,0.5788,0.5049,0.5358,0.5435,0.528,0.5505,0.5592,0.5642,0.5142,0.4636,0.4092,0.3549,0.2867,0.2175,0.1853,0.0,0.0,0.0,0.0,0.0,0.0,0.0,0.0,0.0,0.0,0.0,0.0,0.0,-0.2098,-0.2091,-0.1849,-0.1614,-0.1614,-0.1655,-0.1771,-0.1891,-0.2288,-0.2674,-0.2755,-0.2642,0.0,-0.3003,0.0,0.0,0.0,0.0,0.0,0.0,0.0,0.0,0.0,0.0,0.0,0.0,0.0,0.0,0.0,0.0,0.0,0.0,0.0,0.0,0.0,0.0,0.0,0.6073,0.7149,0.8452,1.0067,1.1848,1.3219,1.4275,1.686,1.887,2.0227,2.0887,2.1494,2.2002,2.1272,2.142,2.2056,2.1308,2.1252,2.1652,2.1618,2.1946,2.2433,2.2469,2.3803,2.5616,0.0,0.0,0.0,0.0,0.0,0.0,0.0,0.0,0.0,0.0,0.0,0.0,0.0,0.0,0.0,0.0,0.0,0.0,0.0,0.597,0.5964,0.591,0.5739,0.5502,0.5179,0.5539,0.5352,0.4616,0.4518,0.4677,0.5184,0.515,0.5277,0.5404,0.4633,0.4175,0.3938,0.295,0.2287,0.1861,0.1625,0.1389,0.0,0.0,0.0,0.0,0.0,0.0,0.0,0.0,-0.1295,-0.1474,-0.1893,-0.1969,-0.1928,-0.2022,-0.1996,-0.1923,-0.2014,-0.2126,-0.2314,-0.2902,-0.2876,0.0,0.0,-0.304,-0.2998,-0.3184,-0.2744,0.0,0.0,0.0,0.0,0.0,0.0,0.0,0.0,0.0,0.0,0.0,0.0,0.0,0.0,0.0,0.0,0.0,0.0,0.0,0.0,0.0,0.0,0.5622,0.7157,0.8304,0.9069,1.087,1.2539,1.4122,1.6704,1.8741,2.0317,2.0918,2.1562,2.2253,2.1792,2.1793,2.2165,2.1518,2.1252,2.1274,2.1169,2.1319,2.1486,2.1696,2.279,2.4126,0.0,0.0,0.0,0.0,0.0,0.0,0.0,0.0,0.0,0.0,0.0,0.0,0.0,0.0,0.0,0.0,0.0,0.0,0.5626,0.5556,0.5498,0.5524,0.5327,0.5094,0.474,0.503,0.4915,0.4349,0.4138,0.4393,0.5116,0.5014,0.5087,0.5275,0.4466,0.4053,0.3835,0.2714,0.2078,0.1718,0.1439,0.126,0.0,0.0,0.0,0.0,0.0,0.0,0.0,0.0,-0.133,-0.1395,-0.1948,-0.202,-0.1928,-0.202,-0.2061,-0.2095,-0.2113,-0.2188,-0.2442,-0.3084,0.0,0.0,-0.3391,-0.3401,-0.3343,-0.3515,-0.3219,0.0,0.0,0.0,0.0,0.0,0.0,0.0,0.0,0.0,0.0,0.0,0.0,0.0,0.0,0.0,0.0,0.0,0.0,0.0,0.0,0.0,0.0,0.0,0.7011,0.8161,0.8685,1.0126,1.1909,1.3875,1.615,1.8239,2.0034,2.0783,2.1597,2.2381,2.1903,2.1991,2.2287,2.1636,2.1262,2.1052,2.0902,2.0839,2.0948,2.1169,2.2145,2.3213,0.0,0.0,0.0,0.0,0.0,0.0,0.0,0.0,0.5577,0.5793,0.6147,0.0,0.0,0.0,0.0,0.0,0.0,0.0,0.5976,0.5661,0.538,0.5091,0.5069,0.4791,0.4213,0.4546,0.4524,0.4204,0.4409,0.4714,0.5081,0.5089,0.5149,0.528,0.4804,0.4341,0.3839,0.2957,0.2353,0.1882,0.1414,0.122,0.1147,0.0,0.0,0.0,0.0,0.0,0.0,0.0,-0.1523,-0.1839,-0.2109,-0.2201,-0.2201,-0.2203,-0.2111,-0.1956,-0.1831,-0.1808,-0.1866,-0.2125,0.0,0.0,-0.3537,-0.3579,-0.3553,-0.3971,-0.3797,-0.3196,-0.1837,0.0,0.0,0.0,0.0,0.0,0.0,0.0,0.0,0.0,0.0,0.0,0.0,0.0,0.0,0.0,0.0,0.0,0.0,0.0,0.0,0.0,0.6868,0.8089,0.9296,1.0137,1.1471,1.3535,1.5089,1.706,1.9433,2.0394,2.1373,2.2381,2.1681,2.1835,2.2463,2.1626,2.1207,2.1041,2.0783,2.0786,2.0903,2.0903,2.1893,2.3276,0.0,0.0,0.0,0.0,0.0,0.0,0.0,0.0,0.5313,0.5744,0.5922,0.0,0.0,0.0,0.0,0.0,0.0,0.0,0.4797,0.4617,0.4483,0.4408,0.4219,0.4191,0.4414,0.4539,0.461,0.4569,0.4218,0.436,0.4886,0.4813,0.4884,0.5082,0.475,0.4422,0.4125,0.3455,0.2907,0.2509,0.2056,0.1769,0.1526,0.0,0.0,0.0,0.0,0.0,0.0,0.0,0.0,0.0,-0.2064,-0.1928,-0.1722,-0.2205,-0.2106,-0.193,-0.2284,-0.224,-0.2261,-0.2999,0.0,0.0,0.0,-0.3584,0.0,0.0,-0.242,-0.1754,-0.0977,0.0,0.0,0.0,0.0,0.0,0.0,0.0,0.0,0.0,0.0,0.0,0.0,0.0,0.0,0.0,0.0,0.0,0.0,0.0,0.0,0.0,0.6945,0.8008,0.9054,1.0056,1.1471,1.3535,1.4488,1.6233,1.8599,1.994,2.1073,2.1928,2.1692,2.1592,2.1572,2.0904,2.0555,2.0402,2.0455,2.054,2.0529,2.0529,2.0929,2.144,0.0,0.0,0.0,0.0,0.0,0.0,0.0,0.0,0.5326,0.5501,0.5793,0.6013,0.0,0.0,0.0,0.0,0.0,0.0,0.0,0.4168,0.3948,0.4012,0.3818,0.394,0.4408,0.4608,0.4723,0.478,0.4293,0.4273,0.4709,0.4622,0.4718,0.4999,0.4684,0.4383,0.4112,0.3482,0.2998,0.254,0.2066,0.1766,0.1552,0.0,0.0,0.0,0.0,0.0,0.0,0.0,0.0,0.0,-0.1569,-0.1422,-0.1274,-0.1821,-0.1787,-0.171,-0.2359,-0.2375,0.0,-0.3387,-0.3182,-0.2901,-0.3747,0.0,0.0,0.0,0.0,-0.1879,0.0,0.0,0.0,0.0,0.0,0.0,0.0,0.0,0.0,0.0,0.0,0.0,0.0,0.0,0.0,0.0,0.0,0.0,0.0,0.0,0.0,0.6173,0.7019,0.8084,0.9205,0.9895,1.1248,1.3251,1.4178,1.5685,1.7752,1.9296,2.0575,2.1507,2.1553,2.1371,2.1004,2.0654,2.0346,2.0074,2.0216,2.0346,2.041,2.041,2.054,2.0669,0.0,0.0,0.3878,0.4369,0.0,0.0,0.0,0.0,0.546,0.5169,0.5707,0.6099,0.0,0.0,0.0,0.0,0.0,0.0,0.0,0.4118,0.3768,0.3921,0.3879,0.401,0.4361,0.4759,0.4943,0.4943,0.4582,0.4498,0.467,0.4591,0.4723,0.4974,0.4697,0.4325,0.3884,0.3328,0.2831,0.2368,0.1789,0.1523,0.1433,0.0984,0.0,0.0,0.0,0.0,0.0,0.0,0.0,0.0,-0.0854,-0.0805,-0.0793,-0.1208,-0.1266,-0.1364,-0.2168,-0.2368,-0.2511,-0.3385,-0.3349,0.0,-0.3978,-0.4072,-0.4116,-0.4644,0.0,0.0,0.0,0.0,0.0,0.0,0.0,0.0,0.0,0.0,0.0,0.0,0.0,0.0,0.0,0.0,0.0,0.0,0.0,0.0,0.0,0.0,0.6788,0.6641,0.7176,0.8165,0.9442,0.9744,1.087,1.2746,1.3962,1.5336,1.6956,1.8543,1.9892,2.1093,2.1386,2.1272,2.086,2.073,2.052,2.014,2.014,2.0281,2.041,2.041,2.0475,2.0604,0.0,0.0,0.4275,0.4638,0.0,0.0,0.0,0.0,0.0,0.541,0.0,0.0,0.0,0.0,0.0,0.0,0.0,0.0,0.0,0.376,0.3763,0.406,0.4598,0.4923,0.5075,0.5307,0.5378,0.5238,0.5145,0.5127,0.5223,0.5227,0.5094,0.4864,0.4931,0.4622,0.4024,0.3816,0.3547,0.3296,0.2854,0.237,0.1928,0.1967,0.1564,0.0,0.0,0.0,0.0,0.0,0.0,0.0,-0.0837,-0.0571,-0.0291,-0.0863,-0.1054,-0.1246,-0.1912,-0.2303,0.0,-0.2904,-0.3179,-0.3559,-0.4567,-0.4561,-0.4127,-0.3228,0.0,0.0,0.0,0.0,0.0,0.0,0.0,0.0,0.0,0.0,0.0,0.0,0.0,0.0,0.0,0.0,0.0,0.0,0.0,0.0,0.0,0.6788,0.6788,0.6641,0.7176,0.7783,0.8385,0.9442,1.0421,0.0,1.3039,1.4505,1.6052,1.7972,1.9685,2.1114,2.1449,2.1428,2.1086,2.1039,2.083,2.054,2.054,2.0475,2.041,2.041,2.0346,2.0281,0.0,0.0,0.0,0.0,0.0,0.0,0.0,0.0,0.0,0.0,0.0,0.0,0.0,0.0,0.0,0.0,0.0,0.0,0.0,0.0,0.3741,0.3886,0.4684,0.5099,0.5046,0.5639,0.5891,0.5796,0.5789,0.5687,0.5492,0.5398,0.5247,0.5061,0.4919,0.4648,0.4209,0.3948,0.3778,0.3631,0.306,0.2626,0.2355,0.2121,0.1845,0.1573,0.1415,0.0,0.0,0.0,0.0,0.0,0.0,0.0,0.0197,-0.0301,-0.0466,-0.0646,-0.1696,-0.2149,0.0,-0.3191,0.0,-0.4209,-0.423,-0.422,-0.3732,-0.2252,0.0,0.0,0.0,0.0,0.0,0.0,0.0,0.0,0.0,0.0,0.0,0.0,0.0,0.0,0.0,0.0,0.0,0.0,0.0,0.0,0.0,0.6945,0.7099,0.6872,0.7484,0.794,0.8389,0.9593,1.0714,1.1687,1.3105,1.4681,1.6376,1.8543,2.0043,2.1104,2.147,2.146,2.1141,2.1105,2.0919,2.0669,2.0669,2.0669,2.054,2.054,2.041,2.0205,0.0,0.0,0.0,0.0,0.0,0.0,0.0,0.0,0.0,0.0,0.0,0.0,0.0,0.0,0.0,0.0,0.0,0.0,0.0,0.0,0.0,0.3909,0.4719,0.5105,0.5044,0.592,0.6379,0.6379,0.6401,0.6216,0.5851,0.5604,0.5467,0.5354,0.4943,0.4553,0.4322,0.3956,0.3767,0.3655,0.2965,0.269,0.2596,0.2069,0.1973,0.203,0.1497,0.1363,0.1305,0.0634,0.0,0.0,0.0,0.0,0.0607,0.0245,0.0151,-0.0053,-0.1267,-0.1933,-0.2471,-0.3707,-0.4452,0.0,-0.3672,-0.3569,-0.3253,0.0,0.0,0.0,0.0,0.0,0.0,0.0,0.0,0.0,0.0,0.0,0.0,0.0,0.0,0.0,0.0,0.0,0.0,0.0,0.0,0.0,0.656,0.7176,0.7407,0.7257,0.7799,0.8174,0.847,0.982,1.1007,1.1977,1.3528,1.518,1.6959,1.9133,2.0429,2.091,2.1449,2.1493,2.1191,2.1259,2.1119,2.0792,2.0857,2.0812,2.0669,2.0669,2.054,2.0335,0.0,0.0,0.0,0.0,0.0,0.0,0.0,0.0,0.0,0.0,0.6574,0.6479,0.0,0.5947,0.5413,0.4933,0.4564,0.4231,0.3883,0.0,0.0,0.4721,0.543,0.5869,0.6016,0.6426,0.6661,0.6661,0.6475,0.6559,0.6804,0.6463,0.5991,0.5405,0.5263,0.4761,0.4026,0.3821,0.3624,0.3421,0.3202,0.2846,0.2451,0.2451,0.0,0.0,0.0,0.1413,0.1311,0.0602,0.0501,0.0,0.0,0.0,0.0845,0.0789,0.028,-0.0239,-0.0471,0.0,-0.2857,0.0,-0.4084,-0.4016,0.0,0.0,-0.2898,0.0,0.0,0.0,0.0,0.0,0.0,0.0,0.0,0.0,0.0,0.0,0.0,0.0,0.0,0.0,0.0,0.0,0.0,0.0,0.0,0.5535,0.6788,0.7249,0.7484,0.7484,0.7723,0.7799,0.7633,0.9513,1.0559,1.0783,1.3636,1.5728,1.695,1.8337,1.9485,2.0554,2.1416,2.1712,2.1592,2.188,2.171,2.1219,2.1627,2.13,2.0669,2.0669,2.0475,2.0151,0.0,0.0,0.0,0.0,0.0,0.0,0.0,0.0,0.0,0.0,0.0,0.6331,0.6331,0.5692,0.5251,0.5099,0.4793,0.4481,0.4207,0.4396,0.4584,0.4707,0.5285,0.5729,0.6034,0.6413,0.6685,0.682,0.6652,0.6718,0.0,0.6592,0.6142,0.561,0.5636,0.5132,0.421,0.4244,0.4186,0.4052,0.3502,0.3213,0.3059,0.0,0.0,0.0,0.0,0.0,0.0,0.0,0.0728,0.078,0.0776,0.0,0.0,0.0,0.066,0.0173,-0.0685,-0.1515,-0.2394,0.0,-0.3371,-0.2993,-0.252,0.0,0.0,0.0,0.0,0.0,0.0,0.0,0.0,0.0,0.0,0.0,0.0,0.0,0.0,0.0,0.0,0.0,0.0,0.0,0.0,0.0,0.0,0.6163,0.6865,0.7249,0.7484,0.7484,0.7723,0.7723,0.7484,0.9513,1.1156,1.2565,1.4099,1.533,1.6324,1.7487,1.8909,2.0462,2.1124,2.145,2.1592,2.1734,2.1583,2.1232,2.1438,2.13,2.0978,2.0978,2.0786,2.0529,0.0,0.0,0.0,0.0,0.0,0.0,0.0,0.0,0.0,0.0,0.0,0.6302,0.6102,0.0,0.0,0.0,0.4952,0.482,0.4677,0.4685,0.476,0.4767,0.5301,0.5622,0.5775,0.6238,0.6524,0.6644,0.6533,0.6574,0.6789,0.6415,0.6065,0.0,0.5742,0.5312,0.4587,0.0,0.4622,0.4399,0.3738,0.3444,0.0,0.0,0.0,0.0,0.0,0.1651,0.0,0.0,0.0,0.0,0.0,0.0,0.0,0.0,0.0,0.0613,0.0,0.0,-0.1659,-0.256,-0.2467,-0.1954,0.0,0.0,0.0,0.0,0.0,0.0,0.0,0.0,0.0,0.0,0.0,0.0,0.0,0.0,0.0,0.0,0.0,0.0,0.0,0.0,0.0,0.0,0.5699,0.6791,0.6942,0.733,0.7484,0.7484,0.7642,0.7642,0.7484,0.9588,1.1822,1.4201,1.4497,1.5133,1.6123,1.6962,1.8447,2.0452,2.0917,2.1282,2.1553,2.1659,2.1517,2.1266,2.1335,2.1273,2.1094,2.1094,2.1031,2.0775,0.0,0.0,0.0,0.0,0.0,0.0,0.0,0.0,0.0,0.0,0.0,0.6779,0.6077,0.6072,0.5855,0.5152,0.521,0.5218,0.5069,0.5062,0.5147,0.5232,0.5784,0.0,0.5421,0.5814,0.6016,0.6059,0.5922,0.5942,0.6082,0.6103,0.5838,0.5324,0.5385,0.5264,0.4991,0.0,0.0,0.0,0.0,0.0,0.0,0.0,0.0,0.0,0.0,0.0,0.0,0.0,0.0,0.0,0.0,0.0,0.0,0.0,0.0,0.0,0.0,-0.0494,0.0,-0.1798,-0.1551,0.0,0.0,0.0,0.0,0.0,0.0,0.0,0.0,0.0,0.0,0.0,0.0,0.0,0.0,0.0,0.0,0.0,0.0,0.0,0.0,0.0,0.0,0.0,0.6398,0.718,0.718,0.7407,0.7484,0.7484,0.7484,0.7484,0.7484,0.9884,1.2265,1.4569,1.4569,1.5409,1.6862,1.689,1.8168,2.0452,2.0917,2.1352,2.1769,2.2069,2.1882,2.1509,2.1732,2.1453,2.0903,2.0903,2.085,2.0733,0.0,0.0,0.0,0.0,0.0,0.0,0.0,0.0,0.0,0.0,0.0,0.0,0.0,0.6159,0.5832,0.5832,0.55,0.5117,0.4739,0.4739,0.4776,0.4823,0.506,0.5268,0.5403,0.555,0.5616,0.5691,0.5562,0.5507,0.5481,0.5274,0.5203,0.5269,0.5484,0.5281,0.4733,0.5051,0.0,0.0,0.0,0.0,0.0,0.0,0.0,0.0,0.0,0.0,0.0,0.0,0.0,0.0,0.0,0.0,0.0,0.0,0.0,0.0,0.0,0.0,0.0,-0.0722,-0.0375,0.0179,0.0,0.0,0.0,0.0,0.0,0.0,0.0,0.0,0.0,0.0,0.0,0.0,0.0,0.0,0.0,0.0,0.0,0.0,0.0,0.0,0.0,0.0,0.0,0.6907,0.7165,0.7159,0.72,0.7472,0.7484,0.8084,0.9437,1.0559,1.2191,1.4274,1.4497,1.4919,1.5471,1.5965,1.7015,1.8562,1.9505,2.0624,2.1702,2.1732,2.1607,2.1396,2.1433,2.1319,2.1094,2.1094,2.1031,2.0978,0.0,0.0,0.0,0.0,0.0,0.6794,0.73,0.7408,0.7515,0.7628,0.0,0.0,0.0,0.0,0.5782,0.5996,0.5337,0.4841,0.4622,0.4574,0.4613,0.4666,0.4856,0.5014,0.5153,0.5251,0.5268,0.5242,0.51,0.4954,0.4802,0.4673,0.4683,0.4917,0.5205,0.5135,0.0,0.0,0.0,0.4268,0.0,0.0,0.3292,0.0,0.0,0.0,0.0,0.0,0.0,0.0,0.0,0.0,0.0,0.0,0.0,0.0,0.0,0.0,0.0118,0.0,0.0,0.0,0.0597,0.1148,0.1433,0.0,0.0,0.0,0.0,0.0,0.0,0.0,0.0,0.0,0.0,0.0,0.0,0.0,0.0,0.0,0.0,0.0,0.0,0.0,0.0,0.0,0.0,0.0,0.7314,0.7147,0.7187,0.7472,0.7855,0.8908,1.0708,1.1378,1.2565,1.4274,1.4489,1.4713,1.4991,1.5551,1.6448,1.7548,1.8764,2.0088,2.145,2.1474,2.1443,2.1363,2.1229,2.1221,2.1221,2.1221,2.1221,2.1158,0.0,0.0,0.4519,0.4519,0.5719,0.6756,0.7031,0.681,0.675,0.7085,0.0,0.0,0.0,0.0,0.0,0.5622,0.4709,0.4417,0.4835,0.4743,0.4729,0.4771,0.518,0.5144,0.4713,0.4915,0.4964,0.466,0.4523,0.4332,0.4096,0.0,0.4265,0.4287,0.444,0.4751,0.5227,0.0,0.485,0.4311,0.0,0.3563,0.3193,0.0,0.0,0.0,0.2699,0.2204,0.0,0.0,0.0,0.0,0.0,0.0,0.0,0.0,0.0,0.0,0.0,0.0,0.0,0.0,0.0,0.0,0.1792,0.0,0.0,0.0,0.0,0.0,0.0,0.0,0.0,0.0,0.0,0.0,0.0,0.0,0.0,0.0,0.0,0.0,0.0,0.0,0.0,0.0,0.7468,0.7468,0.7484,0.7484,0.7484,0.7561,0.868,0.9879,1.1156,1.2345,1.3455,1.4569,1.4569,1.4991,1.5762,1.5762,1.6378,1.753,1.8754,1.9922,2.1115,2.1392,2.149,2.1461,2.1289,2.1221,2.1221,2.1221,2.1221,2.1221,0.0,0.407,0.4349,0.5513,0.5891,0.6154,0.6544,0.6977,0.7192,0.0,0.0,0.0,0.0,0.0,0.5018,0.4963,0.4488,0.4313,0.457,0.4467,0.434,0.4351,0.4563,0.4584,0.4337,0.4392,0.4337,0.4123,0.4128,0.4072,0.3911,0.0,0.0,0.0,0.4157,0.4307,0.4429,0.5253,0.0,0.0,0.4485,0.4054,0.0,0.0,0.0,0.0,0.0,0.1864,0.1185,0.0,0.1166,0.0981,0.0,0.0,0.0,0.0,0.0,0.0,0.101,0.0,0.0,0.0,0.0,0.0,0.2017,0.2271,0.0,0.0,0.0,0.0,0.0,0.0,0.0,0.0,0.0,0.0,0.0,0.0,0.0,0.0,0.0,0.0,0.0,0.0,0.0,0.0,0.7196,0.7219,0.7464,0.7484,0.7787,0.8322,0.8983,1.0173,1.197,1.2565,1.3455,1.4569,1.4569,1.4713,1.4919,1.4919,1.5743,1.7134,1.8124,1.9285,2.0572,2.1193,2.149,2.1461,2.1289,2.1221,2.1221,2.1221,2.1221,2.1221,0.4236,0.4291,0.4512,0.5618,0.5891,0.6082,0.6442,0.6678,0.688,0.0,0.0,0.0,0.0,0.0,0.0,0.4684,0.4412,0.4239,0.4353,0.419,0.4079,0.4024,0.427,0.4388,0.418,0.4338,0.4338,0.417,0.4094,0.4024,0.0,0.0,0.0,0.0,0.3955,0.3904,0.0,0.0,0.0,0.0,0.4174,0.0,0.0,0.3407,0.3017,0.0,0.0,0.0,0.1423,0.1469,0.1344,0.0,0.0,0.0,0.0,0.0,0.0,0.0,0.0,0.0,0.0,0.0,0.0,0.0,0.2527,0.2465,0.2358,0.0,0.0,0.0,0.0,0.0,0.0,0.0,0.0,0.0,0.0,0.0,0.0,0.0,0.0,0.0,0.0,0.6696,0.7395,0.7714,0.7421,0.7375,0.7468,0.7484,0.7936,0.8912,0.9658,1.0846,1.2565,1.323,1.397,1.4569,1.4569,1.4569,1.4569,1.4569,1.535,1.6723,1.7789,1.8981,2.0256,2.1179,2.1485,2.1393,2.1274,2.1221,2.1221,2.1221,2.1221,2.1256,0.0,0.447,0.4974,0.5364,0.589,0.635,0.6615,0.6262,0.6218,0.0,0.0,0.0,0.0,0.0,0.0,0.0,0.4402,0.422,0.4239,0.4079,0.3965,0.3852,0.4239,0.4356,0.4193,0.4467,0.4577,0.0,0.0,0.0,0.0,0.0,0.0,0.0,0.3741,0.3471,0.3105,0.0,0.0,0.4027,0.3531,0.345,0.0,0.0,0.3385,0.0,0.3254,0.2689,0.1921,0.2044,0.1817,0.0,0.0,0.0,0.0,0.0,0.122,0.0,0.0,0.0,0.0,0.0,0.0,0.0,0.3182,0.2764,0.2449,0.0,0.0,0.0,0.0,0.0,0.0,0.0,0.0,0.0,0.0,0.0,0.0,0.0,0.0,0.0,0.6619,0.7702,0.8327,0.8178,0.7953,0.7723,0.7561,0.7484,0.8008,0.9205,1.0479,1.1675,1.2792,1.3977,1.4569,1.4569,1.4569,1.4569,1.4569,1.4705,1.5394,1.6619,1.7816,1.901,2.0207,2.124,2.1566,2.1364,2.1331,2.133,2.1394,2.1394,2.1394,2.1463,0.4601,0.523,0.5779,0.6181,0.6495,0.6627,0.6386,0.6618,0.6679,0.6499,0.6017,0.0,0.0,0.0,0.0,0.0,0.4333,0.4275,0.4408,0.4245,0.4138,0.4138,0.4193,0.4193,0.4024,0.4079,0.4132,0.0,0.0,0.0,0.0,0.0,0.0,0.0,0.3355,0.301,0.2741,0.0,0.0,0.3839,0.3977,0.0,0.3256,0.4112,0.3742,0.2875,0.3875,0.348,0.2499,0.0,0.2278,0.1907,0.0,0.0,0.0,0.0,0.0,0.0,0.0,0.0,0.0,0.0,0.0,0.0,0.3722,0.3664,0.3559,0.0,0.0,0.0,0.0,0.0,0.0,0.0,0.0,0.0,0.0,0.0,0.0,0.0,0.0,0.0,0.7548,0.8241,0.8551,0.8327,0.803,0.7804,0.7723,0.7565,0.794,0.877,1.0265,1.1527,1.2418,1.3897,1.4569,1.4569,1.4569,1.4569,1.4641,1.5267,1.6173,1.7333,1.8547,1.9743,2.0894,2.1696,2.2027,2.2024,2.1956,2.2105,2.2386,2.2386,2.2386,2.2532,0.4604,0.5439,0.6128,0.6381,0.6508,0.6429,0.6098,0.6334,0.6334,0.5746,0.5082,0.0,0.0,0.0,0.0,0.0,0.0,0.0,0.0,0.4408,0.4304,0.4193,0.4301,0.4245,0.4079,0.419,0.4242,0.4242,0.0,0.0,0.0,0.0,0.0,0.0,0.0,0.0,0.0,0.0,0.4012,0.4579,0.4828,0.0,0.4628,0.5439,0.537,0.4805,0.5007,0.4229,0.309,0.2907,0.2975,0.0,0.0,0.2117,0.2573,0.0,0.2497,0.2506,0.0,0.0,0.0,0.3971,0.0,0.0,0.0,0.4357,0.4041,0.4092,0.0,0.0,0.0,0.0,0.0,0.0,0.0,0.0,0.0,0.0,0.0,0.0,0.0,0.0,0.8241,0.8546,0.8551,0.825,0.8025,0.7876,0.7642,0.7718,0.847,0.982,1.0858,1.2044,1.3455,1.4194,1.4569,1.4569,1.4569,1.4569,1.4641,1.4991,1.5927,1.7349,1.8559,1.9776,2.1114,2.2166,2.2714,2.2866,2.2545,2.2537,2.2685,2.2685,2.2685,2.2787,0.4282,0.5284,0.6092,0.6272,0.6312,0.6196,0.5901,0.5955,0.5772,0.5132,0.0,0.0,0.0,0.0,0.0,0.0,0.0,0.0,0.0,0.0,0.4371,0.4182,0.431,0.427,0.4103,0.4213,0.4266,0.4266,0.0,0.0,0.0,0.0,0.0,0.0,0.0,0.0,0.0,0.0,0.0,0.5675,0.0,0.6132,0.5848,0.6624,0.6822,0.6546,0.6031,0.5192,0.4251,0.375,0.0,0.4161,0.2737,0.3039,0.0,0.0,0.0,0.0,0.0,0.0,0.0,0.0,0.0,0.5262,0.0,0.0,0.0,0.4512,0.0,0.0,0.0,0.0,0.0,0.0,0.0,0.0,0.0,0.0,0.0,0.0,0.0,0.0,0.0,0.8527,0.8501,0.8246,0.8178,0.8025,0.771,0.7949,0.8927,1.0783,1.1378,1.2565,1.4274,1.4489,1.4569,1.4569,1.4569,1.4569,1.4641,1.4919,1.5811,1.7261,1.8561,1.994,2.1298,2.2531,2.3224,2.3441,2.3001,2.2903,2.2972,2.2972,2.2972,2.3098,0.3761,0.4773,0.5677,0.6296,0.6267,0.6147,0.6023,0.5848,0.0,0.0,0.0,0.0,0.0,0.0,0.0,0.0,0.0,0.0,0.3809,0.0,0.0,0.4042,0.3957,0.3892,0.3832,0.3593,0.3411,0.3411,0.0,0.0,0.0,0.0,0.0,0.0,0.3486,0.0,0.0,0.0,0.6522,0.0,0.8224,0.7234,0.0,0.6557,0.6484,0.5889,0.665,0.6845,0.6634,0.0,0.5685,0.5342,0.0,0.4704,0.0,0.0,0.0,0.0,0.0,0.0,0.0,0.0,0.5121,0.0,0.0,0.0,0.5489,0.5702,0.0,0.0,0.0,0.0,0.0,0.0,0.0,0.0,0.0,0.0,0.0,0.0,0.0,0.0,0.0,0.7829,0.8264,0.8585,0.8327,0.825,0.8551,0.825,0.8703,0.997,1.1156,1.2124,1.3084,1.4122,1.4569,1.4569,1.4569,1.4569,1.4641,1.6035,1.716,1.8138,1.9611,2.0792,2.1797,2.2628,2.3001,2.3065,2.3396,2.3727,2.4028,2.4028,2.4028,2.4232,0.3319,0.4356,0.5096,0.5188,0.5302,0.5214,0.4711,0.4426,0.0,0.0,0.0,0.0,0.0,0.0,0.0,0.0,0.0,0.3744,0.0,0.0,0.0,0.3751,0.367,0.3618,0.3505,0.3387,0.3327,0.3326,0.314,0.0,0.0,0.0,0.0,0.0,0.4031,0.0,0.5846,0.0,0.6787,0.0,0.0,0.0,0.0,0.8151,0.836,0.7788,0.805,0.7932,0.7389,0.0,0.6623,0.0,0.0,0.0,0.0,0.0,0.0,0.0,0.0,0.0,0.0,0.0,0.0,0.0,0.0,0.0,0.6527,0.0,0.0,0.0,0.0,0.0,0.0,0.0,0.0,0.0,0.0,0.0,0.0,0.0,0.0,0.0,0.0,0.0,0.0,0.0,0.7735,0.7803,0.8369,0.8867,0.982,1.123,1.2271,1.3084,1.3897,1.4346,1.4569,1.4569,1.4569,1.4569,1.4649,1.5977,1.6954,1.7644,1.9649,2.1018,2.1842,2.2916,2.353,2.374,2.3897,2.4043,2.42,2.42,2.42,2.4261,0.2595,0.35,0.4173,0.4056,0.4158,0.4068,0.3471,0.0,0.0,0.0,0.0,0.0,0.3375,0.3071,0.0,0.0,0.0,0.363,0.0,0.0,0.3808,0.0,0.0,0.0,0.0,0.3077,0.3036,0.3018,0.2831,0.0,0.0,0.0,0.0,0.0,0.0,0.5679,0.6738,0.0,0.0,0.8108,0.7501,0.7541,0.8142,0.9256,0.9593,0.9465,0.9358,0.8888,0.8249,0.7517,0.766,0.0,0.6561,0.0,0.0,0.0,0.0,0.0,0.6953,0.0,0.0,0.0,0.0,0.0,0.0,0.0,0.0,0.0,0.0,0.0,0.0,0.0,0.0,0.0,0.0,0.0,0.0,0.0,0.0,0.0,0.0,0.0,0.0,0.0,0.0,0.0,0.0,0.816,0.857,0.9791,1.1156,1.2565,1.3237,1.3825,1.4569,1.4569,1.4569,1.4569,1.4736,1.4792,1.48,1.6229,1.7125,1.7596,1.9895,2.1257,2.1973,2.3139,2.3751,2.4043,2.4127,2.42,2.42,2.42,2.42,2.4261,0.134,0.2034,0.0,0.0,0.0,0.2907,0.0,0.0,0.0,0.0,0.0,0.0,0.0,0.0,0.0,0.0,0.0,0.3333,0.3628,0.0,0.3761,0.0,0.0,0.283,0.0,0.0,0.2155,0.2219,0.2219,0.0,0.0,0.0,0.0,0.0,0.0,0.614,0.6785,0.7616,0.8225,0.8608,0.8545,0.8865,0.9183,0.0,0.9344,0.9951,0.9927,0.0,0.0,0.9202,0.8949,0.0,0.0,0.0,0.0,0.0,0.0,0.0,0.0,0.0,0.0,0.757,0.0,0.0,0.0,0.0,0.6464,0.0,0.0,0.0,0.0,0.0,0.0,0.0,0.0,0.0,0.0,0.0,0.0,0.0,0.0,0.0,0.0,0.0,0.0,0.0,0.0,0.0,0.965,1.1087,1.2418,1.3455,1.3462,1.3825,1.4569,1.4569,1.4569,1.4569,1.4998,1.5165,1.5255,1.7151,1.8284,1.8822,2.0788,2.1956,2.2478,2.3298,2.3593,2.3677,2.4043,2.42,2.42,2.42,2.42,2.4394,0.0652,0.0926,0.0,0.0,0.0,0.0,0.0,0.1993,0.0,0.0,0.0,0.0,0.0,0.0,0.3141,0.0,0.0,0.3637,0.3662,0.3679,0.0,0.0,0.0,0.2893,0.0,0.0,0.0,0.0,0.0,0.0,0.3315,0.0,0.0,0.0,0.0,0.6408,0.0,0.0,0.0,0.0,0.0,0.8106,0.8123,0.0,0.0,1.0038,1.0038,1.0038,0.0,0.9386,0.9299,0.9265,0.8739,0.8384,0.8239,0.834,0.8037,0.0,0.0,0.0,0.8045,0.8225,0.0,0.0,0.0,0.0,0.0,0.0,0.0,0.0,0.0,0.0,0.0,0.0,0.0,0.0,0.0,0.0,0.0,0.0,0.0,0.0,0.0,0.0,0.0,0.0,0.0,0.0,0.0,1.0678,1.2023,1.2788,1.3776,1.4462,1.4998,1.4998,1.511,1.5332,1.5451,1.5515,1.5599,1.7623,1.8635,1.8935,2.1189,2.2403,2.2852,2.3372,2.3751,2.397,2.4127,2.42,2.4261,2.4754,2.4957,2.517,0.0155,0.026,0.0,0.0,0.0,0.0,0.0,0.0,0.0,0.0,0.2038,0.0,0.2996,0.0,0.2974,0.0,0.3572,0.3605,0.3869,0.3622,0.0,0.3603,0.3308,0.0,0.0,0.0,0.0,0.0,0.0,0.3539,0.4053,0.4776,0.0,0.0,0.0,0.6311,0.6515,0.0,0.6917,0.0,0.0,0.7836,0.0,0.0,0.9737,0.9777,0.0,1.0038,0.9995,0.9639,0.9558,0.947,0.9048,0.872,0.8603,0.8586,0.8235,0.7918,0.8146,0.8459,0.0,0.8873,0.9054,0.0,0.9133,0.0,0.0,0.0,0.0,0.0,0.0,0.0,0.0,0.0,0.0,0.0,0.0,0.0,0.0,0.0,0.0,0.0,0.0,0.0,0.0,0.0,0.0,0.0,0.0,0.0,1.257,1.3037,1.4316,1.5125,1.5364,1.5364,1.5467,1.5682,1.6102,1.6313,1.6407,1.8475,1.9362,1.9534,2.1652,2.2777,2.3075,2.3604,2.397,2.42,2.42,2.42,2.4261,2.4754,2.5241,2.5861,-0.0155,-0.0052,0.0,0.0,0.0882,0.0,0.0,0.0,0.1344,0.0,0.1833,0.2003,0.2511,0.2269,0.2408,0.317,0.2984,0.0,0.4162,0.3645,0.0,0.0,0.3341,0.3119,0.3246,0.0,0.0,0.0,0.0,0.0,0.5408,0.4958,0.0,0.0,0.5811,0.0,0.5896,0.6531,0.681,0.6847,0.7615,0.8199,0.8657,0.9142,0.9335,0.9345,0.9864,1.0038,1.0038,1.0038,0.9864,0.9602,0.9345,0.9087,0.8823,0.8652,0.8568,0.8568,0.8656,0.9257,0.9852,0.9367,0.0,0.0,0.0,0.0,0.8749,0.0,0.0,0.0,0.0,0.0,0.0,0.0,0.0,0.0,0.0,0.0,0.0,0.0,0.0,0.0,0.0,0.0,0.0,0.0,0.0,0.0,0.0,0.0,1.3848,1.4101,1.503,1.5578,1.5705,1.565,1.5734,1.5806,1.6907,1.7536,1.7622,1.9568,2.0459,2.0615,2.2306,2.3001,2.3075,2.3897,2.42,2.42,2.42,2.42,2.42,2.4261,2.5241,2.662,-0.0111,0.0055,0.0166,0.0,0.0474,0.0692,0.0,0.0,0.0,0.0,0.1505,0.1631,0.2348,0.2229,0.2294,0.265,0.2775,0.0,0.0,0.0,0.0,0.3127,0.2853,0.2612,0.2584,0.2563,0.0,0.3591,0.0,0.0,0.5182,0.5322,0.0,0.0,0.0,0.0,0.5221,0.6096,0.6702,0.7141,0.777,0.799,0.0,0.0,0.9335,0.9345,0.9864,1.0038,1.0038,1.0038,0.9864,0.9602,0.9345,0.9087,0.8823,0.8652,0.8568,0.8656,0.8999,0.9262,0.9579,1.0066,1.0138,1.004,0.0,0.0,0.0,0.0,0.0,0.0,0.0,0.0,0.0,0.0,0.0,0.0,0.0,0.0,0.0,0.0,0.0,0.0,0.0,0.0,0.0,0.0,0.0,0.0,0.0,0.0,0.0,1.4053,1.3624,1.4236,1.6047,1.5292,1.5721,1.7397,1.7105,1.762,1.8873,1.9367,2.0129,2.0991,2.2381,2.315,2.353,2.397,2.42,2.42,2.42,2.42,2.4334,2.5441,2.6756,2.8039,-0.0286,0.0,0.0,-0.0393,0.0,0.0,0.0819,0.0,0.0,0.1705,0.1481,0.0,0.1985,0.1945,0.2024,0.2345,0.2388,0.0,0.2664,0.0,0.0,0.2857,0.2643,0.2503,0.2524,0.2575,0.0,0.4036,0.0,0.0,0.5511,0.0,0.0,0.0,0.0,0.5116,0.0,0.6092,0.6904,0.7342,0.8037,0.0,0.0,0.8982,0.9335,0.9345,0.9864,1.0038,1.0038,1.0038,0.9864,0.9602,0.9345,0.9087,0.8823,0.8652,0.8568,0.874,0.9174,0.9432,0.9777,1.0463,1.0544,1.0533,1.0528,1.0141,0.9662,0.0,0.0,0.0,0.0,0.0,0.0,0.0,0.0,0.0,0.0,0.0,0.0,0.0,0.0,0.0,0.0,0.0,0.0,0.0,0.0,0.0,0.0,0.0,0.0,1.3171,1.3595,1.421,1.5054,1.4553,1.5105,1.6743,1.6657,1.7518,1.9335,1.9659,2.0372,2.1471,2.2542,2.315,2.3372,2.397,2.42,2.42,2.42,2.4406,2.4826,2.6,2.696,2.7683,-0.0457,0.0,0.0,0.0,0.0,0.0,0.0,0.0836,0.0,0.2112,0.0,0.1548,0.1774,0.1609,0.1611,0.2137,0.0,0.2051,0.2741,0.2312,0.2286,0.2675,0.2511,0.2461,0.2631,0.2631,0.0,0.0,0.0,0.0,0.0,0.0,0.0,0.0,0.0,0.0,0.0,0.6375,0.7092,0.7514,0.8263,0.8623,0.8706,0.9187,0.9381,0.9432,0.9864,1.0038,1.0038,1.0038,0.9864,0.9602,0.9432,0.9174,0.8911,0.874,0.8744,0.8828,0.9349,0.9777,1.0207,1.0554,1.0992,1.1176,1.0819,1.0727,1.0554,1.0125,1.0038,0.9838,0.0,0.0,0.0,0.0,0.0,0.0,0.0,0.0,0.0,0.0,0.0,0.0,0.0,0.0,0.0,0.0,0.0,0.0,0.0,0.0,0.0,1.225,1.4014,1.4592,1.3866,0.0,1.4412,1.5747,1.6176,1.7495,1.9659,2.0216,2.1011,2.2035,2.2703,2.3075,2.3224,2.3897,2.42,2.42,2.42,2.4611,2.5241,2.5861,2.6252,2.6501,0.0,0.0,0.0,0.0,0.0,0.0071,0.0864,0.1512,0.1996,0.2218,0.2181,0.202,0.1962,0.1844,0.1769,0.1792,0.1511,0.0,0.0,0.0,0.0,0.17,0.1603,0.1596,0.1685,0.2394,0.3364,0.0,0.0,0.0,0.0,0.0,0.0,0.0,0.0,0.0,0.5837,0.623,0.0,0.7843,0.8427,0.8795,0.9216,0.9738,0.9889,0.9864,0.9951,1.0038,1.0038,1.0038,0.9864,0.9602,0.9515,0.9432,0.9262,0.9174,0.9262,0.9515,1.0038,1.0294,1.0641,1.1084,1.1262,1.1267,1.1003,1.0824,1.0641,1.0294,1.0125,1.0014,0.9856,0.0,0.0,0.0,0.0,0.0,0.0,0.0,0.0,0.0,0.0,0.0,0.0,0.0,0.0,0.0,0.0,0.0,0.0,0.0,0.0,0.0,1.29,0.0,0.0,0.0,1.5309,1.8545,1.7129,1.8175,2.1328,2.0779,2.1308,2.2777,2.2927,2.3372,2.397,2.4116,2.42,2.42,2.42,2.4273,2.4406,2.4539,2.5358,2.6569,0.0,0.0,0.0,0.0,0.0,0.0,0.0,0.2036,0.0,0.2619,0.2393,0.2226,0.2268,0.2128,0.1958,0.2004,0.1791,0.17,0.1737,0.1619,0.1459,0.1433,0.1436,0.0,0.2082,0.2658,0.3541,0.5011,0.0,0.0,0.0,0.0,0.0,0.0,0.0,0.5433,0.0,0.0,0.0,0.7777,0.8888,0.9315,0.9333,0.9789,1.0038,1.0038,1.0038,1.0038,1.0038,1.0038,0.9951,0.9777,0.9602,0.9515,0.9432,0.9345,0.9519,0.9864,1.0207,1.0554,1.0901,1.1262,1.1181,1.1089,1.0911,1.0646,1.0467,1.0207,1.0038,1.0058,1.0169,1.0503,0.0,0.0,0.0,0.0,0.0,0.0,0.0,0.0,0.0,0.0,0.0,0.0,0.0,0.0,0.0,0.0,0.0,0.0,0.0,0.0,0.0,0.0,0.0,0.0,0.0,1.7792,1.7304,1.8609,2.1395,2.1001,2.1614,2.3001,2.3224,2.353,2.3897,2.4116,2.42,2.42,2.42,2.42,2.4261,2.4611,2.5441,2.6539,0.0,0.0063,0.0,0.0,0.0829,0.0,0.1642,0.2286,0.2769,0.2872,0.2603,0.2337,0.2439,0.2259,0.2165,0.2155,0.2018,0.1915,0.1857,0.1737,0.1563,0.1424,0.1431,0.1765,0.2471,0.2993,0.3871,0.0,0.0,0.0,0.0,0.0,0.0,0.0,0.0,0.0,0.0,0.0,0.7808,0.7815,0.9298,0.9694,0.9519,0.9864,1.0038,1.0038,1.0038,1.0038,0.9951,0.9951,0.9951,0.9951,0.9777,0.9689,0.9689,0.9519,0.9777,1.012,1.0294,1.0727,1.1079,1.1262,1.1181,1.0921,1.0733,1.0467,1.0207,1.0038,1.0038,1.0019,1.0264,1.093,0.0,0.0,0.0,0.0,0.0,0.0,0.0,0.0,0.0,0.0,0.0,0.0,0.0,0.0,0.0,1.2076,1.1791,1.2514,1.2712,0.0,0.0,1.3793,1.3659,0.0,1.5541,1.6745,1.7361,1.8829,2.0991,2.1145,2.1918,2.3001,2.3298,2.3593,2.3751,2.4043,2.42,2.42,2.42,2.42,2.4261,2.5028,2.5791,2.6414,0.0,0.0,0.0,0.0,0.0,0.0,0.1741,0.1929,0.2283,0.2867,0.2873,0.2713,0.2303,0.2216,0.2199,0.2158,0.1759,0.1648,0.1955,0.1692,0.1446,0.1396,0.1421,0.1433,0.1516,0.3303,0.4281,0.0,0.0,0.0,0.0,0.0,0.0,0.0,0.0,0.0,0.0,0.7182,0.7862,0.8499,0.9152,0.9607,0.9951,0.9951,1.0038,1.0038,1.0038,1.0038,0.9951,0.9689,0.9777,1.0038,0.9951,0.9951,0.9951,0.9951,1.0294,1.0641,1.0641,1.0997,1.1262,1.1262,1.1181,1.0921,1.0733,1.0467,1.0207,1.0038,1.0038,1.0028,1.0072,1.0413,1.0857,0.0,0.0,0.0,0.0,0.0,0.0,0.0,0.0,0.0,0.0,1.2765,0.0,0.0,1.2126,1.2394,1.2924,1.2233,1.2003,1.2355,0.0,1.3421,1.3941,1.4114,1.5404,1.7826,1.7759,1.8692,2.0615,2.1405,2.2176,2.3001,2.3075,2.3446,2.4127,2.4189,2.42,2.42,2.42,2.42,2.4261,2.5028,2.5791,2.6483,0.0,0.0,0.0,0.0,0.0,0.0,0.0,0.1625,0.1753,0.1954,0.2234,0.2334,0.1978,0.2261,0.2348,0.2144,0.1985,0.1882,0.1912,0.186,0.1685,0.1472,0.1483,0.1759,0.2284,0.3645,0.4615,0.0,0.0,0.0,0.0,0.0,0.0,0.0,0.0,0.6569,0.7108,0.7789,0.8504,0.9078,0.9515,0.9864,1.0038,1.0038,1.0031,1.0145,1.0145,1.0145,1.0145,0.9878,0.9795,0.9777,0.9607,0.9607,0.9694,1.0038,1.0467,1.0895,1.1241,1.1516,1.1699,1.1613,1.1176,1.0824,1.0727,1.0381,1.0125,1.0038,1.0381,1.0982,1.1488,1.2259,1.2606,0.0,0.0,0.0,0.0,0.0,0.0,0.0,0.0,0.0,0.0,0.0,0.0,0.0,0.0,1.2314,1.2076,1.2584,1.3075,1.351,0.0,1.4571,1.5627,1.628,1.7322,1.878,1.9697,2.0791,2.1993,2.2392,2.2927,2.3751,2.3751,2.3897,2.42,2.42,2.42,2.42,2.42,2.42,2.4261,2.5028,2.6,2.7044,0.0338,0.0,0.0396,0.0,0.0848,0.0963,0.1315,0.1295,0.115,0.1231,0.163,0.1934,0.1733,0.2115,0.2302,0.21,0.2025,0.2019,0.1878,0.1811,0.1723,0.1513,0.1806,0.0,0.2984,0.4187,0.517,0.5825,0.6204,0.0,0.0,0.0,0.0,0.0,0.6676,0.7141,0.7597,0.8442,0.9024,0.9429,0.987,1.0078,1.0224,1.0224,1.023,1.0362,1.0362,1.0362,1.0271,0.9999,0.9723,0.9495,0.9385,0.9432,0.9689,1.012,1.0727,1.1241,1.1591,1.1768,1.1871,1.1699,1.117,1.0727,1.0727,1.0381,1.0038,1.0294,1.1063,1.1918,1.2589,1.3451,1.3861,1.3187,0.0,0.0,0.0,0.0,0.0,0.0,1.447,1.4681,1.5616,0.0,0.0,0.0,0.0,0.0,1.2135,1.2877,0.0,0.0,0.0,0.0,0.0,1.7195,1.8229,1.9423,2.0924,2.1928,2.2456,2.2916,2.353,2.4043,2.4116,2.42,2.42,2.42,2.42,2.42,2.42,2.4281,2.4553,2.554,2.6569,2.7683,0.1012,0.1108,0.1115,0.1327,0.1428,0.141,0.1353,0.104,0.0678,0.0744,0.1266,0.1602,0.1476,0.1767,0.1852,0.1815,0.1679,0.1663,0.1806,0.1711,0.1544,0.0,0.0,0.3042,0.3136,0.5124,0.6164,0.6164,0.0,0.0,0.6915,0.0,0.6607,0.6568,0.7364,0.7757,0.7845,0.8907,0.9367,0.9624,1.0088,1.039,1.0565,1.0565,1.057,1.057,1.057,1.0385,1.02,0.9921,0.9643,0.9393,0.9292,0.9777,1.0294,1.0294,1.0982,1.1671,1.1671,1.1688,1.1699,1.1699,1.117,1.0727,1.0727,1.0381,1.0207,1.1068,1.1997,1.2674,1.2674,1.3451,1.3861,1.3187,0.0,0.0,0.0,0.0,0.0,0.0,1.37,1.3954,1.5021,0.0,0.0,0.0,0.0,0.0,0.0,0.0,0.0,1.3459,1.307,0.0,1.5891,1.612,1.7379,1.9599,2.0827,2.1288,2.1211,2.283,2.3593,2.3604,2.4055,2.42,2.42,2.42,2.42,2.42,2.42,2.4487,2.5124,2.6719,2.7557,2.8227,0.0349,0.0364,0.0375,0.046,0.0474,0.0484,0.0478,0.0294,0.0399,0.0689,0.111,0.1436,0.1632,0.2016,0.2196,0.0,0.1862,0.1751,0.0,0.1741,0.2034,0.2648,0.2791,0.3215,0.391,0.521,0.5915,0.5833,0.0,0.0,0.0,0.7021,0.726,0.7778,0.8113,0.8551,0.9287,0.9561,0.9962,1.0287,1.0475,1.0518,1.0575,1.0575,1.0664,1.0792,1.0792,1.0603,1.0319,1.0121,0.975,0.9351,0.9238,0.9561,1.0081,1.0558,1.1139,1.1805,1.2238,1.2277,1.2112,1.1768,1.1332,1.0814,1.0467,1.0641,1.1149,1.2083,1.3021,1.388,1.4398,1.4741,1.4792,1.4166,1.5063,0.0,0.0,0.0,0.0,0.0,1.5256,1.5384,0.0,1.5589,0.0,0.0,0.0,0.0,0.0,0.0,0.0,0.0,1.5176,0.0,1.6423,1.7291,1.835,1.9423,2.1068,2.208,2.2456,2.3519,2.397,2.4043,2.4273,2.4345,2.42,2.4345,2.4542,2.4682,2.4682,2.5004,2.5604,2.7189,2.8109,2.887,0.0,0.0,0.0,0.0,0.0,0.0,0.0,0.0201,0.0509,0.0809,0.1341,0.1886,0.199,0.2282,0.0,0.1959,0.1817,0.171,0.1647,0.1715,0.2205,0.3153,0.3483,0.4087,0.5054,0.0,0.0,0.6548,0.7142,0.7363,0.7312,0.749,0.7869,0.8434,0.8808,0.9279,0.993,1.0116,1.0343,1.0693,1.0693,1.074,1.0806,1.0806,1.0891,1.1009,1.1009,1.0817,1.043,1.0228,0.9861,0.9486,0.9581,1.0052,1.0566,1.0918,1.1648,1.2333,1.2704,1.2673,1.2342,1.1902,1.1484,1.0982,1.0376,1.0895,1.1666,1.2504,1.3451,1.4398,1.5257,1.5431,1.5299,1.4896,1.5576,1.5942,1.5515,0.0,0.0,0.0,0.0,0.0,0.0,1.6343,1.599,0.0,0.0,0.0,0.0,0.0,0.0,1.5799,1.6243,0.0,1.7656,1.8667,1.9648,2.0518,2.1776,2.2852,2.3593,2.4043,2.4345,2.4418,2.4574,2.4594,2.4611,2.4696,2.4911,2.521,2.521,2.5532,2.6135,2.7378,2.8237,2.9012,0.0,0.0,0.0,0.0,0.0,0.0,0.0099,0.0509,0.0931,0.1016,0.1985,0.2563,0.2669,0.2565,0.2353,0.1817,0.0,0.0,0.0,0.1806,0.2318,0.353,0.4444,0.5526,0.6439,0.7528,0.8028,0.8038,0.7896,0.776,0.7631,0.819,0.8468,0.8562,0.9503,0.997,1.0063,1.0431,1.0731,1.0915,1.0915,1.1028,1.1194,1.1194,1.1194,1.1194,1.1194,1.0904,1.0413,1.0413,1.0117,0.9723,1.0216,1.0998,1.1604,1.1455,1.2248,1.3168,1.315,1.2794,1.2348,1.2076,1.1619,1.1089,1.0574,1.1079,1.1923,1.2681,1.3535,1.4398,1.5257,1.5431,1.5431,1.5431,1.5839,1.6154,1.6108,0.0,0.0,0.0,0.0,0.0,0.0,1.697,1.6978,0.0,0.0,0.0,0.0,0.0,1.4763,1.5631,1.6493,1.7688,1.9116,2.0052,2.1136,2.2478,2.2852,2.3519,2.449,2.4536,2.462,2.4848,2.4884,2.5008,2.5205,2.528,2.5442,2.5761,2.5761,2.6071,2.6667,2.7508,2.8108,2.8846,0.0,0.0,0.0,0.0,0.0,0.0105,0.0628,0.0842,0.1163,0.2106,0.2468,0.2718,0.2937,0.2751,0.255,0.2106,0.1902,0.2174,0.2975,0.3215,0.4022,0.6005,0.6062,0.6564,0.7637,0.7727,0.7923,0.8038,0.8004,0.7967,0.7936,0.842,0.8909,0.9307,0.9985,1.0471,1.0854,1.1047,1.108,1.1127,1.1127,1.1151,1.1194,1.1194,1.1194,1.1194,1.1194,1.0904,1.0413,1.0413,1.0314,1.0314,1.0609,1.159,1.2506,1.2204,1.2774,1.3391,1.3385,1.3194,1.2875,1.2417,1.1605,1.0992,1.1503,1.2054,1.2681,1.362,1.4482,1.5173,1.5347,1.5431,1.5431,1.5431,1.6079,1.6393,1.5787,1.6187,0.0,0.0,1.6266,1.6572,1.6901,1.7432,1.7456,0.0,0.0,0.0,0.0,1.6353,1.6422,1.7153,1.802,1.8565,1.8756,2.0348,2.1763,2.2852,2.3298,2.3677,2.4055,2.4726,2.5048,2.5156,2.5564,2.5657,2.5597,2.5761,2.5985,2.629,2.629,2.66,2.7198,2.8663,2.9282,2.9626,0.0,0.0,0.0104,0.0409,0.0418,0.0641,0.1184,0.1509,0.1946,0.2617,0.297,0.3208,0.332,0.2902,0.2581,0.2469,0.2061,0.2353,0.3481,0.3639,0.4676,0.6762,0.6749,0.7173,0.8241,0.816,0.816,0.8241,0.8544,0.861,0.8542,0.9338,0.9797,1.0019,1.0511,1.09,1.1194,1.1194,1.1194,1.1194,1.1194,1.1194,1.1194,1.1194,1.1194,1.1194,1.1194,1.09,1.0605,1.0605,1.0703,1.0801,1.1194,1.2068,1.292,1.3076,1.3328,1.3773,1.4092,1.4056,1.3835,1.3785,1.3111,1.2647,1.2998,1.3055,1.3293,1.4078,1.4578,1.4915,1.534,1.559,1.5756,1.5756,1.6056,1.6189,1.5976,1.6096,0.0,1.6319,1.667,1.7055,1.7398,1.78,1.7789,1.731,1.6962,0.0,1.7259,1.7022,1.7175,1.7844,1.9045,1.959,1.9511,2.1058,2.2371,2.3372,2.3605,2.4003,2.4618,2.5275,2.5582,2.5744,2.6036,2.614,2.6205,2.6283,2.6516,2.6818,2.6818,2.7209,2.7926,2.8858,2.9394,2.9858,0.0,0.0107,0.0321,0.0856,0.0964,0.1187,0.1862,0.2416,0.276,0.28,0.3253,0.3587,0.3475,0.3029,0.2806,0.2917,0.2355,0.2576,0.3804,0.4027,0.4998,0.7111,0.7217,0.76,0.8554,0.8526,0.8506,0.8482,0.9003,0.9246,0.9218,1.0128,1.0549,1.0496,1.109,1.1288,1.1288,1.1288,1.1288,1.1288,1.1255,1.1246,1.1241,1.1208,1.1194,1.1194,1.1194,1.0998,1.0806,1.0904,1.11,1.1389,1.1975,1.2651,1.3323,1.3823,1.3931,1.4118,1.4777,1.4791,1.483,1.5117,1.5023,1.4727,1.463,1.4224,1.3918,1.4583,1.4552,1.4621,1.5264,1.5763,1.5974,1.5957,1.5826,1.5863,1.6086,0.0,1.5973,1.6766,1.7021,1.7338,1.7971,1.804,1.804,1.804,1.7449,1.7364,1.8158,1.7726,1.7751,1.8327,1.9756,2.0722,2.1091,2.2185,2.3218,2.4198,2.4156,2.4661,2.5597,2.5972,2.6205,2.6335,2.6429,2.6555,2.6792,2.6792,2.6978,2.7219,2.7313,2.7777,2.8395,2.8542,2.9081,2.9845,0.0,0.0432,0.0762,0.0871,0.1323,0.1894,0.2458,0.2683,0.2909,0.3363,0.3587,0.3475,0.325,0.2917,0.3029,0.3695,0.347,0.3802,0.5027,0.6033,0.7143,0.8569,0.8569,0.8669,0.8869,0.8743,0.8611,0.8482,0.8587,0.8888,0.938,1.0012,1.0518,1.09,1.1518,1.1718,1.1718,1.1718,1.1718,1.1704,1.1534,1.1468,1.1449,1.1264,1.1194,1.1194,1.1194,1.0998,1.09,1.1292,1.1688,1.1975,1.2743,1.3329,1.3829,1.4112,1.4202,1.4202,1.4118,1.4364,1.4684,1.4558,1.474,1.5206,1.5677,1.5431,1.5225,1.5612,1.5612,1.5582,1.5398,1.5431,1.5412,1.5095,1.5513,1.5686,1.5332,0.0,1.6949,1.691,1.7475,1.7912,1.8031,1.804,1.804,1.804,1.7929,1.8223,1.9054,1.9025,1.9321,2.007,2.0537,2.1712,2.3732,2.3982,2.4574,2.544,2.5585,2.572,2.5919,2.6418,2.6639,2.6662,2.6955,2.7117,2.7105,2.7325,2.7452,2.7452,2.7708,2.7881,2.8111,2.8791,2.9381,3.0063,0.0439,0.0993,0.1441,0.1774,0.2121,0.2468,0.3141,0.3141,0.3253,0.3587,0.3474,0.325,0.3137,0.325,0.3585,0.3918,0.492,0.5699,0.6255,0.6816,0.7598,0.883,0.894,0.894,0.894,0.8869,0.8798,0.8726,0.937,0.9751,0.9973,1.083,1.1303,1.1403,1.1714,1.1817,1.1817,1.1817,1.1817,1.1808,1.1718,1.168,1.1666,1.1567,1.1529,1.1529,1.1529,1.1428,1.1313,1.1506,1.2058,1.2625,1.2889,1.3528,1.4112,1.4298,1.4484,1.4675,1.4586,1.4956,1.5419,1.5792,1.5973,1.6251,1.7014,1.6766,1.64,1.6448,1.6279,1.6111,1.5965,1.5974,1.6012,1.5868,1.6047,0.0,0.0,1.6563,1.7162,1.6918,1.7578,1.804,1.804,1.804,1.804,1.804,1.804,1.8279,1.8885,1.9542,2.0117,2.0738,2.1391,2.259,2.4437,2.4581,2.4925,2.5538,2.5968,2.6173,2.6364,2.6794,2.6944,2.6956,2.7128,2.7219,2.7371,2.7441,2.7615,2.7708,2.7881,2.8191,2.8566,2.8937,2.9537,3.0228,0.1121,0.157,0.2132,0.2581,0.2806,0.3029,0.3475,0.3587,0.3587,0.3475,0.3474,0.3474,0.3361,0.3917,0.4475,0.4698,0.6149,0.7265,0.7487,0.7487,0.7934,0.8826,0.894,0.894,0.894,0.9047,0.9158,0.9158,1.0147,1.0728,1.0692,1.1563,1.2014,1.1959,1.1959,1.1959,1.1959,1.1959,1.1959,1.1959,1.1912,1.1893,1.1888,1.1836,1.1817,1.1817,1.1817,1.1817,1.1794,1.1841,1.239,1.3057,1.3078,1.3699,1.4285,1.4285,1.4624,1.5038,1.507,1.552,1.6082,1.7016,1.7304,1.7505,1.7986,1.7704,1.7318,1.6963,1.666,1.6455,1.6382,1.6439,1.6574,1.6576,0.0,0.0,0.0,1.7055,1.7319,1.7243,1.7768,1.8074,1.816,1.8168,1.8203,1.8297,1.8297,1.8499,1.9033,1.987,2.0714,2.1527,2.2362,2.3477,2.4957,2.5104,2.5386,2.5982,2.6371,2.6622,2.6794,2.7036,2.7231,2.7231,2.7231,2.7301,2.7522,2.7603,2.7708,2.7962,2.8042,2.8419,2.9015,2.9094,2.9626,3.0393,0.157,0.2244,0.2693,0.2693,0.3141,0.3587,0.3587,0.3587,0.3475,0.3138,0.4033,0.4592,0.403,0.492,0.6035,0.6818,0.7041,0.7598,0.8716,0.8716,0.8826,0.8937,0.894,0.894,0.894,0.9485,0.9706,0.9706,1.0363,1.1013,1.1546,1.1546,1.1864,1.2394,1.2394,1.2394,1.2394,1.2394,1.2394,1.2375,1.2191,1.2115,1.2096,1.1893,1.1817,1.1817,1.1817,1.1817,1.1916,1.2628,1.2931,1.313,1.392,1.4117,1.4213,1.4213,1.4554,1.4998,1.5127,1.5622,1.6372,1.7109,1.7963,1.855,1.8179,1.8064,1.7772,1.7098,1.6835,1.6726,1.6426,1.6441,1.6488,1.6617,0.0,0.0,1.7648,1.7812,1.8021,1.8231,1.8327,1.8412,1.8511,1.8545,1.8699,1.9059,1.9093,1.9434,2.0196,2.0373,2.1379,2.3483,2.3481,2.4357,2.6325,2.6166,2.6645,2.7695,2.7533,2.7313,2.7174,2.7208,2.7231,2.7231,2.7231,2.7301,2.7522,2.7788,2.795,2.8179,2.8351,2.851,2.8578,2.9184,2.9793,3.0393,0.2356,0.2805,0.3253,0.3253,0.3506,0.3644,0.3644,0.4359,0.473,0.4501,0.5307,0.5879,0.5416,0.6334,0.7026,0.7372,0.8061,0.8752,0.9211,0.9211,0.913,0.8947,0.894,0.9047,0.9489,0.9706,1.0036,1.0363,1.0911,1.135,1.1568,1.1891,1.2223,1.2441,1.2441,1.2441,1.2441,1.2441,1.2441,1.2432,1.2356,1.2323,1.2318,1.2233,1.2205,1.2205,1.2205,1.2205,1.2288,1.279,1.3054,1.3237,1.381,1.4066,1.4372,1.5077,1.5902,1.6691,1.7169,1.6663,1.6177,1.7102,1.749,1.7692,1.7986,1.7994,1.7684,1.7265,1.715,1.7113,1.6982,1.6799,1.6855,1.7129,0.0,1.7504,1.8371,1.8602,1.882,1.9051,1.9068,1.9037,1.9024,1.8948,1.9016,1.9162,1.9333,1.9608,2.019,2.154,2.3198,2.5268,2.5178,2.5508,2.6117,2.6445,2.6792,2.7056,2.736,2.7371,2.7231,2.7231,2.7231,2.7231,2.729,2.7534,2.7788,2.803,2.8191,2.8419,2.851,2.851,2.851,2.8736,2.909,2.9598,0.2941,0.3406,0.3644,0.3644,0.3679,0.3821,0.4167,0.4902,0.5518,0.552,0.6455,0.7039,0.6684,0.7621,0.8209,0.8209,0.891,0.9381,0.9381,0.9613,0.9495,0.9018,0.9116,0.9425,0.9816,1.0143,1.0582,1.1021,1.1568,1.1896,1.1896,1.2219,1.2441,1.2441,1.2441,1.2441,1.2441,1.2441,1.2441,1.2441,1.2441,1.2441,1.2441,1.2441,1.2441,1.2436,1.2659,1.2659,1.2743,1.3342,1.3811,1.4301,1.4654,1.5009,1.5505,1.624,1.7116,1.8103,1.861,1.7955,1.7201,1.7769,1.7747,1.7631,1.8009,1.79,1.7628,1.7333,1.7333,1.7426,1.7426,1.7335,1.7462,1.7918,1.7905,1.8153,1.909,1.9341,1.9557,1.9683,1.9674,1.9547,1.9514,1.9436,1.9401,1.9513,1.9687,1.9974,2.0598,2.2601,2.4413,2.5717,2.6063,2.6229,2.6302,2.6798,2.7044,2.7126,2.736,2.7371,2.7231,2.7301,2.7301,2.7301,2.7626,2.786,2.8128,2.8362,2.8597,2.8772,2.8772,2.8772,2.8772,2.9003,2.9138,2.9532,0.3564,0.3728,0.377,0.377,0.377,0.4121,0.5055,0.5172,0.5522,0.6219,0.7277,0.7866,0.7627,0.8681,0.9384,0.9384,0.9384,0.9384,0.9384,0.9961,1.0004,0.9277,0.9716,0.9976,0.9824,1.1025,1.1573,1.1573,1.2114,1.2446,1.2446,1.2446,1.2446,1.2446,1.2441,1.2441,1.2441,1.2441,1.2441,1.2441,1.2441,1.2441,1.2441,1.2441,1.2441,1.2441,1.3098,1.3315,1.3423,1.4283,1.5328,1.6374,1.6592,1.7325,1.8005,1.7729,1.815,1.8679,1.8676,1.9282,1.9797,1.9463,1.917,1.8878,1.8264,1.7916,1.7628,1.7333,1.7527,1.7729,1.7721,1.79,1.8272,1.8735,1.8827,1.9066,1.9866,1.9991,2.0027,2.0171,1.9956,1.985,2.0061,1.9832,1.9898,2.0266,2.0292,2.0736,2.1695,2.3444,2.4584,2.484,2.5717,2.6561,2.7196,2.7185,2.7522,2.8191,2.7765,2.7383,2.7242,2.7464,2.7534,2.7557,2.8091,2.8396,2.8585,2.8931,2.9153,2.9444,2.9444,2.9444,2.9432,3.0074,3.0325,3.0408,0.3741,0.3756,0.4121,0.4936,0.5219,0.5495,0.656,0.7459,0.7993,0.7755,0.884,0.9447,0.9203,0.9447,0.969,0.969,0.969,0.9929,1.0405,1.1002,1.1165,1.088,1.0866,1.1118,1.1524,1.1864,1.2203,1.2655,1.2768,1.288,1.288,1.288,1.288,1.2876,1.2729,1.2668,1.2658,1.2502,1.2441,1.2441,1.2441,1.2441,1.2441,1.2441,1.2441,1.2441,1.3098,1.3315,1.3527,1.5441,1.6168,1.6474,1.7522,1.8575,1.9502,1.9412,1.991,2.0515,2.0522,2.0599,2.0464,1.9681,1.9241,1.9016,1.8819,1.8595,1.8334,1.8198,1.8255,1.8274,1.8039,1.8087,1.8272,1.8735,1.892,1.9422,2.0407,2.065,2.0793,2.1049,2.0846,2.0616,2.0561,2.0309,2.0172,2.0283,2.0473,2.1347,2.3096,2.3704,2.489,2.6683,2.7043,2.7729,2.8927,2.8159,2.7902,2.8304,2.8524,2.853,2.8253,2.8337,2.8326,2.8337,2.868,2.8835,2.892,2.918,2.9347,2.9444,2.9444,2.9444,2.9444,2.9603,2.9815,3.0185,0.4512,0.4654,0.5031,0.6334,0.6626,0.6907,0.7752,0.8539,0.9079,0.8964,0.9576,1.0061,0.9822,0.9822,0.9943,1.0183,1.0425,1.0789,1.1152,1.1756,1.2067,1.1963,1.2203,1.2186,1.2153,1.2378,1.2721,1.3065,1.3065,1.3065,1.3065,1.3065,1.3065,1.306,1.2942,1.2885,1.2876,1.2743,1.2687,1.2687,1.2687,1.2687,1.2687,1.2687,1.2687,1.3005,1.4004,1.4511,1.4928,1.6948,1.785,1.8359,1.9509,2.0349,2.0877,2.0775,2.1097,2.142,2.142,2.1224,2.0923,2.0192,1.969,1.9269,1.9041,1.8799,1.8724,1.8633,1.8789,1.892,1.8712,1.8659,1.8762,1.922,1.9369,1.9737,2.0645,2.0907,2.1096,2.1482,2.1284,2.1096,2.0826,2.0645,2.0555,2.0555,2.1087,2.2124,2.3887,2.441,2.5561,2.7707,2.7998,2.8572,2.9652,2.923,2.8981,2.8843,2.9086,2.9056,2.87,2.8786,2.8786,2.8798,2.9178,2.9358,2.9369,2.959,2.9683,2.9683,2.9683,2.9683,2.977,3.0107,3.0383,3.0719,0.5784,0.6092,0.6517,0.7858,0.8102,0.8224,0.8836,0.8958,0.9083,0.9697,0.9822,0.9822,0.9822,0.9822,1.0183,1.0789,1.1514,1.1877,1.1877,1.2479,1.284,1.284,1.3329,1.3272,1.2321,1.2892,1.3121,1.3121,1.3121,1.3121,1.3121,1.3121,1.3121,1.3121,1.3102,1.3098,1.3093,1.3074,1.3065,1.3065,1.3065,1.3065,1.3065,1.3069,1.3293,1.372,1.5376,1.6168,1.6901,1.8773,2.0147,2.1186,2.1978,2.2181,2.2063,2.1835,2.1725,2.1725,2.1725,2.1522,2.1224,2.1019,2.028,1.9575,1.8972,1.8889,1.8859,1.8829,1.923,1.9615,1.9583,1.9526,1.9597,2.0054,1.9961,2.0103,2.1013,2.1103,2.1365,2.1706,2.1626,2.1338,2.1096,2.1024,2.1059,2.1004,2.1894,2.2945,2.4158,2.5311,2.6585,2.8051,2.8532,2.9074,2.9794,3.0292,3.0355,2.982,2.96,2.9269,2.8838,2.9011,2.9109,2.9132,2.9595,2.9792,2.9827,3.0111,3.0216,3.0216,3.0216,3.0216,3.0306,3.1193,3.1536,3.1713,0.7332,0.7474,0.7856,0.9195,0.9198,0.9319,1.0176,1.0179,0.994,0.9822,0.9822,0.9822,0.9822,1.0304,1.0668,1.0789,1.1877,1.2479,1.2479,1.3084,1.3444,1.3444,1.3569,1.3646,1.3437,1.3551,1.3556,1.3556,1.3556,1.3556,1.3556,1.3556,1.3556,1.3547,1.3391,1.332,1.3306,1.314,1.3065,1.3065,1.3065,1.3065,1.3069,1.2836,1.3065,1.3631,1.4128,1.5328,1.7098,2.0097,2.1613,2.2437,2.2773,2.2783,2.2518,2.2426,2.2232,2.2021,2.2021,2.1827,2.1522,2.1019,2.0759,2.0491,2.0217,1.9982,1.9788,2.003,2.0074,2.0095,1.9818,1.9805,1.995,2.044,2.0844,2.126,2.1825,2.2303,2.238,2.2236,2.2026,2.1726,2.1329,2.1207,2.122,2.1328,2.2267,2.3407,2.4503,2.5599,2.6904,2.8489,2.8678,2.9226,3.0419,3.0536,3.0602,3.0589,3.0607,3.0442,3.0151,2.9973,2.9973,2.9984,3.0099,3.0145,3.0145,3.017,3.0216,3.0216,3.0216,3.0216,3.0216,3.0397,3.1015,3.1801,0.8708,0.883,0.9198,1.0543,1.0539,1.0418,1.0789,1.0547,1.0183,0.9822,1.0061,1.0304,1.0304,1.091,1.1394,1.1631,1.2599,1.3204,1.3204,1.3569,1.3688,1.3688,1.3688,1.3688,1.3688,1.3688,1.3688,1.3688,1.3688,1.3688,1.3688,1.3688,1.3688,1.3684,1.358,1.3532,1.3523,1.3414,1.3362,1.3362,1.3362,1.3245,1.3124,1.3007,1.3245,1.3931,1.4604,1.65,1.9064,2.1387,2.2502,2.302,2.2925,2.2972,2.293,2.2736,2.2574,2.242,2.2348,2.21,2.1751,2.1366,2.1019,2.0617,2.0403,2.03,2.0349,2.0382,2.0545,2.0583,2.04,2.0424,2.0704,2.1201,2.1533,2.1986,2.247,2.2762,2.2774,2.2648,2.2537,2.2278,2.1978,2.2113,2.2312,2.2434,2.3467,2.4565,2.5696,2.6449,2.7489,2.8821,2.9116,2.9693,3.0566,3.0668,3.0885,3.1228,3.1175,3.0949,3.0578,3.0487,3.0306,3.0216,3.0216,3.0216,3.0216,3.0216,3.0216,3.0216,3.0216,3.0216,3.0216,3.0746,3.1713,3.3104,0.9559,0.9926,1.0539,1.1651,1.1522,1.1152,1.0789,1.0547,1.0304,1.0065,1.0547,1.091,1.091,1.1514,1.2238,1.284,1.3324,1.3688,1.3688,1.3688,1.3688,1.3688,1.3688,1.3688,1.3688,1.3688,1.3688,1.3688,1.3688,1.3688,1.3688,1.3688,1.3688,1.3688,1.3688,1.3688,1.3688,1.3688,1.3688,1.3688,1.3688,1.3444,1.3204,1.3204,1.3569,1.4386,1.5555,1.8175,2.1106,2.2465,2.3021,2.3112,2.2947,2.3038,2.3128,2.2856,2.2839,2.2773,2.2783,2.2386,2.1998,2.1895,2.1306,2.0781,2.0392,2.0449,2.0514,2.0522,2.0719,2.0925,2.0925,2.1075,2.1371,2.1875,2.2099,2.2467,2.3058,2.3162,2.3134,2.2966,2.2902,2.2695,2.2473,2.2911,2.3222,2.3504,2.4629,2.5808,2.6723,2.7299,2.8045,2.9024,2.9508,2.9966,3.0487,3.0668,3.1116,3.1661,3.1484,3.1128,3.0679,3.0578,3.0487,3.0216,3.0216,3.0216,3.0216,3.0216,3.0216,3.0216,3.0216,3.0216,3.0295,3.1448,3.2834,3.4217,0.9805,1.0789,1.153,1.1776,1.1281,1.091,1.0789,1.0789,1.0668,1.0668,1.1273,1.1635,1.1635,1.2238,1.284,1.3569,1.3688,1.3688,1.3688,1.3688,1.3688,1.3688,1.3688,1.3688,1.3688,1.3688,1.3688,1.3688,1.3688,1.3688,1.3688,1.3688,1.3688,1.3688,1.3688,1.3688,1.3688,1.3688,1.3688,1.3688,1.3324,1.3204,1.3204,1.3204,1.3569,1.4401,1.5886,1.8404,2.1383,2.2871,2.3215,2.3047,2.3165,2.3067,2.2901,2.2823,2.2839,2.2831,2.2782,2.2765,2.265,2.2388,2.2274,2.1972,2.1344,2.0836,2.0522,2.0822,2.0917,2.0925,2.0925,2.0877,2.1253,2.2248,2.2407,2.288,2.3889,2.3987,2.3859,2.351,2.2876,2.2509,2.2355,2.2381,2.2521,2.2763,2.4519,2.57,2.5856,2.7589,2.868,2.885,2.8943,2.9393,3.0216,3.0306,3.0758,3.1661,3.1661,3.1407,3.0972,3.0679,3.0487,3.0216,3.0216,3.0216,3.0216,3.0216,3.0216,3.0216,3.0216,3.0216,3.0385,3.2215,3.3066,3.3661,1.0914,1.1405,1.1805,1.1902,1.167,1.1575,1.1665,1.1681,1.1681,1.1681,1.23,1.267,1.267,1.3168,1.3665,1.4033,1.4038,1.4038,1.4038,1.3934,1.3868,1.3868,1.3755,1.3688,1.3688,1.3688,1.3688,1.3688,1.3688,1.3688,1.3688,1.3688,1.3688,1.3688,1.3688,1.3688,1.3688,1.3688,1.3569,1.3449,1.3204,1.3204,1.332,1.4018,1.4733,1.5811,1.826,2.0005,2.1402,2.278,2.3247,2.3215,2.3158,2.3221,2.3197,2.2933,2.2892,2.2954,2.286,2.2695,2.2546,2.2468,2.2304,2.2148,2.1767,2.151,2.1288,2.1004,2.0925,2.0925,2.0925,2.1121,2.1623,2.2325,2.2728,2.3229,2.4044,2.4152,2.4088,2.3904,2.334,2.3001,2.2874,2.3162,2.3619,2.4285,2.5741,2.6809,2.7389,2.8269,2.8757,2.8757,2.8757,2.9209,3.0216,3.0216,3.0668,3.1661,3.1661,3.1407,3.0984,3.0883,3.0589,3.0216,3.0216,3.0216,3.0216,3.0216,3.0216,3.0216,3.0216,3.0216,3.0306,3.1169,3.2202,3.3224]},{"header":{"parameterUnit":"m.s-1","parameterCategory":1,"la1":30.6,"la2":28.766,"lo1":-90.7593,"lo2":-88.6598,"dy":0.0162,"dx":0.0183,"nx":116,"ny":114,"refTime":"2024-04-17T12:00:00:Z","depth":0,"parameterNumber":3,"parameterNumberName":"V-component_of_WINDS"},"data":[0.0,0.0,0.0,0.0,0.0,0.0,0.0,0.0,0.0,0.0,0.0,0.0,0.0,0.0,0.0,0.0,0.0,0.0,0.0,0.0,0.0,0.0,0.0,0.0,0.0,0.0,0.0,0.0,0.0,0.0,0.0,0.0,0.0,0.0,0.0,0.0,0.0,0.0,0.0,0.0,0.0,0.0,0.0,0.0,0.0,0.0,0.0,0.0,0.0,0.0,0.0,0.0,0.0,0.0,0.0,0.0,0.0,0.0,0.0,0.0,0.0,0.0,0.0,0.0,0.0,0.0,0.0,0.0,0.0,0.0,0.0,0.0,0.0,0.0,0.0,0.0,0.0,0.0,0.0,0.0,0.0,0.0,0.0,0.0,0.0,0.0,0.0,0.0,0.0,0.0,0.0,0.0,0.0,0.0,0.0,0.0,0.0,0.0,0.0,0.0,0.0,0.0,0.0,0.0,0.0,0.0,0.0,0.0,0.0,0.0,0.0,0.0,0.0,0.0,0.0,0.0,0.0,0.0,0.0,0.0,0.0,0.0,0.0,0.0,0.0,0.0,0.0,0.0,0.0,0.0,0.0,0.0,0.0,0.0,0.0,0.0,0.0,0.0,0.0,0.0,0.0,0.0,0.0,0.0,0.0,0.0,0.0,0.0,0.0,0.0,0.0,0.0,0.0,0.0,0.0,0.0,0.0,0.0,0.0,0.0,0.0,0.0,0.0,0.0,0.0,0.0,0.0,0.0,0.0,0.0,0.0,0.0,0.0,0.0,0.0,0.0,0.0,0.0,0.0,0.0,0.0,0.0,0.0,0.0,0.0,0.0,0.0,0.0,0.0,0.0,0.0,0.0,0.0,0.0,0.0,0.0,0.0,0.0,0.0,0.0,0.0,0.0,0.0,0.0,0.0,0.0,0.0,0.0,0.0,0.0,0.0,0.0,0.0,0.0,0.0,0.0,0.0,0.0,0.0,0.0,0.0,0.0,0.0,0.0,0.0,0.0,0.0,0.0,0.0,0.0,0.0,0.0,0.0,0.0,0.0,0.0,0.0,0.0,0.0,0.0,0.0,0.0,0.0,0.0,0.0,0.0,0.0,0.0,0.0,0.0,0.0,0.0,0.0,0.0,0.0,0.0,0.0,0.0,0.0,0.0,0.0,0.0,0.0,0.0,0.0,0.0,0.0,0.0,0.0,0.0,0.0,0.0,0.0,0.0,0.0,0.0,0.0,0.0,0.0,0.0,0.0,0.0,0.0,0.0,0.0,0.0,0.0,0.0,0.0,0.0,0.0,0.0,0.0,0.0,0.0,0.0,0.0,0.0,0.0,0.0,0.0,0.0,0.0,0.0,0.0,0.0,0.0,0.0,0.0,0.0,0.0,0.0,0.0,0.0,0.0,0.0,0.0,0.0,0.0,0.0,0.0,0.0,0.0,0.0,0.0,0.0,0.0,0.0,0.0,0.0,0.0,0.0,0.0,0.0,0.0,0.0,0.0,0.0,0.0,0.0,0.0,0.0,0.0,0.0,0.0,0.0,0.0,0.0,0.0,0.0,0.0,0.0,0.0,0.0,0.0,0.0,0.0,0.0,0.0,0.0,0.0,0.0,0.0,0.0,0.0,0.0,0.0,0.0,0.0,0.0,0.0,0.0,0.0,0.0,0.0,0.0,0.0,0.0,0.0,0.0,0.0,0.0,0.0,0.0,0.0,0.0,0.0,0.0,0.0,0.0,0.0,0.0,0.0,0.0,0.0,0.0,0.0,0.0,0.0,0.0,0.0,0.0,0.0,0.0,0.0,0.0,0.0,0.0,0.0,0.0,0.0,0.0,0.0,0.0,0.0,0.0,0.0,0.0,0.0,0.0,0.0,0.0,0.0,0.0,0.0,0.0,0.0,0.0,0.0,0.0,0.0,0.0,0.0,0.0,0.0,0.0,0.0,0.0,0.0,0.0,0.0,0.0,0.0,0.0,0.0,0.0,0.0,0.0,0.0,0.0,0.0,0.0,0.0,0.0,0.0,0.0,0.0,0.0,0.0,0.0,0.0,0.0,0.0,0.0,0.0,0.0,0.0,0.0,0.0,0.0,0.0,0.0,0.0,0.0,0.0,0.0,0.0,0.0,0.0,0.0,0.0,0.0,0.0,0.0,0.0,0.0,0.0,0.0,0.0,0.0,0.0,0.0,0.0,0.0,0.0,0.0,0.0,0.0,0.0,0.0,0.0,0.0,0.0,0.0,0.0,0.0,0.0,0.0,0.0,0.0,0.0,0.0,0.0,0.0,0.0,0.0,0.0,0.0,0.0,0.0,0.0,0.0,0.0,0.0,0.0,0.0,0.0,0.0,0.0,0.0,0.0,0.0,0.0,0.0,0.0,0.0,0.0,0.0,0.0,0.0,0.0,0.0,0.0,0.0,0.0,0.0,0.0,0.0,0.0,0.0,0.0,0.0,0.0,0.0,0.0,0.0,0.0,0.0,0.0,0.0,0.0,0.0,0.0,0.0,0.0,0.0,0.0,0.0,0.0,0.0,0.0,0.0,0.0,0.0,0.0,0.0,0.0,0.0,0.0,0.0,0.0,0.0,0.0,0.0,0.0,0.0,0.0,0.0,0.0,0.0,0.0,0.0,0.0,0.0,0.0,0.0,0.0,0.0,0.0,0.0,0.0,0.0,0.0,0.0,0.0,0.0,0.0,0.0,0.0,0.0,0.0,0.0,0.0,0.0,0.0,0.0,0.0,0.0,0.0,0.0,0.0,0.0,0.0,0.0,0.0,0.0,0.0,0.0,0.0,0.0,0.0,0.0,0.0,0.0,0.0,0.0,0.0,0.0,0.0,0.0,0.0,0.0,0.0,0.0,0.0,0.0,0.0,0.0,0.0,0.0,0.0,0.0,0.0,0.0,0.0,0.0,0.0,0.0,0.0,0.0,0.0,0.0,0.0,0.0,0.0,0.0,0.0,0.0,0.0,0.0,0.0,0.0,0.0,0.0,0.0,0.0,0.0,0.0,0.0,0.0,0.0,0.0,0.0,0.0,0.0,0.0,0.0,0.0,0.0,0.0,0.0,0.0,0.0,0.0,0.0,0.0,0.0,0.0,0.0,0.0,0.0,0.0,0.0,0.0,0.0,0.0,0.0,0.0,0.0,0.0,0.0,0.0,0.0,0.0,0.0,0.0,0.0,0.0,0.0,0.0,0.0,0.0,0.0,0.0,0.0,0.0,0.0,0.0,0.0,0.0,0.0,0.0,0.0,0.0,0.0,0.0,0.0,0.0,0.0,0.0,0.0,0.0,0.0,0.0,0.0,0.0,0.0,0.0,0.0,0.0,0.0,0.0,0.0,0.0,0.0,0.0,0.0,0.0,0.0,0.0,0.0,0.0,0.0,0.0,0.0,0.0,0.0,0.0,0.0,0.0,0.0,0.0,0.0,0.0,0.0,0.0,0.0,0.0,0.0,0.0,0.0,0.0,0.0,0.0,0.0,0.0,0.0,0.0,0.0,0.0,0.0,0.0,0.0,0.0,0.0,0.0,0.0,0.0,0.0,0.0,0.0,0.0,0.0,0.0,0.0,0.0,0.0,0.0,0.0,0.0,0.0,0.0,0.0,0.0,0.0,0.0,0.0,0.0,0.0,0.0,0.0,0.0,0.0,0.0,0.0,0.0,0.0,0.0,0.0,0.0,0.0,0.0,0.0,0.0,0.0,0.0,0.0,0.0,0.0,0.0,0.0,0.0,0.0,0.0,0.0,0.0,0.0,0.0,0.0,0.0,0.0,0.0,0.0,0.0,0.0,0.0,0.0,0.0,0.0,0.0,0.0,0.0,0.0,0.0,0.0,0.0,0.0,0.0,0.0,0.0,0.0,0.0,0.0,0.0,0.0,0.0,0.0,0.0,0.0,0.0,0.0,0.0,0.0,0.0,0.0,0.0,0.0,0.0,0.0,0.0,0.0,0.0,0.0,0.0,0.0,0.0,0.0,0.0,0.0,0.0,0.0,0.0,0.0,0.0,0.0,0.0,0.0,0.0,0.0,0.0,0.0,0.0,0.0,0.0,0.0,0.0,0.0,0.0,0.0,0.0,0.0,0.0,0.0,0.0,0.0,0.0,0.0,0.0,0.0,0.0,0.0,0.0,0.0,0.0,0.0,0.0,0.0,0.0,0.0,0.0,0.0,0.0,0.0,0.0,0.0,0.0,0.0,0.0,0.0,0.0,0.0,0.0,0.0,0.0,0.0,0.0,0.0,0.0,0.0,0.0,0.0,0.0,0.0,0.0,0.0,0.0,0.0,0.0,0.0,0.0,0.0,0.0,0.0,0.0,0.0,0.0,0.0,0.0,0.0,0.0,0.0,0.0,0.0,0.0,0.0,0.0,0.0,0.0,0.0,0.0,0.0,0.0,0.0,0.0,0.0,0.0,0.0,0.0,0.0,0.0,0.0,0.0,0.0,0.0,0.0,0.0,0.0,0.0,0.0,0.0,0.0,0.0,0.0,0.0,0.0,0.0,0.0,0.0,0.0,0.0,0.0,0.0,0.0,0.0,0.0,0.0,0.0,0.0,0.0,0.0,0.0,0.0,0.0,0.0,0.0,0.0,0.0,0.0,0.0,0.0,0.0,0.0,0.0,0.0,0.0,0.0,0.0,0.0,0.0,0.0,0.0,0.0,0.0,0.0,0.0,0.0,0.0,0.0,0.0,0.0,0.0,0.0,0.0,0.0,0.0,0.0,0.0,0.0,0.0,0.0,0.0,0.0,0.0,0.0,0.0,0.0,0.0,0.0,0.0,0.0,0.0,0.0,0.0,0.0,0.0,0.0,0.0,0.0,0.0,0.0,0.0,0.0,0.0,0.0,0.0,0.0,0.0,0.0,0.0,0.0,0.0,0.0,0.0,0.0,0.0,0.0,0.0,0.0,0.0,0.0,0.0,0.0,0.0,0.0,0.0,0.0,0.0,0.0,0.0,0.0,0.0,0.0,0.0,0.0,0.0,0.0,0.0,0.0,0.0,0.0,0.0,0.0,0.0,0.0,0.0,0.0,0.0,0.0,0.0,0.0,0.0,0.0,0.0,0.0,0.0,0.0,0.0,0.0,0.0,0.0,0.0,0.0,0.0,0.0,0.0,0.0,0.0,0.0,0.0,0.0,0.0,0.0,0.0,0.0,0.0,0.0,0.0,0.0,0.0,0.0,0.0,0.0,0.0,0.0,0.0,0.0,0.0,0.0,0.0,0.0,0.0,0.0,0.0,0.0,0.0,0.0,0.0,0.0,0.0,0.0,0.0,0.0,0.0,0.0,0.0,0.0,0.0,0.0,0.0,0.0,0.0,0.0,0.0,0.0,0.0,0.0,0.0,0.0,0.0,0.0,0.0,0.0,0.0,0.0,0.0,0.0,0.0,0.0,0.0,0.0,0.0,0.0,0.0,0.0,0.0,0.0,0.0,0.0,0.0,0.0,0.0,0.0,0.0,0.0,0.0,0.0,0.0,0.0,0.0,0.0,0.0,0.0,0.0,0.0,0.0,0.0,0.0,0.0,0.0,0.0,0.0,0.0,0.0,0.0,0.0,0.0,0.0,0.0,0.0,0.0,0.0,0.0,0.0,0.0,0.0,0.0,0.0,0.0,0.0,0.0,0.0,0.0,0.0,0.0,0.0,0.0,0.0,0.0,0.0,0.0,0.0,0.0,0.0,0.0,0.0,0.0,0.0,0.0,0.0,0.0,0.0,0.0,0.0,0.0,0.0,0.0,0.0,0.0,0.0,0.0,0.0,0.0,0.0,0.0,0.0,0.0,0.0,0.0,0.0,0.0,0.0,0.0,0.0,0.0,0.0,0.0,0.0,0.0,0.0,0.0,0.0,0.0,0.0,0.0,0.0,0.0,0.0,0.0,0.0,0.0,0.0,0.0,0.0,0.0,0.0,0.0,0.0,0.0,0.0,0.0,0.0,0.0,0.0,0.0,0.0,0.0,0.0,0.0,0.0,0.0,0.0,0.0,0.0,0.0,0.0,0.0,0.0,0.0,0.0,0.0,0.0,0.0,0.0,0.0,0.0,0.0,0.0,0.0,0.0,0.0,0.0,0.0,0.0,0.0,0.0,0.0,0.0,0.0,0.0,0.0,0.7932,0.0,0.0,0.0,0.0,0.0,0.0,0.0,0.0,0.0,0.0,0.0,0.0,0.0,0.0,0.0,0.0,0.0,0.0,0.0,0.0,0.0,0.0,0.0,0.0,2.0305,2.0365,2.0365,2.0111,1.9881,1.9744,0.0,0.0,0.0,0.0,0.0,0.0,0.0,1.988,2.0108,2.1119,2.2108,2.3033,2.3003,2.2123,2.0593,0.0,0.0,0.0,0.0,0.0,0.0,0.0,0.0,0.0,0.0,0.0,0.0,0.0,0.0,0.0,0.0,0.0,0.0,0.0,0.0,0.0,0.0,0.0,0.0,0.0,0.0,0.0,0.0,0.0,0.0,0.0,0.0,0.0,0.0,0.0,0.0,0.0,0.0,0.0,0.0,0.0,0.0,0.0,0.0,0.0,0.0,0.0,0.0,0.0,0.0,0.0,0.0,0.0,0.0,0.0,0.0,0.0,0.0,0.0,0.0,0.0,0.0,0.0,0.0,0.0,0.0,0.0,0.0,0.0,0.0,0.0,0.7087,0.0,0.0,0.0,0.0,0.0,0.0,0.0,0.0,0.0,0.0,0.0,0.0,0.0,0.0,0.0,0.0,0.0,0.0,0.0,0.0,0.0,1.9211,2.0283,1.992,1.9591,1.9591,1.9087,1.8715,1.8584,1.8506,0.0,0.0,0.0,1.9406,1.9459,2.0263,2.1024,2.1755,2.3168,2.4659,2.6191,2.6262,2.4794,2.2119,2.2926,0.0,0.0,0.0,0.0,0.0,0.0,0.0,0.0,0.0,0.0,0.0,0.0,0.0,0.0,0.0,0.0,0.0,0.0,0.0,0.0,0.0,0.0,0.0,0.0,0.0,0.0,0.0,0.0,0.0,0.0,0.0,0.0,0.0,0.0,0.0,0.0,0.0,0.0,0.0,0.0,0.0,0.0,0.0,0.0,0.0,0.0,0.0,0.0,0.0,0.0,0.0,0.0,0.0,0.0,0.0,0.0,0.0,0.0,0.0,0.0,0.0,0.0,0.0,-0.1912,-0.0982,0.0933,0.2627,0.4953,0.768,0.8743,0.8478,0.7131,0.0,0.0,0.0,0.0,0.0,0.0,0.0,0.0,0.0,0.0,0.0,0.0,0.0,0.0,0.0,0.0,0.0,0.0,0.0,0.0,1.8803,1.8806,1.879,1.8757,1.8757,1.8729,1.8622,1.8445,1.8465,1.8682,1.9147,1.9263,1.9579,2.0172,2.095,2.1987,2.3232,2.5188,2.6184,2.6189,2.626,2.6045,2.5562,2.5916,2.5045,2.3328,0.0,0.0,0.0,0.0,0.0,0.0,0.0,0.0,0.0,0.0,0.0,0.0,0.0,0.0,0.0,0.0,0.0,0.0,0.0,0.0,0.0,0.0,0.0,0.0,0.0,0.0,0.0,0.0,0.0,0.0,0.0,0.0,0.0,0.0,0.0,0.0,0.0,0.0,0.0,0.0,0.0,1.0534,0.8534,0.0,0.0,0.0,0.0,0.0,0.0,0.0,0.0,0.0,0.0,0.0,0.0,0.0,0.0612,-0.1898,-0.1858,-0.2065,-0.2555,-0.1013,0.0935,0.3324,0.515,0.7419,0.9823,1.0003,0.0,0.7069,0.747,0.0,0.0,0.0,0.0,0.0,0.0,0.0,0.0,0.0,0.0,0.0,0.0,0.0,0.0,0.0,0.0,0.0,0.0,0.0,0.0,0.0,1.9333,1.9882,1.9882,2.0785,2.0866,1.9773,1.9724,1.9373,1.8545,1.8944,1.948,2.006,2.0952,2.2654,2.5059,2.6786,2.7869,2.8345,2.8369,2.8408,2.8464,2.8566,2.7367,2.5285,2.5285,0.0,0.0,0.0,0.0,0.0,0.0,0.0,0.0,0.0,0.0,0.0,0.0,0.0,0.0,0.0,0.0,0.0,0.0,0.0,0.0,0.0,0.0,0.0,0.0,0.0,0.0,0.0,0.0,0.0,0.0,0.0,0.0,0.0,0.0,0.0,0.0,0.0,0.0,0.0,0.9961,0.8033,0.6163,0.6034,0.5626,0.0,0.0,0.0,0.0,0.0,0.0,0.0,0.0,0.0,0.0184,0.1236,0.1237,-0.0057,-0.0153,-0.0814,-0.1971,-0.1395,0.0294,0.2901,0.3846,0.638,1.0056,1.0138,0.9807,0.9138,0.9371,0.7844,0.531,0.0,0.0,0.0,0.0,0.1505,0.0278,0.0,0.0,0.0,0.0,0.0,0.0,0.0,0.0,0.0,0.0,0.0,0.0,1.9102,2.049,2.1444,2.1444,2.2617,2.2705,2.1103,2.0828,2.0065,1.8625,1.8939,1.9501,2.0281,2.1922,2.4103,2.6828,2.8158,2.9165,2.9842,2.9694,2.9633,2.9722,2.9722,2.8649,2.6824,2.6824,2.5746,2.4071,0.0,0.0,0.0,0.0,0.0,0.0,0.0,0.0,0.0,0.0,0.0,0.0,0.0,0.0,0.0,0.0,0.0,0.0,0.0,0.0,0.0,0.0,0.0,0.0,0.0,0.0,0.0,0.0,0.0,0.0,0.0,0.0,0.0,0.0,0.0,0.0,0.0,0.818,0.6859,0.5176,0.4988,0.4633,0.0,0.0,0.0,0.0,0.0,0.0,0.0453,0.1255,0.1361,0.0534,0.1295,0.1536,0.1129,0.0904,0.0067,-0.1398,-0.1289,0.0048,0.2461,0.3162,0.5688,0.9614,0.9992,1.0293,1.0553,1.055,0.9434,0.7507,0.6432,0.4975,0.351,0.3455,0.2667,0.1618,0.0,0.0,0.0,0.0,0.0,0.0,0.0,0.0,0.0,0.0,0.0,2.1041,2.064,2.2043,2.2996,2.2996,2.3188,2.2906,2.1908,2.1183,2.066,2.0396,1.9614,1.9853,2.131,2.473,2.7095,2.8202,2.9337,2.9745,2.9335,2.8811,2.8496,2.8384,2.8384,2.806,2.7437,2.7437,2.6741,2.5399,2.3282,0.0,0.0,0.0,0.0,0.0,0.0,0.0,0.0,0.0,0.0,0.0,0.0,0.0,0.0,0.0,0.0,0.0,0.0,0.0,0.0,0.0,0.0,0.0,0.0,0.0,0.0,0.0,0.0,0.0,0.0,0.0,0.0,0.0,0.0,0.0,0.0,0.0,0.0,0.7428,0.5619,0.0,0.0,0.0,0.0,0.1645,0.1965,0.2037,0.1818,0.1968,0.1511,0.0266,0.0345,0.0062,-0.0655,-0.0935,-0.1183,-0.1386,0.0045,0.162,0.3219,0.523,0.7116,0.8775,0.9614,0.9916,0.9992,1.0777,1.0375,0.9201,0.8143,0.6685,0.4955,0.4082,0.2832,0.1762,0.0,0.0,0.0,0.0,0.0,1.5334,1.689,1.709,1.7486,1.8766,2.0279,2.1126,2.0807,2.3067,2.4497,2.4264,2.5497,2.5559,2.3888,2.278,2.1625,2.0228,1.9467,2.0027,2.2039,2.5915,2.7701,2.7352,2.8968,2.9393,2.8764,2.8559,2.8415,2.8304,2.8496,2.8706,2.8919,2.8795,2.7997,2.6771,2.6521,2.512,0.0,0.0,0.0,0.0,0.0,0.0,0.0,0.0,0.0,0.0,0.0,0.0,0.0,0.0,0.0,0.0,0.0,0.0,0.0,0.0,0.0,0.0,0.0,0.0,0.0,0.0,0.0,0.0,0.0,0.0,0.0,0.0,0.0,0.0,0.0,0.0,0.0,0.6259,0.476,0.0,0.2636,0.1905,0.1356,0.1038,0.1513,0.1771,0.1695,0.1989,0.1935,0.1446,0.1536,0.1405,0.1,0.1078,0.058,-0.0416,0.004,0.1325,0.3285,0.3742,0.5698,0.8699,0.9241,0.9695,1.0143,1.0519,1.0137,0.914,0.8414,0.7219,0.5776,0.4951,0.411,0.3289,0.0,0.0,0.0,0.0,0.0,1.5336,1.6948,1.7312,1.7921,1.9506,2.1225,2.23,2.2288,2.4594,2.6061,2.5872,2.7081,2.7075,2.5069,2.3728,2.2123,2.0187,1.9908,2.1138,2.3932,2.6672,2.7899,2.7595,2.8542,2.8711,2.817,2.8138,2.8028,2.7917,2.8435,2.8934,2.939,2.948,2.9163,2.8645,2.8377,2.632,2.3427,0.0,0.0,0.0,0.0,0.0,0.0,0.0,0.0,0.0,0.0,0.0,0.0,0.0,0.0,0.0,0.0,0.0,0.0,0.0,0.0,0.0,0.0,0.0,0.0,0.0,0.0,0.0,0.0,0.0,0.0,0.0,0.0,0.0,0.0,0.0,0.6458,0.6114,0.4625,0.3403,0.2868,0.2221,0.164,0.1176,0.1507,0.1728,0.1719,0.2071,0.2243,0.218,0.2344,0.2377,0.2247,0.2571,0.1991,0.0515,0.0648,0.1835,0.3931,0.3618,0.5492,0.9015,0.9697,1.033,1.0961,1.1163,1.1193,1.0965,0.9323,0.816,0.7307,0.637,0.5606,0.4886,0.0,0.0,0.0,0.0,0.0,1.5347,1.6959,1.7694,1.8776,2.0727,2.3021,2.4635,2.5063,2.658,2.763,2.7672,2.7813,2.7133,2.5314,2.3807,2.2208,2.0463,2.1109,2.3211,2.6814,2.7154,2.789,2.9028,2.8243,2.7717,2.7458,2.7396,2.7256,2.7147,2.8155,2.8639,2.8779,2.9435,3.0276,3.1004,2.8528,2.6736,2.5426,0.0,0.0,0.0,0.0,0.0,0.0,0.0,0.0,0.0,0.0,0.0,0.0,0.0,0.0,0.0,0.0,0.0,0.0,0.0,0.0,0.0,0.0,0.0,0.0,0.0,0.0,0.0,0.0,0.0,0.0,0.0,0.0,0.0,0.8832,0.8357,0.7855,0.723,0.5287,0.407,0.4178,0.3179,0.2374,0.2042,0.2045,0.2026,0.1918,0.2341,0.2493,0.2341,0.2574,0.2739,0.2739,0.3216,0.2776,0.1429,0.2085,0.343,0.5241,0.5346,0.6912,0.9665,1.0882,1.1846,1.252,1.2649,1.3613,1.4749,1.105,0.9696,0.9601,0.836,0.7307,0.623,0.0,0.0,0.0,1.4952,1.4859,1.5357,1.7015,1.7366,1.7779,1.8663,2.1698,2.3531,2.2877,2.5621,2.7465,2.7276,2.7509,2.6894,2.5028,2.3682,2.2643,2.1988,2.295,2.4695,2.7219,2.8614,2.8889,2.7993,2.8498,2.8109,2.6942,2.7906,2.7859,2.7147,2.8295,2.9042,2.948,2.9919,3.0559,3.114,3.0281,2.882,2.7181,0.0,0.0,0.0,0.0,0.0,0.0,0.0,0.0,0.0,0.0,0.0,0.0,0.0,0.0,0.0,0.0,0.0,0.0,0.0,0.0,0.0,0.0,0.0,0.0,0.0,0.0,0.0,0.0,0.0,0.0,0.0,0.0,1.3709,0.9818,0.844,0.7398,0.6252,0.5119,0.4234,0.3686,0.3214,0.2751,0.2267,0.3102,0.3331,0.2605,0.3249,0.3383,0.2758,0.3238,0.3518,0.3579,0.4462,0.4632,0.4056,0.4578,0.5487,0.673,0.6997,0.8804,1.1761,1.2052,1.3157,1.4624,1.4449,1.4577,1.4577,1.1481,1.0384,1.0271,0.8426,0.7102,0.601,0.0,0.0,0.0,1.5008,1.4911,1.5395,1.7039,1.7471,1.7927,1.8749,2.1788,2.359,2.2845,2.5593,2.7465,2.7324,2.7496,2.6713,2.4569,2.333,2.3364,2.4918,2.5145,2.6229,2.8301,2.893,2.8779,2.7894,2.8326,2.7921,2.6842,2.8135,2.8178,2.7281,2.8828,2.9572,2.975,3.0351,3.0699,3.0838,3.0975,2.9724,2.7891,2.8725,2.786,2.6387,2.7614,2.856,2.9145,2.858,0.0,0.0,0.0,0.0,0.0,0.0,0.0,0.0,0.0,0.0,0.0,0.0,0.0,0.0,0.0,0.0,0.0,0.0,0.0,0.0,0.0,0.0,0.0,0.0,1.6561,1.5872,1.3102,1.0113,0.79,0.71,0.6023,0.5086,0.4395,0.421,0.3806,0.2951,0.3925,0.4278,0.3684,0.4244,0.4554,0.4423,0.4488,0.4724,0.5195,0.5657,0.6024,0.6278,0.6418,0.7142,0.8479,0.9384,1.0699,0.0,1.3854,1.5002,1.5735,1.5834,1.6218,0.0,0.0,0.0,0.0,0.0,0.7999,0.7035,0.0,0.0,0.0,1.5026,1.4952,1.5413,1.6939,1.7696,1.8581,1.9883,2.2543,2.4237,2.4042,2.6092,2.7496,2.7557,2.736,2.6208,2.3895,2.273,2.3955,2.8098,2.7234,2.7624,2.9632,2.8685,2.8204,2.8304,2.8062,2.7601,2.702,2.8345,2.8382,2.7506,2.9492,3.0162,2.9858,3.0651,3.0757,3.0435,3.0975,2.9968,2.8279,2.8924,2.8186,2.6909,2.8134,2.8738,2.8945,2.9083,0.0,0.0,0.0,0.0,0.0,0.0,0.0,0.0,0.0,0.0,0.0,0.0,0.0,0.0,0.0,0.0,0.0,0.0,0.0,0.0,0.0,0.0,0.0,0.0,1.7554,1.7145,1.7373,1.3052,0.9674,0.9209,0.7708,0.6468,0.5886,0.5739,0.5196,0.4,0.4671,0.5067,0.4877,0.0,0.0,0.0,0.0,0.6341,0.7252,0.7042,0.7364,0.8212,0.8056,0.8838,1.0552,1.2359,1.302,1.2946,1.6331,1.7426,1.687,1.7359,1.832,1.9266,1.5624,1.3909,1.3158,1.0797,0.9427,0.8524,0.0,0.0,1.5159,1.5101,1.4969,1.5211,1.6195,1.6985,1.7905,1.9086,2.1824,2.3762,2.406,2.6021,2.7376,2.7438,2.5692,2.4085,2.2853,2.1378,2.2807,2.7828,2.749,2.7902,2.95,2.939,2.8919,2.822,2.8902,2.8475,2.7051,2.8888,2.8994,2.7662,2.955,3.0359,3.0359,3.0814,3.1015,3.1015,3.1151,3.0937,3.0565,3.0891,3.093,3.0855,3.1454,3.1799,3.187,3.0792,2.9972,2.953,3.0498,2.8937,0.0,0.0,0.0,0.0,0.0,0.0,0.0,0.0,0.0,0.0,0.0,0.0,0.0,0.0,0.0,0.0,0.0,0.0,0.0,2.1007,2.0794,2.0172,1.8913,1.6965,1.4606,1.1711,0.964,0.8108,0.7297,0.6629,0.5942,0.5195,0.6098,0.628,0.5407,0.6552,0.7045,0.658,0.7827,0.8594,0.8851,0.9682,1.0145,1.0261,0.0,0.0,1.3543,1.5615,1.7505,1.9191,2.0081,2.0893,2.1509,2.0637,1.996,1.9231,1.5703,1.3194,1.1483,1.0213,0.9211,0.8384,0.0,1.5313,1.5233,1.5202,1.5095,1.5255,1.6035,1.6797,1.743,1.7809,2.048,2.2478,2.2865,2.3856,2.4815,2.5623,2.3815,2.2887,2.3557,2.3476,2.5111,2.8934,2.8721,2.8779,2.9383,2.9087,2.8826,2.8542,2.8742,2.8383,2.7525,2.8414,2.8411,2.766,2.909,2.9968,3.0485,3.0733,3.0952,3.1112,3.1269,3.1308,3.1252,3.1368,3.1654,3.202,3.2301,3.2573,3.2709,3.2109,3.1708,3.1542,3.2127,3.121,2.9552,0.0,0.0,0.0,0.0,0.0,0.0,0.0,0.0,0.0,0.0,0.0,0.0,0.0,0.0,2.219,2.1852,0.0,2.0898,2.2232,2.1301,2.0554,2.1035,1.9771,1.7588,1.4335,1.2114,1.0686,1.0246,0.9329,0.8451,0.7759,0.8542,0.8607,0.7564,0.8678,0.9123,0.8678,0.9563,1.0304,1.0838,1.0955,1.1562,1.2703,1.3325,1.4296,1.5699,1.8718,1.9987,1.9862,2.1791,2.2162,2.1333,2.0765,1.9991,1.8889,1.6442,1.4808,1.3685,1.2579,1.1287,0.9967,0.0,0.0,1.5313,1.5299,1.519,1.5311,1.5874,1.6753,1.7284,1.7219,1.9575,2.1458,2.1912,2.1962,2.2243,2.2981,2.1988,2.2163,2.4083,2.5639,2.7606,3.0034,2.9931,2.9653,2.9355,2.8826,2.8701,2.8904,2.8611,2.8395,2.8176,2.7987,2.7881,2.7942,2.8719,2.9604,3.0443,3.0692,3.0895,3.1072,3.1402,3.1445,3.1372,3.1411,3.1728,3.2144,3.2266,3.2488,3.2784,3.2948,3.3165,3.3393,3.3393,3.3549,3.2892,2.8713,2.8827,0.0,0.0,0.0,0.0,0.0,0.0,0.0,0.0,0.0,2.582,2.4581,2.4024,2.3509,2.2693,2.1245,2.0884,2.2999,2.1574,2.0876,2.282,2.1945,2.015,1.7594,1.4837,1.3194,1.334,1.2019,1.0881,1.0222,1.072,1.0693,0.9893,1.0773,1.1219,1.1054,1.1371,1.1917,1.2725,1.2345,1.3123,1.5048,1.5491,1.6462,1.7995,2.1555,2.2098,2.0311,2.3271,2.2877,2.0216,2.0349,1.9755,1.8689,1.7497,1.6938,1.658,1.5054,1.3412,1.186,0.0,0.0,0.0,1.532,1.5233,1.5185,1.5152,1.642,1.7772,1.8867,2.0505,2.1912,2.2835,2.2884,2.199,1.9839,2.0779,2.1746,2.236,2.4571,2.7114,2.9808,3.0071,2.9968,2.9569,2.9544,2.935,2.8904,2.948,2.9491,2.889,2.863,2.8656,2.8925,2.9173,2.9774,3.0692,3.1032,3.1151,3.119,3.1385,3.1538,3.1617,3.1893,3.2073,3.2214,3.2249,3.2555,3.2884,3.2916,3.2948,3.3011,3.3304,3.3422,3.2983,3.0595,0.0,2.8997,2.4264,2.1629,2.0875,2.3388,2.5111,2.6056,0.0,0.0,2.872,2.5121,2.5504,2.62,2.5324,2.4378,2.384,2.4122,2.3913,2.3582,2.3151,2.3591,2.3533,2.2423,1.7577,1.4597,1.5316,1.289,1.1244,1.1145,1.1147,1.1151,1.1097,1.1889,1.231,1.2296,1.3229,1.3799,1.3908,1.547,1.6379,1.6657,1.8231,1.9807,2.1435,2.3892,2.5275,2.5701,2.5931,2.4414,2.1704,2.1469,2.0542,1.9165,1.8471,1.7977,1.7358,1.4984,1.3469,1.2654,0.0,0.0,0.0,1.5368,1.5294,1.5217,1.5088,1.5986,1.6997,1.7847,1.8441,1.9444,2.1105,2.0684,1.9425,1.7363,1.8904,2.0399,2.1401,2.4028,2.6657,2.9089,2.9329,2.9538,2.9859,2.9777,2.9556,2.9332,2.9302,2.9216,2.899,2.8354,2.8414,2.9062,2.9178,2.976,3.0692,3.0855,3.1032,3.123,3.1445,3.1576,3.1576,3.2001,3.2335,3.236,3.0953,3.0619,0.0,3.085,3.0892,3.1242,3.2763,3.2405,3.122,3.0199,2.8974,0.0,2.5663,2.5634,0.0,0.0,2.9525,3.0953,3.0508,3.1047,3.1072,2.911,2.8525,2.8226,2.7826,2.5411,2.3975,0.0,2.4125,2.3067,2.3704,2.4112,2.4218,2.3835,1.9887,1.7086,1.6888,1.5562,1.4352,1.3409,1.3732,1.3778,1.3259,1.407,1.4058,1.3014,1.4421,1.495,1.446,1.5692,1.6774,1.7688,1.9411,2.1253,2.3217,2.5604,2.7142,2.7841,2.6837,2.5629,2.4214,2.2992,2.1898,2.0895,1.9555,1.8744,1.8071,1.6307,1.4985,1.3964,0.0,0.0,0.0,1.5405,1.5363,1.5274,1.5145,1.5761,1.6459,1.7037,1.7194,1.7825,1.929,1.8426,1.7314,1.6243,1.7782,1.9546,2.1271,2.3806,2.6185,2.837,2.8831,2.9297,2.988,2.9923,2.9848,2.9777,2.9404,2.9318,2.939,2.8481,2.8529,2.939,2.9227,2.9756,3.0692,3.0733,3.0975,3.1351,3.16,3.1765,3.1875,3.2352,3.2228,3.1586,2.9763,2.9294,2.9394,2.8443,2.8793,2.9773,3.062,3.0333,2.9544,2.896,2.7209,2.5667,2.6475,0.0,0.0,3.0659,3.2392,3.3753,3.3957,3.334,3.2555,3.196,3.0523,2.9357,2.9272,2.6533,2.4826,2.6498,2.4755,2.36,2.4818,2.4807,2.4564,2.434,2.1639,1.9153,1.7549,1.7351,1.6933,1.5993,1.6469,1.6413,1.5489,1.5847,1.5565,1.4509,1.5508,1.5979,1.5836,1.6599,1.7767,1.9354,2.0821,2.2541,2.4534,2.7093,2.8605,2.919,2.779,2.6723,2.5895,2.397,2.2685,2.1809,2.0191,1.9099,1.8478,1.7486,1.6446,1.5475,0.0,0.0,0.0,0.0,1.5401,1.5342,1.5218,1.5869,1.6632,1.731,1.8016,1.8348,1.8093,1.7044,1.6552,1.7018,1.7995,1.9682,2.2194,2.3898,2.5712,2.7722,2.8963,2.9513,2.9393,3.0104,3.0401,3.0189,3.0368,3.0426,3.0342,2.941,2.9459,3.0326,2.9461,2.9708,3.0692,3.0831,3.1196,3.1677,3.1896,3.2248,3.2716,3.3166,3.1701,2.9401,2.9166,2.9456,2.9384,2.6057,2.7065,2.9194,2.6254,2.6941,2.8536,2.7098,2.4899,2.3451,2.5853,0.0,2.4486,2.9626,3.1053,3.1716,3.3585,3.3467,3.278,3.2055,3.0502,2.9276,2.9216,2.8415,2.7518,2.6818,2.6676,2.6675,2.6715,2.6051,2.5255,2.4404,2.2652,2.0245,0.0,1.7205,1.7928,1.8718,1.8795,1.8468,1.7658,1.6708,1.6592,1.7447,1.6631,1.6982,1.8654,1.9341,2.0522,2.2173,2.2952,2.4134,2.5745,2.8334,2.9819,3.0315,2.9289,2.781,2.5975,2.3885,2.2368,2.1295,1.9876,1.8988,1.8452,1.791,1.7432,1.7088,0.0,0.0,0.0,0.0,0.0,1.5363,1.5279,1.5424,1.5816,1.658,1.7238,0.0,0.0,0.0,0.0,0.0,1.7684,1.8348,1.9458,2.1473,2.3562,2.5652,2.7555,2.9022,3.0019,3.0234,3.0432,3.0733,3.0733,3.0651,3.0485,3.0137,3.0153,3.0468,3.0162,3.0278,3.0733,3.1145,3.1435,3.1694,3.2197,3.2502,3.2567,3.1242,3.0387,2.9471,0.0,2.4919,2.4771,2.3685,2.3728,2.4274,2.4797,2.4164,2.2921,2.1401,2.2501,2.4203,2.4227,0.0,2.8392,3.0394,3.2143,3.356,3.441,3.411,3.3429,3.2653,3.0719,2.9004,2.8435,2.6234,2.5016,2.6515,2.4441,2.3796,2.7181,2.452,2.3354,2.645,2.3809,0.0,0.0,0.0,0.0,1.8222,1.9743,2.0571,2.0294,1.9966,1.9403,1.8561,1.879,1.892,1.8925,1.9011,2.0203,2.2462,2.4617,2.606,2.6907,2.9262,3.0402,3.0545,3.0383,2.964,2.8359,2.625,2.457,2.3179,2.1603,2.0409,1.9507,1.8967,1.8566,1.8094,0.0,0.0,0.0,0.0,0.0,0.0,0.0,0.0,0.0,0.0,0.0,0.0,0.0,0.0,0.0,0.0,0.0,1.729,1.8208,1.9356,2.0935,2.3165,2.5103,2.6475,2.7194,2.8733,2.9547,2.9621,3.0572,3.0918,3.0699,3.0634,3.0593,3.0617,3.0675,3.0821,3.1083,3.1493,3.1825,3.1987,3.1568,3.1528,3.151,2.9295,2.8317,0.0,2.4229,2.2465,2.1622,2.0826,2.117,2.1951,2.2019,2.0898,1.974,2.0541,2.2191,2.4046,2.5449,2.8038,3.0646,3.1848,3.3334,3.4561,3.487,3.442,3.391,3.3763,3.1738,2.974,2.8931,2.6226,2.4683,2.6408,2.4227,2.3785,2.7945,2.5472,2.4347,2.7328,2.5006,2.4004,0.0,0.0,0.0,2.0219,2.1379,2.199,2.1689,2.1075,2.0653,2.048,2.0701,2.0873,2.0923,2.0444,2.1311,2.3535,2.5842,2.7378,2.8281,2.9913,3.0369,2.9903,3.0433,2.9988,2.8686,2.6959,2.5608,2.453,2.271,2.1365,2.0355,1.9617,1.9364,1.9137,0.0,0.0,0.0,0.0,0.0,0.0,0.0,0.0,0.0,0.0,0.0,0.0,0.0,0.0,0.0,0.0,0.0,0.0,1.8342,1.77,1.8218,2.0451,2.1895,2.2272,2.1548,2.5769,2.7631,2.6897,2.9602,3.0849,3.0734,3.0486,3.0406,3.0453,3.0589,3.0921,3.1334,3.1567,3.1948,3.2242,3.0034,2.9431,2.9667,2.749,2.5669,2.4192,2.3524,2.2133,2.0252,1.784,1.9638,2.219,1.8485,1.7825,1.9353,2.4019,2.3803,2.3309,2.8927,3.0454,3.1117,3.3738,3.4404,3.4498,3.4889,3.4459,3.4182,3.4981,3.3146,3.1092,0.0,0.0,2.6121,2.635,2.5757,2.6199,2.88,2.8466,2.7671,0.0,0.0,0.0,0.0,0.0,0.0,2.4559,0.0,2.3008,2.2168,2.0504,2.0702,2.314,2.2383,2.2752,2.4452,2.3595,2.3898,2.5376,2.6657,2.8107,2.9664,3.0322,2.9895,2.8759,2.9718,2.9022,2.7173,2.6102,2.5534,2.5166,2.3034,2.1741,2.106,1.9998,1.997,2.0062,0.0,0.0,0.0,0.0,0.0,0.0,0.0,0.0,0.0,0.0,0.0,0.0,0.0,0.0,0.0,0.0,0.0,0.0,1.6525,1.723,1.791,1.852,2.0415,2.1595,2.1948,2.301,2.3711,2.405,2.5201,2.5725,2.5606,2.5863,2.6034,2.6101,2.6,2.6084,2.6394,2.6809,2.7104,2.7268,2.7079,2.7573,2.818,2.5715,2.506,2.514,2.2533,2.1297,2.0695,1.9309,2.0359,2.228,2.2558,2.2812,2.2933,2.2398,2.4627,2.7259,2.7084,2.9884,3.3088,3.4144,3.4363,3.4431,3.4772,3.4774,3.4135,3.2031,3.0017,2.7637,0.0,0.0,0.0,2.4261,2.2562,0.0,2.688,2.572,0.0,2.6695,0.0,2.7219,2.8687,2.9182,0.0,0.0,2.7,2.6773,2.65,2.5464,2.4885,2.4954,2.4118,2.4209,2.5352,2.6295,2.659,2.6213,2.7593,2.8433,2.8839,3.0225,3.0518,2.998,3.063,3.0295,2.9149,2.7148,2.5959,2.5242,2.3491,2.2641,2.2223,2.1667,2.1377,2.1045,0.0,0.0,0.0,0.0,0.0,0.0,0.0,0.0,0.0,0.0,0.0,0.0,0.0,0.0,0.0,0.0,0.0,0.0,0.0,1.7096,1.7311,1.6931,1.8413,1.9074,1.8681,2.0279,2.1114,2.1119,2.2698,2.3458,2.3405,2.3488,2.3624,2.3699,2.3612,2.371,2.3947,2.4382,2.4584,0.0,0.0,2.4624,2.4907,2.2867,2.2759,2.3427,2.1213,2.0226,2.0189,0.0,0.0,2.2182,2.6019,2.6332,2.5512,2.6717,0.0,2.9434,2.972,3.1904,3.4171,3.4486,3.4572,3.4333,3.3468,3.338,3.2669,2.9756,2.8026,0.0,2.3197,0.0,0.0,0.0,0.0,0.0,2.6308,2.5675,2.5347,0.0,2.6971,0.0,3.0542,3.0778,3.0331,0.0,2.8201,2.7576,2.7531,2.6709,2.6208,2.6175,2.5697,2.5715,2.6268,2.7547,2.8069,2.7815,2.8403,2.9074,2.9794,3.0581,3.0483,2.9708,0.0,2.9505,2.7933,2.6391,2.5454,2.4783,2.372,2.315,2.2848,2.2433,2.2133,2.1766,0.0,0.0,0.0,0.0,0.0,0.0,0.0,0.0,0.0,0.0,1.5832,0.0,0.0,0.0,0.0,0.0,0.0,0.0,0.0,0.0,1.6792,1.6033,1.6675,1.6251,1.4557,1.7819,1.9075,1.8145,2.0692,2.1949,2.1961,2.1752,2.1721,2.1846,2.1888,2.2065,2.2326,2.2565,2.2689,2.2664,2.1569,2.1198,2.1184,0.0,2.0159,2.0979,2.0176,1.9331,1.9355,0.0,2.3926,2.2499,2.8818,2.897,2.7742,3.2374,3.194,3.0527,3.3317,3.4263,3.4507,3.4756,3.4868,3.4369,3.2286,3.1694,3.0836,2.8248,0.0,2.5509,2.3936,2.1814,2.1305,2.4444,0.0,2.3737,2.5556,2.6498,2.6875,2.6522,2.6784,2.801,3.0558,3.0492,3.0419,3.0691,2.8598,2.7316,2.7295,2.6461,2.6318,2.7033,2.7163,2.7262,2.7323,2.8203,2.9037,2.9835,2.9381,3.0002,3.1483,3.1301,3.045,2.9146,2.9438,0.0,2.605,2.523,2.4687,2.4389,2.3812,2.3378,2.3138,2.2859,2.2651,2.235,0.0,0.0,0.0,0.0,0.0,0.0,0.0,0.0,0.0,0.0,1.5303,1.5651,0.0,0.0,0.0,0.0,0.0,0.0,0.0,0.0,0.0,1.7037,1.7165,1.6735,1.5648,1.6233,1.6114,1.5236,1.6276,1.6729,1.665,1.7027,1.7308,1.7471,1.7272,1.7364,1.7661,1.771,1.7778,1.7824,1.7648,1.8489,1.9841,1.9596,0.0,0.0,2.1161,1.9873,1.9386,2.4505,2.5263,2.4951,3.0189,3.1523,3.0809,2.9228,3.0129,3.1393,3.012,3.1654,3.3808,3.4661,3.4887,3.4829,3.4568,3.2917,0.0,0.0,2.5937,2.3807,2.2163,2.1532,2.168,2.2944,0.0,0.0,0.0,0.0,2.6209,0.0,0.0,0.0,0.0,0.0,0.0,0.0,0.0,2.9991,2.9934,2.9061,2.8346,2.7916,2.8583,2.9001,2.907,2.9938,3.0774,3.1554,3.1316,3.1437,3.1902,3.2241,3.1809,3.075,3.0548,0.0,2.9132,2.6666,2.5592,2.5288,2.4086,2.3509,2.3403,2.3747,2.362,2.3336,0.0,0.0,0.0,0.0,0.0,0.0,0.0,1.5672,1.5666,1.4785,1.4596,1.4829,1.5638,1.638,1.7312,0.0,0.0,0.0,0.0,0.0,0.0,0.0,0.0,0.0,1.6645,1.656,0.0,0.0,0.0,1.5982,1.5515,0.0,0.0,1.537,1.5663,1.5612,1.5364,1.6276,1.6149,1.5488,1.703,1.7601,0.0,0.0,0.0,0.0,0.0,1.9604,1.9225,2.3004,2.3391,2.3487,3.0319,3.2502,3.192,2.8618,2.9989,3.1943,2.9059,3.0677,3.3314,3.3839,3.428,3.3921,3.1373,0.0,0.0,0.0,2.187,2.0584,2.0254,1.9824,0.0,2.3644,0.0,0.0,0.0,0.0,0.0,0.0,0.0,0.0,0.0,0.0,0.0,0.0,0.0,2.9781,3.0605,2.9834,2.9175,2.8801,2.922,2.9473,2.95,3.0788,3.1621,3.1996,3.2219,3.2535,3.2947,3.3128,3.2807,3.203,3.076,0.0,2.7739,2.5675,2.439,2.3585,2.3543,2.3509,2.3509,2.376,2.3628,2.3318,0.0,0.0,0.0,0.0,0.0,0.0,1.4842,1.5766,1.6016,1.4328,1.4189,1.4368,1.4563,1.5452,1.6595,0.0,0.0,0.0,0.0,0.0,0.0,0.0,0.0,0.0,0.0,0.0,0.0,0.0,0.0,0.0,0.0,0.0,0.0,0.0,0.0,0.0,1.4946,1.6323,1.6109,0.0,0.0,0.0,0.0,0.0,0.0,0.0,0.0,0.0,1.9284,2.1624,2.1634,2.1895,2.8983,3.0956,3.0283,2.8382,2.962,3.1186,2.9245,3.0702,3.2819,3.3045,3.3575,3.2847,2.828,2.6873,0.0,0.0,1.8589,1.8065,1.9149,0.0,1.9953,0.0,2.4297,2.4411,0.0,0.0,0.0,0.0,0.0,0.0,0.0,0.0,0.0,0.0,0.0,0.0,3.0639,3.0086,2.9801,2.9952,2.983,2.9941,3.032,3.1418,3.2157,3.2512,3.2919,3.3455,3.4035,3.3923,3.3439,3.2626,3.0851,0.0,0.0,2.4744,2.3431,2.215,2.3056,2.3509,2.3569,2.3628,2.345,2.3198,0.0,0.0,0.0,0.0,0.0,0.0,1.6396,1.6549,1.6074,1.4338,1.4724,1.4593,1.3082,1.4297,1.5539,0.0,0.0,0.0,0.0,0.0,0.0,0.0,0.0,0.0,0.0,0.0,0.0,0.0,0.0,0.0,0.0,0.0,0.0,0.0,0.0,0.0,0.0,1.7187,0.0,0.0,0.0,0.0,0.0,0.0,0.0,0.0,0.0,0.0,0.0,0.0,0.0,2.288,2.5329,2.487,2.4022,2.6949,0.0,0.0,3.0578,3.1681,3.2171,3.2923,3.316,3.2484,2.9694,0.0,2.481,2.1949,1.9508,1.8339,1.9819,2.0772,2.1713,0.0,0.0,2.2551,0.0,0.0,0.0,0.0,0.0,0.0,0.0,0.0,0.0,0.0,0.0,0.0,3.0776,3.0571,3.0892,3.1724,3.0994,3.1348,3.2935,3.226,3.2632,3.41,3.3949,3.4204,3.4781,3.4537,3.3647,3.2196,3.149,0.0,0.0,2.5861,2.4541,2.2871,2.3385,2.3509,2.3463,2.3772,2.376,2.3569,0.0,0.0,0.0,0.0,0.0,0.0,1.5982,1.7187,1.7226,1.4464,1.4801,1.5043,1.4334,1.4366,1.4928,1.6141,0.0,0.0,0.0,0.0,0.0,0.0,0.0,0.0,0.0,0.0,0.0,1.8659,0.0,0.0,0.0,0.0,0.0,0.0,0.0,0.0,0.0,0.0,0.0,0.0,0.0,0.0,0.0,0.0,0.0,0.0,0.0,0.0,0.0,0.0,0.0,0.0,2.2146,2.1179,0.0,0.0,2.4923,2.7272,2.6075,2.8365,3.1207,3.1625,3.2057,3.1301,2.7212,0.0,2.3606,1.9454,1.7427,1.6735,1.7874,1.8422,1.9452,2.1755,2.1924,0.0,2.6191,0.0,0.0,0.0,0.0,0.0,0.0,0.0,0.0,0.0,0.0,0.0,3.2219,3.1747,3.1627,3.2049,3.1679,3.2073,3.3295,3.3328,3.3634,3.4191,3.4868,3.5237,3.5329,3.5411,3.4467,3.2686,3.1659,0.0,0.0,2.5118,2.3681,2.1304,2.2769,2.333,2.3403,2.339,2.345,2.345,0.0,0.0,0.0,0.0,0.0,1.7128,1.5877,1.7262,1.7504,1.4823,1.4986,1.5229,1.4973,1.4589,1.4786,1.5876,1.579,0.0,0.0,0.0,0.0,0.0,0.0,0.0,0.0,0.0,1.9707,1.9686,1.956,0.0,0.0,0.0,0.0,0.0,0.0,0.0,0.0,0.0,0.0,0.0,0.0,0.0,0.0,0.0,0.0,0.0,0.0,0.0,0.0,0.0,0.0,0.0,2.0441,1.959,1.8891,0.0,2.3495,2.6582,2.4304,2.7109,3.0678,3.0774,3.0798,2.9596,0.0,0.0,2.1835,1.7196,1.5788,1.5552,1.6196,1.6525,1.7719,2.0838,2.1593,2.3205,2.7253,2.7819,0.0,0.0,0.0,0.0,0.0,0.0,0.0,0.0,0.0,0.0,0.0,3.3078,3.2778,3.2832,3.2528,3.2892,3.4004,3.4109,3.4244,3.4366,3.5343,3.5376,3.4615,3.5482,3.4436,3.187,0.0,0.0,0.0,2.475,2.3292,2.062,2.2468,2.3271,2.3271,2.321,2.3271,2.3343,0.0,0.0,0.0,0.0,0.0,0.0,1.6595,1.6675,1.6403,1.5507,1.539,1.5079,1.4209,1.4755,1.5182,1.5214,1.5026,0.0,0.0,0.0,0.0,0.0,0.0,0.0,0.0,0.0,1.9699,1.9686,1.956,1.9499,1.9499,1.9682,0.0,0.0,0.0,0.0,0.0,0.0,0.0,0.0,0.0,0.0,0.0,0.0,0.0,0.0,0.0,0.0,0.0,0.0,0.0,0.0,0.0,2.0385,2.0799,2.2463,2.3665,2.4981,2.7454,2.945,3.0793,3.0794,2.9499,2.7346,0.0,0.0,1.9487,1.6116,1.5351,1.5313,1.5405,1.6115,1.7543,2.0106,2.1234,2.2991,2.6429,2.6915,0.0,0.0,0.0,0.0,0.0,0.0,0.0,0.0,0.0,0.0,0.0,3.4502,3.4502,3.4566,3.3669,3.3999,3.5664,3.4501,3.426,3.4997,3.5207,3.4186,3.2211,3.4412,3.3094,0.0,0.0,0.0,0.0,2.5313,2.4068,2.1581,2.29,2.3271,2.3138,2.333,2.3403,2.3403,0.0,0.0,0.0,0.0,0.0,0.0,1.7481,1.8435,1.8455,1.6475,1.6653,1.6435,1.5018,1.5052,1.5176,1.5146,1.5026,0.0,0.0,0.0,0.0,0.0,0.0,0.0,0.0,0.0,1.8724,1.8656,1.9258,1.9564,1.9569,1.9769,1.9907,2.001,0.0,0.0,0.0,0.0,0.0,0.0,0.0,0.0,0.0,0.0,0.0,0.0,0.0,0.0,0.0,0.0,0.0,0.0,0.0,0.0,0.0,2.1074,2.2315,2.3556,2.3764,2.5522,2.7306,2.7316,2.6898,2.5583,2.2109,2.0912,1.9563,1.6106,1.5387,1.5373,1.5398,1.5634,1.6832,1.9924,2.12,2.3396,0.0,0.0,0.0,0.0,0.0,0.0,0.0,0.0,0.0,0.0,0.0,0.0,0.0,3.5477,3.5212,3.4687,3.4281,3.454,3.5485,3.5039,3.4994,3.5418,3.561,3.4645,3.2727,3.4791,0.0,0.0,0.0,0.0,0.0,2.5632,2.4504,2.215,2.3122,2.3569,2.3641,2.3569,2.345,2.339,0.0,0.0,0.0,0.0,0.0,0.0,1.7354,1.8256,1.8468,1.7219,1.717,1.6841,1.5801,1.5403,1.517,1.5101,1.5066,0.0,0.0,0.0,0.0,0.0,0.0,0.0,1.6589,1.7386,1.7792,1.7757,1.8286,1.8748,1.9117,1.9287,1.9623,2.0059,2.0089,0.0,0.0,0.0,0.0,0.0,0.0,0.0,2.0288,0.0,0.0,0.0,0.0,0.0,0.0,0.0,0.0,0.0,0.0,0.0,0.0,0.0,2.1243,2.2133,2.2254,2.3932,2.5673,2.5683,2.5212,2.4057,2.156,2.0253,1.8872,1.6405,1.6396,1.6542,1.5582,1.621,1.7456,1.92,2.1333,0.0,0.0,0.0,0.0,0.0,0.0,0.0,0.0,0.0,0.0,0.0,0.0,0.0,0.0,3.5906,3.5663,3.5171,3.5295,3.5359,3.5321,3.5698,3.5738,3.5485,3.593,3.4957,3.2773,3.4622,0.0,0.0,0.0,0.0,0.0,2.6036,2.4765,2.2812,2.3229,2.3569,2.376,2.3628,2.3675,2.3734,0.0,0.0,0.0,0.0,0.0,0.0,0.0,1.6723,1.7016,1.7699,1.7025,1.6491,1.6491,1.5711,1.5157,1.5108,1.5094,0.0,0.0,0.0,0.0,0.0,0.0,0.0,1.5785,1.6534,1.6916,1.6909,1.6853,1.7311,1.8229,1.8432,1.902,1.9933,1.9973,2.0031,0.0,0.0,0.0,0.0,0.0,2.015,0.0,0.0,0.0,0.0,0.0,0.0,0.0,0.0,0.0,0.0,0.0,0.0,0.0,0.0,0.0,0.0,0.0,2.4043,2.5254,2.5309,2.4101,2.2655,2.1737,1.9644,0.0,1.7029,1.8119,1.8486,1.6113,1.7812,1.9258,1.8319,2.1711,0.0,0.0,0.0,0.0,0.0,0.0,0.0,0.0,0.0,0.0,0.0,0.0,0.0,0.0,3.5937,3.5909,3.59,3.647,3.6303,3.5268,3.6347,3.6291,3.5188,3.6109,3.5009,3.2262,3.3957,3.3043,0.0,0.0,0.0,0.0,2.6494,2.5092,2.3734,2.3365,2.3437,2.3675,2.3675,2.3956,2.4234,0.0,0.0,0.0,0.0,0.0,0.0,0.0,0.0,0.0,0.0,1.6924,1.6349,1.6349,1.5567,1.5042,0.0,0.0,0.0,0.0,0.0,0.0,0.0,0.0,0.0,1.4763,1.5582,1.5979,1.5945,1.6719,1.723,1.7482,1.8329,1.8868,1.9088,1.9097,1.9106,0.0,0.0,0.0,0.0,1.8535,1.8355,0.0,0.0,0.0,0.0,1.9348,1.9702,0.0,0.0,0.0,0.0,0.0,0.0,0.0,0.0,2.0494,2.0584,2.101,0.0,2.1633,2.1633,2.1338,2.0648,0.0,1.8375,1.8105,0.0,0.0,1.9082,1.8439,2.0441,2.1699,2.0085,0.0,0.0,0.0,0.0,0.0,0.0,0.0,0.0,0.0,0.0,0.0,0.0,0.0,0.0,0.0,3.5932,3.5861,3.5752,3.6435,3.6469,3.5829,3.5845,3.5194,3.386,3.5309,3.4005,3.0468,3.3758,3.3131,0.0,0.0,0.0,2.8145,2.753,2.6505,2.5328,2.4908,2.4567,2.4292,2.4292,2.4234,2.4176,0.0,0.0,0.0,0.0,0.0,0.0,0.0,0.0,0.0,0.0,1.7455,1.6875,1.6859,1.5752,1.499,0.0,0.0,0.0,0.0,0.0,0.0,0.0,0.0,1.4578,1.4453,1.4916,1.5307,1.564,1.6239,1.6946,1.7809,1.8391,1.8693,1.8715,1.8736,1.8573,1.8276,0.0,0.0,0.0,1.7926,0.0,0.0,0.0,0.0,0.0,1.8983,1.9296,0.0,2.0309,2.0848,2.1076,0.0,0.0,0.0,0.0,2.0504,2.0495,2.0463,2.0441,2.0639,2.1446,2.0747,1.9814,1.9709,1.8501,1.7865,0.0,0.0,1.9233,1.9202,2.0679,2.1728,0.0,0.0,0.0,0.0,0.0,0.0,0.0,0.0,0.0,0.0,0.0,0.0,0.0,0.0,0.0,0.0,3.5929,3.5821,3.5667,3.6016,3.5979,3.5495,3.6058,3.5143,3.29,3.503,3.4241,3.102,3.3617,3.3701,0.0,0.0,0.0,2.9399,2.741,2.6381,2.6094,2.5686,2.5315,2.4894,2.4894,2.4751,2.4536,0.0,0.0,0.0,0.0,0.0,0.0,0.0,0.0,0.0,0.0,0.0,0.0,0.0,0.0,0.0,0.0,0.0,0.0,0.0,0.0,0.0,0.0,1.4974,1.4825,1.4694,1.4799,1.5203,1.5869,1.5759,1.6522,1.8078,1.8233,1.8422,1.8602,1.8798,1.8393,1.7636,1.8421,0.0,0.0,1.7566,0.0,0.0,0.0,0.0,0.0,0.0,0.0,0.0,2.0266,2.1132,2.1667,2.0937,0.0,0.0,0.0,0.0,0.0,2.0425,2.0361,2.076,2.2628,2.1114,1.9614,2.1227,1.9058,1.7485,0.0,0.0,1.9797,1.9776,2.1049,0.0,0.0,0.0,0.0,0.0,0.0,0.0,0.0,0.0,0.0,0.0,0.0,0.0,0.0,0.0,0.0,0.0,3.5904,3.5788,3.5563,3.5508,3.5273,3.4851,3.6354,3.5485,3.2353,3.5016,3.4912,3.2411,3.3627,3.4326,3.4292,0.0,0.0,3.0494,2.7174,2.613,2.662,2.6342,2.5997,2.5659,2.555,2.5356,2.5104,0.0,0.0,0.0,0.0,0.0,0.0,0.0,0.0,0.0,0.0,0.0,0.0,0.0,0.0,0.0,0.0,0.0,0.0,0.0,0.0,0.0,1.6658,1.6045,1.5681,1.5605,1.6169,1.6547,1.6715,1.6022,1.5882,1.6223,1.7094,1.7888,1.8631,1.931,1.8839,1.7528,1.766,1.7707,1.7574,1.6247,0.0,0.0,0.0,0.0,0.0,0.0,0.0,0.0,2.0053,2.1136,2.1769,2.1639,0.0,0.0,0.0,0.0,0.0,2.0496,1.9943,1.9978,2.2416,2.1056,1.9381,2.0457,1.8585,1.7766,2.1779,0.0,0.0,0.0,2.6135,2.7585,0.0,0.0,0.0,0.0,0.0,0.0,0.0,0.0,0.0,0.0,0.0,0.0,0.0,0.0,0.0,0.0,3.5911,3.5741,3.536,3.5341,3.5111,3.4668,3.5673,3.5057,3.2822,3.5182,3.4846,3.2201,3.4197,3.4259,3.2771,0.0,3.0946,2.9529,2.8778,2.8184,2.7635,2.752,2.7217,2.6753,2.6119,2.5863,2.5769,0.0,0.0,0.0,0.0,0.0,0.0,0.0,0.0,0.0,0.0,0.0,0.0,0.0,0.0,0.0,0.0,0.0,0.0,0.0,0.0,1.7071,1.7002,1.7133,1.6929,1.6358,1.6754,1.6704,1.6198,1.6374,1.6262,1.593,1.6787,1.7712,1.8604,1.8478,1.7857,1.6848,1.6894,1.6968,1.6954,0.0,0.0,0.0,0.0,0.0,0.0,0.0,0.0,0.0,0.0,2.1481,2.1806,2.1805,0.0,0.0,0.0,0.0,0.0,2.0496,2.0216,2.0636,2.3655,2.1046,1.8848,2.3014,2.0109,1.8168,0.0,0.0,0.0,0.0,0.0,0.0,0.0,0.0,0.0,0.0,0.0,0.0,0.0,0.0,0.0,0.0,0.0,0.0,0.0,0.0,0.0,0.0,0.0,3.5689,3.5469,3.5359,3.5133,3.4811,3.5324,3.4438,3.2289,3.4241,3.4066,3.2068,3.4134,3.4535,3.3448,0.0,3.1491,3.1117,2.9353,2.8794,2.9086,2.8554,2.7997,2.753,2.7328,2.6928,2.6466,0.0,0.0,0.0,0.0,0.0,0.0,0.0,0.0,0.0,0.0,0.0,0.0,0.0,0.0,0.0,0.0,0.0,0.0,0.0,1.7658,1.7646,1.7583,1.8239,1.8056,1.6899,1.7193,1.6904,1.5987,1.6509,1.6599,1.6302,1.7063,1.7947,1.8836,1.7993,1.7226,1.6575,1.6452,1.6452,1.6459,0.0,0.0,0.0,0.0,0.0,0.0,0.0,0.0,0.0,0.0,0.0,0.0,0.0,0.0,0.0,2.0997,2.0663,2.0503,2.0496,2.0348,2.0923,2.3956,2.0919,1.8882,2.5426,2.1518,1.8476,0.0,0.0,0.0,0.0,0.0,0.0,0.0,0.0,0.0,0.0,0.0,0.0,0.0,0.0,0.0,0.0,0.0,0.0,0.0,0.0,0.0,0.0,0.0,3.5639,3.5538,3.5336,3.5119,3.4889,3.4833,3.3954,3.2313,3.38,3.3802,3.2545,3.4239,3.4704,3.4088,3.2148,3.1816,3.2418,2.9856,2.9354,3.0165,2.9517,2.8698,2.7959,2.8192,2.7662,2.6932,0.0,0.0,0.0,0.0,0.0,0.0,0.0,0.0,0.0,0.0,0.0,0.0,0.0,0.0,0.0,0.0,0.0,0.0,0.0,1.9331,1.9323,1.9318,1.9439,1.8732,1.7096,1.7763,1.7814,1.7184,1.6249,1.6244,1.7135,1.8005,1.8877,1.9676,1.8862,1.8087,1.7376,1.6697,1.6471,1.6518,1.5652,0.0,0.0,0.0,0.0,0.0,0.0,0.0,0.0,0.0,0.0,0.0,0.0,0.0,2.1794,2.1716,2.113,2.0503,2.0503,1.9912,1.9745,2.1617,2.0478,2.0313,2.5673,2.1518,0.0,2.537,0.0,0.0,0.0,0.0,0.0,0.0,0.0,0.0,0.0,0.0,0.0,0.0,0.0,0.0,0.0,0.0,0.0,0.0,0.0,0.0,0.0,0.0,0.0,3.5341,3.5139,3.4869,3.4539,3.3928,3.3775,3.4042,3.4955,3.4936,3.4169,3.4935,3.4565,3.3241,3.2599,3.2057,3.1646,3.0858,3.0493,3.0354,3.0307,2.939,2.8076,2.8122,2.7624,2.6876,0.0,0.0,0.0,0.0,0.0,0.0,0.0,0.0,0.0,0.0,0.0,0.0,0.0,0.0,0.0,0.0,0.0,0.0,0.0,1.9681,1.9662,1.9638,1.9688,1.9188,1.8061,1.826,1.7235,1.4866,1.4549,1.5664,1.808,1.8414,1.9028,1.9823,1.9114,1.864,1.8332,1.7626,1.737,1.7342,1.6502,1.672,0.0,0.0,0.0,0.0,0.0,0.0,0.0,0.0,2.1171,2.1081,2.1636,2.1433,2.0986,2.0997,2.0724,2.0437,2.0448,1.9808,1.9925,2.3218,2.1133,0.0,0.0,2.2708,2.0998,2.8495,2.6106,0.0,0.0,0.0,0.0,0.0,0.0,0.0,0.0,0.0,0.0,0.0,0.0,0.0,0.0,0.0,0.0,0.0,0.0,0.0,0.0,0.0,0.0,3.5495,3.5178,3.4925,3.4754,3.4213,3.3762,3.3471,3.4249,3.4518,3.432,3.4985,3.4844,3.3941,3.3239,3.277,3.2402,3.1164,3.0635,3.0525,2.9954,2.9343,2.8905,2.9454,2.9039,2.8248,0.0,0.0,0.0,0.0,0.0,0.0,0.0,0.0,0.0,0.0,0.0,0.0,0.0,0.0,0.0,0.0,0.0,0.0,1.9782,1.9538,1.9493,1.975,1.9541,1.9179,1.8665,1.861,1.7283,1.4682,1.5047,1.6394,1.8606,1.8877,1.9322,1.9858,1.9154,1.8866,1.8852,1.8158,1.7888,1.7847,1.7323,1.7474,0.0,0.0,0.0,0.0,0.0,0.0,0.0,0.0,2.0993,2.0597,2.12,2.0977,2.0495,2.0506,2.0463,2.0361,2.0104,1.9585,1.989,2.3037,0.0,0.0,2.5754,2.3821,2.2704,2.9695,2.8255,0.0,0.0,0.0,0.0,0.0,0.0,0.0,0.0,0.0,0.0,0.0,0.0,0.0,0.0,0.0,0.0,0.0,0.0,0.0,0.0,0.0,0.0,0.0,3.5247,3.4999,3.4832,3.4461,3.3865,3.3087,3.3671,3.3945,3.4011,3.4588,3.4731,3.4464,3.3727,3.3225,3.2886,3.1628,3.0937,3.0631,2.9713,2.935,2.9369,2.9954,2.9656,2.9053,0.0,0.0,0.0,0.0,0.0,0.0,0.0,0.0,1.9775,1.9713,1.9647,0.0,0.0,0.0,0.0,0.0,0.0,0.0,1.9699,1.8958,1.8918,1.9866,1.9084,1.8693,1.8811,1.8754,1.8317,1.751,1.8365,1.8732,1.8636,1.9503,1.9911,1.9877,1.9092,1.8802,1.8871,1.8159,1.7873,1.7909,1.7972,1.8006,1.8108,0.0,0.0,0.0,0.0,0.0,0.0,0.0,2.049,2.0504,2.0497,2.0507,2.0507,2.0527,2.0517,2.0316,1.9465,1.9212,1.9383,2.0221,0.0,0.0,2.6424,2.4683,2.3087,2.8257,3.2081,3.3971,3.235,0.0,0.0,0.0,0.0,0.0,0.0,0.0,0.0,0.0,0.0,0.0,0.0,0.0,0.0,0.0,0.0,0.0,0.0,0.0,0.0,0.0,3.5335,3.5035,3.4694,3.4498,3.4037,3.3291,3.3496,3.3482,3.3322,3.3773,3.4203,3.4464,3.387,3.3304,3.2837,3.2366,3.1589,3.0615,2.982,2.9412,2.9305,2.9305,2.9185,2.9002,0.0,0.0,0.0,0.0,0.0,0.0,0.0,0.0,1.9828,1.9707,1.9675,0.0,0.0,0.0,0.0,0.0,0.0,0.0,1.9979,1.9801,1.9812,2.0089,1.9849,1.9716,1.9707,1.9659,1.92,1.8326,1.8089,1.8517,1.9595,1.9855,1.9958,2.0009,2.0993,2.0805,1.9829,2.0928,2.036,1.8739,1.8774,1.8804,1.8864,0.0,0.0,0.0,0.0,0.0,0.0,0.0,0.0,0.0,2.0502,2.0495,2.0729,2.1901,2.1381,2.0515,2.0852,1.9658,1.8751,2.0682,0.0,0.0,0.0,2.4347,0.0,0.0,3.1626,3.212,2.9847,0.0,0.0,0.0,0.0,0.0,0.0,0.0,0.0,0.0,0.0,0.0,0.0,0.0,0.0,0.0,0.0,0.0,0.0,0.0,0.0,0.0,3.532,3.5034,3.4697,3.4502,3.4037,3.3291,3.3122,3.3283,3.3727,3.4021,3.4389,3.4754,3.3886,3.309,3.2284,3.0992,3.0332,3.0105,2.9762,2.9608,2.9592,2.9592,2.9478,2.9375,0.0,0.0,0.0,0.0,0.0,0.0,0.0,0.0,2.0229,1.9837,1.9713,1.9668,0.0,0.0,0.0,0.0,0.0,0.0,0.0,1.982,1.9846,2.0171,1.9871,1.9807,2.0089,2.0364,2.0257,1.9722,1.8973,1.9078,2.0,2.002,2.0038,2.005,2.1128,2.1072,2.0211,2.1378,2.0998,1.9621,1.9657,1.9687,1.9724,0.0,0.0,0.0,0.0,0.0,0.0,0.0,0.0,0.0,2.0506,2.0987,2.1603,2.1917,2.1508,2.1142,2.1983,2.0842,0.0,2.3724,2.3004,2.2036,2.4342,0.0,0.0,0.0,0.0,3.3091,0.0,0.0,0.0,0.0,0.0,0.0,0.0,0.0,0.0,0.0,0.0,0.0,0.0,0.0,0.0,0.0,0.0,0.0,0.0,0.0,0.0,3.5463,3.5285,3.5016,3.4658,3.4508,3.4111,3.3426,3.3001,3.307,3.3563,3.3761,3.4074,3.4419,3.3348,3.2441,3.1583,3.0193,2.9742,2.9902,2.983,2.9742,2.9697,2.9697,2.9608,2.9518,0.0,0.0,1.972,2.1235,0.0,0.0,0.0,0.0,2.0739,1.9987,1.9738,1.9641,0.0,0.0,0.0,0.0,0.0,0.0,0.0,1.9372,1.9383,2.0169,1.9501,1.9494,2.0299,2.1031,2.1409,2.1409,2.067,2.0289,2.023,2.0288,2.0257,2.0137,2.0344,2.0346,2.0216,2.0434,2.0469,2.039,2.0449,2.049,2.0497,2.0484,0.0,0.0,0.0,0.0,0.0,0.0,0.0,0.0,2.0588,2.1704,2.2701,2.1274,2.1467,2.2302,2.3043,2.2532,2.2929,2.7566,2.5878,0.0,2.7862,2.8519,2.9756,3.469,0.0,0.0,0.0,0.0,0.0,0.0,0.0,0.0,0.0,0.0,0.0,0.0,0.0,0.0,0.0,0.0,0.0,0.0,0.0,0.0,0.0,0.0,3.533,3.5398,3.5273,3.5018,3.4634,3.4551,3.4213,3.3643,3.3093,3.2889,3.2921,3.311,3.3436,3.3756,3.2618,3.1686,3.0927,3.0023,2.9717,2.9858,2.9858,2.9786,2.9697,2.9697,2.9653,2.9563,0.0,0.0,2.1991,2.2296,0.0,0.0,0.0,0.0,0.0,1.9842,0.0,0.0,0.0,0.0,0.0,0.0,0.0,0.0,0.0,2.0041,2.006,2.0182,2.0527,2.1113,2.198,2.2106,2.2189,2.2243,2.2064,2.1988,2.1966,2.1985,2.1635,2.1067,2.2473,2.198,2.0229,2.1639,2.1486,2.0241,2.0308,2.041,2.0495,2.0433,2.0448,0.0,0.0,0.0,0.0,0.0,0.0,0.0,2.1292,2.1789,2.2264,2.3265,2.4137,2.4812,2.4986,2.3913,0.0,2.4083,2.4147,2.5732,3.2493,3.2454,3.1882,3.5125,0.0,0.0,0.0,0.0,0.0,0.0,0.0,0.0,0.0,0.0,0.0,0.0,0.0,0.0,0.0,0.0,0.0,0.0,0.0,0.0,0.0,3.533,3.533,3.5398,3.5273,3.5105,3.4925,3.4634,3.4353,0.0,3.353,3.2965,3.2372,3.2422,3.2923,3.3789,3.3346,3.2684,3.1857,3.09,3.0167,2.9608,2.9608,2.9653,2.9697,2.9697,2.9742,2.9786,0.0,0.0,0.0,0.0,0.0,0.0,0.0,0.0,0.0,0.0,0.0,0.0,0.0,0.0,0.0,0.0,0.0,0.0,0.0,0.0,2.1493,2.1487,2.1348,2.1654,2.2528,2.2829,2.2987,2.3032,2.3436,2.324,2.2443,2.2486,2.2281,2.1923,2.2895,2.2593,2.1406,2.2389,2.228,2.1413,2.1107,2.1008,2.108,2.1065,2.1091,2.1172,2.1594,0.0,0.0,0.0,0.0,0.0,0.0,0.0,2.2519,2.3006,2.3745,2.4679,2.5882,2.5868,0.0,2.696,0.0,3.0433,3.3248,3.3761,3.4074,3.5554,0.0,0.0,0.0,0.0,0.0,0.0,0.0,0.0,0.0,0.0,0.0,0.0,0.0,0.0,0.0,0.0,0.0,0.0,0.0,0.0,0.0,3.532,3.5289,3.5354,3.5209,3.5089,3.4944,3.4593,3.4242,3.3943,3.3484,3.2781,3.1967,3.228,3.2707,3.3126,3.3379,3.2733,3.1491,3.0997,3.0296,2.9518,2.9518,2.9518,2.9608,2.9608,2.9697,2.9814,0.0,0.0,0.0,0.0,0.0,0.0,0.0,0.0,0.0,0.0,0.0,0.0,0.0,0.0,0.0,0.0,0.0,0.0,0.0,0.0,0.0,2.305,2.2199,2.2114,2.2988,2.3524,2.3809,2.3809,2.453,2.4255,2.3038,2.312,2.2992,2.2737,2.301,2.2891,2.2499,2.2725,2.2816,2.2755,2.2146,2.1906,2.1937,2.1993,2.2001,2.2094,2.2842,2.3104,2.299,2.2335,0.0,0.0,0.0,0.0,2.3176,2.246,2.3066,2.4414,2.6376,2.7647,2.8977,3.1324,3.3258,0.0,3.2862,3.3954,3.5398,0.0,0.0,0.0,0.0,0.0,0.0,0.0,0.0,0.0,0.0,0.0,0.0,0.0,0.0,0.0,0.0,0.0,0.0,0.0,0.0,0.0,3.5393,3.5273,3.5226,3.5277,3.5181,3.5056,3.4945,3.4529,3.4128,3.3821,3.3273,3.2553,3.1728,3.232,3.2536,3.2508,3.3346,3.2782,3.1269,3.1223,3.0585,2.9694,2.9649,2.9585,2.9518,2.9518,2.9608,2.9726,0.0,0.0,0.0,0.0,0.0,0.0,0.0,0.0,0.0,0.0,2.1845,2.1873,0.0,2.2003,2.2121,2.2253,2.2431,2.2556,2.2598,0.0,0.0,2.3734,2.3522,2.3759,2.4587,2.4625,2.4643,2.4643,2.4814,2.5135,2.5616,2.5684,2.4955,2.3648,2.45,2.3666,2.172,2.253,2.2879,2.289,2.2784,2.2772,2.2838,2.2838,0.0,0.0,0.0,2.3101,2.3088,2.298,2.2944,0.0,0.0,0.0,2.4204,2.4089,2.5702,2.7421,2.7008,0.0,2.9667,0.0,3.1021,3.103,0.0,0.0,3.3978,0.0,0.0,0.0,0.0,0.0,0.0,0.0,0.0,0.0,0.0,0.0,0.0,0.0,0.0,0.0,0.0,0.0,0.0,0.0,0.0,3.5449,3.533,3.5239,3.5209,3.5209,3.5198,3.5181,3.5157,3.4595,3.4269,3.42,3.3123,3.2248,3.1711,3.2083,3.2428,3.2734,3.4107,3.4082,3.309,3.2901,3.1885,3.0445,3.018,2.9861,2.9518,2.9518,2.9653,2.9874,0.0,0.0,0.0,0.0,0.0,0.0,0.0,0.0,0.0,0.0,0.0,2.2262,2.2262,2.2413,2.2521,2.2536,2.3042,2.3602,2.4168,2.3717,2.3582,2.3936,2.3355,2.3411,2.42,2.4143,2.4312,2.4802,2.4827,2.5517,0.0,2.694,2.6083,2.4543,2.5958,2.5225,2.2997,2.4379,2.4687,2.4214,2.3787,2.361,2.3631,0.0,0.0,0.0,0.0,0.0,0.0,0.0,2.3836,2.3815,2.3698,0.0,0.0,0.0,2.5187,2.6503,2.8546,2.8906,2.9591,0.0,3.2069,3.1087,3.4948,0.0,0.0,0.0,0.0,0.0,0.0,0.0,0.0,0.0,0.0,0.0,0.0,0.0,0.0,0.0,0.0,0.0,0.0,0.0,0.0,0.0,0.0,3.5405,3.5315,3.5239,3.5209,3.5209,3.5198,3.5198,3.5209,3.4595,3.408,3.3607,3.3014,3.2504,3.2038,3.2376,3.2587,3.2746,3.3806,3.367,3.2622,3.2528,3.1404,2.9766,2.9642,2.9452,2.9275,2.9275,2.9412,2.9592,0.0,0.0,0.0,0.0,0.0,0.0,0.0,0.0,0.0,0.0,0.0,2.2919,2.2973,0.0,0.0,0.0,2.3807,2.4511,2.5234,2.4676,2.4204,2.3964,2.3191,2.2974,2.3379,2.328,2.3526,2.4162,2.4172,2.4969,2.6488,2.7243,2.6803,0.0,2.7014,2.6703,2.5052,0.0,2.6554,2.5938,2.539,2.49,0.0,0.0,0.0,0.0,0.0,2.6061,0.0,0.0,0.0,0.0,0.0,0.0,0.0,0.0,0.0,2.552,0.0,0.0,2.9211,3.3457,3.2249,3.0837,0.0,0.0,0.0,0.0,0.0,0.0,0.0,0.0,0.0,0.0,0.0,0.0,0.0,0.0,0.0,0.0,0.0,0.0,0.0,0.0,0.0,0.0,3.5483,3.535,3.53,3.5242,3.5209,3.5209,3.5196,3.5196,3.5209,3.4574,3.3854,3.3055,3.2948,3.2639,3.2161,3.2412,3.2604,3.2729,3.3475,3.3406,3.2718,3.2414,3.1307,2.9814,2.95,2.9279,2.9167,2.9167,2.9213,2.9396,0.0,0.0,0.0,0.0,0.0,0.0,0.0,0.0,0.0,0.0,0.0,2.4651,2.4834,2.4815,2.4867,2.5042,2.505,2.5088,2.5198,2.516,2.4744,2.3847,2.3638,0.0,2.2581,2.2483,2.245,2.2418,2.2495,2.2975,2.3947,2.6434,2.7173,2.6462,2.7386,2.7727,2.7599,0.0,0.0,0.0,0.0,0.0,0.0,0.0,0.0,0.0,0.0,0.0,0.0,0.0,0.0,0.0,0.0,0.0,0.0,0.0,0.0,0.0,0.0,2.8277,0.0,3.0494,2.9588,0.0,0.0,0.0,0.0,0.0,0.0,0.0,0.0,0.0,0.0,0.0,0.0,0.0,0.0,0.0,0.0,0.0,0.0,0.0,0.0,0.0,0.0,0.0,3.5383,3.5293,3.5293,3.5226,3.5209,3.5209,3.5209,3.5209,3.5209,3.447,3.3697,3.2916,3.2916,3.2488,3.1714,3.1765,3.2111,3.2729,3.3475,3.417,3.4669,3.3501,3.2594,3.1738,3.0609,2.98,2.9305,2.9305,2.9366,2.9473,0.0,0.0,0.0,0.0,0.0,0.0,0.0,0.0,0.0,0.0,0.0,0.0,0.0,2.4934,2.5013,2.5013,2.5068,2.5149,2.5262,2.5262,2.4858,2.3973,2.3305,2.2818,2.2505,2.2469,2.2735,2.3259,2.3852,2.4586,2.5512,2.6512,2.7083,2.7428,2.9951,2.9571,2.7189,2.9393,0.0,0.0,0.0,0.0,0.0,0.0,0.0,0.0,0.0,0.0,0.0,0.0,0.0,0.0,0.0,0.0,0.0,0.0,0.0,0.0,0.0,0.0,0.0,3.0069,2.865,2.7304,0.0,0.0,0.0,0.0,0.0,0.0,0.0,0.0,0.0,0.0,0.0,0.0,0.0,0.0,0.0,0.0,0.0,0.0,0.0,0.0,0.0,0.0,0.0,3.3574,3.5216,3.3681,3.3513,3.5152,3.5209,3.5016,3.4615,3.4269,3.3723,3.3024,3.2948,3.2737,3.2437,3.2197,3.234,3.2808,3.3279,3.3656,3.3902,3.2834,3.1884,3.0987,2.991,2.9343,2.9167,2.9167,2.9213,2.9275,0.0,0.0,0.0,0.0,0.0,2.4708,2.4645,2.4613,2.458,2.4566,0.0,0.0,0.0,0.0,2.5044,2.4974,2.4843,2.4905,2.5244,2.5293,2.4889,2.4004,2.3348,2.2855,2.2544,2.2521,2.2818,2.3404,2.3995,2.4624,2.529,2.6168,2.69,2.7533,3.0694,3.0687,0.0,0.0,0.0,2.8135,0.0,0.0,2.7302,0.0,0.0,0.0,0.0,0.0,0.0,0.0,0.0,0.0,0.0,0.0,0.0,0.0,0.0,0.0,2.705,0.0,0.0,0.0,2.7376,2.6283,2.8538,0.0,0.0,0.0,0.0,0.0,0.0,0.0,0.0,0.0,0.0,0.0,0.0,0.0,0.0,0.0,0.0,0.0,0.0,0.0,0.0,0.0,0.0,0.0,3.5165,3.3624,3.3455,3.5152,3.5069,3.4756,3.4223,3.4006,3.3607,3.3024,3.293,3.2852,3.2705,3.242,3.2457,3.2831,3.3165,3.3433,3.3508,3.2443,3.1641,3.0939,2.9624,2.9075,2.9075,2.9075,2.9075,2.9121,0.0,0.0,2.5303,2.5303,2.5019,2.4779,2.4723,2.4764,2.476,2.4707,0.0,0.0,0.0,0.0,0.0,2.5101,2.4513,2.4428,2.5165,2.5282,2.4907,2.3983,2.3858,2.3446,2.2659,2.2637,2.2626,2.2651,2.2738,2.2815,2.2938,0.0,2.6554,2.6689,2.9274,3.0867,3.1661,0.0,3.2946,3.2745,0.0,3.0673,3.0379,0.0,0.0,0.0,3.0094,2.9664,0.0,0.0,0.0,0.0,0.0,0.0,0.0,0.0,0.0,0.0,0.0,0.0,0.0,0.0,0.0,0.0,2.5621,0.0,0.0,0.0,0.0,0.0,0.0,0.0,0.0,0.0,0.0,0.0,0.0,0.0,0.0,0.0,0.0,0.0,0.0,0.0,0.0,0.0,3.5133,3.5133,3.5209,3.5209,3.5209,3.5193,3.4813,3.4451,3.408,3.3688,3.3302,3.2916,3.2916,3.2705,3.2318,3.2318,3.2492,3.2796,3.3148,3.3487,3.3627,3.2474,3.201,3.1817,2.9846,2.9075,2.9075,2.9075,2.9075,2.9075,0.0,2.5339,2.5313,2.5125,2.5019,2.4915,2.4856,2.4738,2.4676,0.0,0.0,0.0,0.0,0.0,2.5228,2.5239,2.513,2.5101,2.5274,2.5332,2.5255,2.4995,2.4322,2.386,2.3688,2.3698,2.3688,2.3687,2.434,2.4666,2.4692,0.0,0.0,0.0,2.7816,2.882,2.9197,3.1815,0.0,0.0,3.2426,3.1321,0.0,0.0,0.0,0.0,0.0,3.047,3.0152,0.0,2.9684,2.8088,0.0,0.0,0.0,0.0,0.0,0.0,2.5703,0.0,0.0,0.0,0.0,0.0,2.5624,2.7328,0.0,0.0,0.0,0.0,0.0,0.0,0.0,0.0,0.0,0.0,0.0,0.0,0.0,0.0,0.0,0.0,0.0,0.0,0.0,0.0,3.3494,3.3249,3.5114,3.5209,3.5124,3.5001,3.4736,3.4345,3.3802,3.3607,3.3302,3.2916,3.2916,3.2852,3.2737,3.2737,3.2458,3.2056,3.3208,3.3069,3.1982,3.202,3.201,3.1817,2.9846,2.9075,2.9075,2.9075,2.9075,2.9075,2.5312,2.5303,2.5264,2.5082,2.5019,2.5094,2.5367,2.5366,2.5454,0.0,0.0,0.0,0.0,0.0,0.0,2.5273,2.5024,2.4995,2.5332,2.5379,2.5397,2.5406,2.4851,2.4572,2.4648,2.4601,2.4601,2.459,2.5138,2.5406,0.0,0.0,0.0,0.0,2.6464,2.6925,0.0,0.0,0.0,0.0,3.225,0.0,0.0,3.2419,3.2065,0.0,0.0,0.0,3.2586,3.364,3.2413,0.0,0.0,0.0,0.0,0.0,0.0,0.0,0.0,0.0,0.0,0.0,0.0,0.0,2.5657,2.7487,2.9143,0.0,0.0,0.0,0.0,0.0,0.0,0.0,0.0,0.0,0.0,0.0,0.0,0.0,0.0,0.0,0.0,3.5268,3.5168,3.516,3.3824,3.3614,3.5133,3.5209,3.507,3.4774,3.4534,3.4139,3.3607,3.3372,3.3111,3.2916,3.2916,3.2916,3.2916,3.2916,3.2732,3.247,3.3455,3.3379,3.2575,3.2613,3.2154,3.1273,2.9688,2.9075,2.9075,2.9075,2.9075,2.9122,0.0,2.5351,2.5297,2.5237,2.526,2.547,2.6048,2.6336,2.6667,0.0,0.0,0.0,0.0,0.0,0.0,0.0,2.4649,2.4562,2.5331,2.5397,2.5395,2.5393,2.5331,2.5351,2.5398,2.5332,2.5312,0.0,0.0,0.0,0.0,0.0,0.0,0.0,2.541,2.5507,2.5751,0.0,0.0,3.28,3.16,3.2827,0.0,0.0,3.3619,0.0,3.628,3.6189,3.5182,3.7444,3.6185,0.0,0.0,0.0,0.0,0.0,2.9408,0.0,0.0,0.0,0.0,0.0,0.0,0.0,2.5919,2.8067,3.0272,0.0,0.0,0.0,0.0,0.0,0.0,0.0,0.0,0.0,0.0,0.0,0.0,0.0,0.0,0.0,3.5283,3.5102,3.502,3.5075,3.5147,3.5198,3.5193,3.5209,3.5034,3.4658,3.4274,3.3906,3.3542,3.3129,3.2916,3.2916,3.2916,3.2916,3.2916,3.2834,3.3013,3.3333,3.3684,3.3945,3.4135,3.3664,3.2429,3.0796,2.9767,2.9358,2.9312,2.9312,2.9312,2.9406,2.5129,2.5704,2.6066,2.5994,2.6541,2.683,2.6346,2.6792,2.7039,2.656,2.6593,0.0,0.0,0.0,0.0,0.0,2.5216,2.5206,2.5322,2.537,2.5407,2.5407,2.5398,2.5398,2.5406,2.5397,2.5369,0.0,0.0,0.0,0.0,0.0,0.0,0.0,2.5483,2.5919,2.6637,0.0,0.0,3.1269,3.2984,0.0,3.3063,3.6095,3.5605,3.3706,3.6867,3.6985,3.5733,0.0,3.5963,3.4928,0.0,0.0,0.0,0.0,0.0,0.0,0.0,0.0,0.0,0.0,0.0,0.0,2.7346,2.692,2.7032,0.0,0.0,0.0,0.0,0.0,0.0,0.0,0.0,0.0,0.0,0.0,0.0,0.0,0.0,0.0,3.5136,3.5,3.4945,3.502,3.5129,3.52,3.5198,3.5212,3.5089,3.4851,3.4379,3.3956,3.3661,3.3142,3.2916,3.2916,3.2916,3.2916,3.2884,3.2555,3.2616,3.2945,3.3287,3.3184,3.2797,3.3092,3.2966,3.2498,3.1502,3.099,3.0812,3.0812,3.0812,3.073,2.5783,2.6438,2.6809,2.6327,2.6598,2.6778,2.6415,2.664,2.6901,2.7033,2.6768,0.0,0.0,0.0,0.0,0.0,0.0,0.0,0.0,2.5322,2.538,2.5398,2.5361,2.537,2.5397,2.5379,2.5351,2.5351,0.0,0.0,0.0,0.0,0.0,0.0,0.0,0.0,0.0,0.0,2.8548,3.0636,3.2791,0.0,3.4003,3.6945,3.7035,3.5891,3.8031,3.8617,3.8195,3.6936,3.6774,0.0,0.0,3.341,3.181,0.0,3.0053,2.9385,0.0,0.0,0.0,2.8711,0.0,0.0,0.0,2.7904,2.8307,2.9582,0.0,0.0,0.0,0.0,0.0,0.0,0.0,0.0,0.0,0.0,0.0,0.0,0.0,0.0,3.5,3.4926,3.4945,3.5038,3.511,3.5164,3.5196,3.5179,3.4945,3.4529,3.4176,3.3776,3.3302,3.3037,3.2916,3.2916,3.2916,3.2916,3.2884,3.2705,3.302,3.3685,3.3481,3.3573,3.3789,3.3648,3.3517,3.3271,3.19,3.1306,3.1223,3.1223,3.1223,3.1221,2.6294,2.6868,2.7197,2.6635,2.6545,2.6572,2.6619,2.6587,2.6867,2.7692,0.0,0.0,0.0,0.0,0.0,0.0,0.0,0.0,0.0,0.0,2.6121,2.5677,2.5755,2.5861,2.5907,2.587,2.5842,2.5842,0.0,0.0,0.0,0.0,0.0,0.0,0.0,0.0,0.0,0.0,0.0,3.1385,0.0,3.4339,3.5419,3.7565,3.8204,3.8094,3.9187,4.0115,4.0441,3.8077,0.0,3.7995,3.7948,3.5632,0.0,0.0,0.0,0.0,0.0,0.0,0.0,0.0,0.0,2.8741,0.0,0.0,0.0,3.0192,0.0,0.0,0.0,0.0,0.0,0.0,0.0,0.0,0.0,0.0,0.0,0.0,0.0,0.0,0.0,3.3885,3.4415,3.5019,3.5075,3.511,3.5141,3.5127,3.4831,3.42,3.4006,3.3607,3.3024,3.293,3.2916,3.2916,3.2916,3.2916,3.2884,3.2737,3.3335,3.4431,3.3659,3.4021,3.5098,3.4366,3.3949,3.3633,3.2247,3.1668,3.1618,3.1618,3.1618,3.1647,2.5545,2.6071,2.6708,2.7271,2.7418,2.7445,2.7452,2.751,0.0,0.0,0.0,0.0,0.0,0.0,0.0,0.0,0.0,0.0,2.6683,0.0,0.0,2.6648,2.7293,2.7696,2.7705,2.7757,2.778,2.778,0.0,0.0,0.0,0.0,0.0,0.0,2.7888,0.0,0.0,0.0,3.2417,0.0,3.6347,3.5959,0.0,3.8667,3.9273,3.826,3.974,4.0361,4.0179,0.0,3.7481,3.6841,0.0,3.4012,0.0,0.0,0.0,0.0,0.0,0.0,0.0,0.0,2.9044,0.0,0.0,0.0,2.8241,2.8995,0.0,0.0,0.0,0.0,0.0,0.0,0.0,0.0,0.0,0.0,0.0,0.0,0.0,0.0,0.0,3.0273,3.2541,3.4756,3.502,3.5038,3.4945,3.5038,3.4908,3.4486,3.408,3.3768,3.3429,3.3068,3.2916,3.2916,3.2916,3.2916,3.2884,3.2162,3.2617,3.3933,3.3127,3.3599,3.4883,3.4349,3.4101,3.4034,3.3569,3.3264,3.3072,3.3072,3.3072,3.2898,2.5212,2.6381,2.7163,2.7006,2.6964,2.6822,2.6379,2.6805,0.0,0.0,0.0,0.0,0.0,0.0,0.0,0.0,0.0,3.1635,0.0,0.0,0.0,2.8977,2.7412,2.7024,2.8043,2.7586,2.7593,2.8105,2.8106,0.0,0.0,0.0,0.0,0.0,2.8683,0.0,3.2327,0.0,3.3359,0.0,0.0,0.0,0.0,3.8762,3.9755,3.9155,3.8284,3.8986,3.9868,0.0,3.7089,0.0,0.0,0.0,0.0,0.0,0.0,0.0,0.0,0.0,0.0,0.0,0.0,0.0,0.0,0.0,2.9141,0.0,0.0,0.0,0.0,0.0,0.0,0.0,0.0,0.0,0.0,0.0,0.0,0.0,0.0,0.0,0.0,0.0,0.0,0.0,3.2851,3.2816,3.2655,3.3979,3.4529,3.4056,3.3715,3.3429,3.3142,3.2993,3.2916,3.2916,3.2916,3.2916,3.2902,3.2757,3.3273,3.4258,3.3693,3.3964,3.4785,3.4134,3.3761,3.3591,3.3503,3.3398,3.3309,3.3309,3.3309,3.324,2.4178,2.572,2.6727,2.635,2.6255,2.6051,2.5507,0.0,0.0,0.0,0.0,0.0,3.2108,3.1177,0.0,0.0,0.0,3.3829,0.0,0.0,3.1017,0.0,0.0,0.0,0.0,2.8094,2.7725,2.812,2.8119,0.0,0.0,0.0,0.0,0.0,0.0,3.0273,3.2393,0.0,0.0,3.5832,3.6463,3.6654,3.6725,3.8553,3.9577,3.9808,3.7885,3.8499,3.9659,3.614,3.6829,0.0,3.6743,0.0,0.0,0.0,0.0,0.0,3.3066,0.0,0.0,0.0,0.0,0.0,0.0,0.0,0.0,0.0,0.0,0.0,0.0,0.0,0.0,0.0,0.0,0.0,0.0,0.0,0.0,0.0,0.0,0.0,0.0,0.0,0.0,0.0,0.0,3.0995,3.0904,3.3053,3.408,3.3607,3.339,3.3172,3.2916,3.2916,3.2916,3.2916,3.3098,3.3223,3.3241,3.3459,3.3975,3.4722,3.4115,3.4184,3.4657,3.3984,3.3607,3.3398,3.3361,3.3309,3.3309,3.3309,3.3309,3.324,2.1912,2.3251,0.0,0.0,0.0,2.5518,0.0,0.0,0.0,0.0,0.0,0.0,0.0,0.0,0.0,0.0,0.0,3.5429,3.4517,0.0,3.4345,0.0,0.0,3.0082,0.0,0.0,2.9002,2.8194,2.8194,0.0,0.0,0.0,0.0,0.0,0.0,2.9844,3.1584,3.4001,3.5986,3.7661,3.9356,3.9986,3.9774,0.0,3.8552,3.9911,3.9816,0.0,0.0,3.7963,3.6919,0.0,0.0,0.0,0.0,0.0,0.0,0.0,0.0,0.0,0.0,3.279,0.0,0.0,0.0,0.0,2.9155,0.0,0.0,0.0,0.0,0.0,0.0,0.0,0.0,0.0,0.0,0.0,0.0,0.0,0.0,0.0,0.0,0.0,0.0,0.0,0.0,0.0,3.0605,3.2662,3.3661,3.3302,3.3321,3.3172,3.2916,3.2916,3.2916,3.2916,3.3687,3.4062,3.4064,3.4027,3.4387,3.5029,3.3922,3.3809,3.4448,3.3899,3.3694,3.3658,3.3398,3.3309,3.3309,3.3309,3.3309,3.3118,2.2999,2.3576,0.0,0.0,0.0,0.0,0.0,2.6821,0.0,0.0,0.0,0.0,0.0,0.0,3.5898,0.0,0.0,3.8657,3.7183,3.6534,0.0,0.0,0.0,3.2253,0.0,0.0,0.0,0.0,0.0,0.0,2.8008,0.0,0.0,0.0,0.0,2.9827,0.0,0.0,0.0,0.0,0.0,3.8551,3.8628,0.0,0.0,3.9889,3.9889,3.9889,0.0,3.7998,3.8,3.8591,3.7852,3.7051,3.6784,3.8821,3.7408,0.0,0.0,0.0,3.6287,3.5986,0.0,0.0,0.0,0.0,0.0,0.0,0.0,0.0,0.0,0.0,0.0,0.0,0.0,0.0,0.0,0.0,0.0,0.0,0.0,0.0,0.0,0.0,0.0,0.0,0.0,0.0,0.0,2.914,3.1117,3.0874,3.226,3.3261,3.3687,3.3687,3.3937,3.4436,3.4704,3.4847,3.4831,3.4774,3.4863,3.5057,3.4409,3.417,3.4201,3.3848,3.3607,3.345,3.3361,3.3309,3.324,3.285,3.2672,3.2508,2.3613,2.3807,0.0,0.0,0.0,0.0,0.0,0.0,0.0,0.0,3.3317,0.0,3.8066,0.0,3.7793,0.0,3.8879,3.9229,3.9282,3.6775,0.0,3.921,3.5157,0.0,0.0,0.0,0.0,0.0,0.0,2.8315,2.8838,2.7796,0.0,0.0,0.0,2.9069,3.0324,0.0,3.6002,0.0,0.0,3.8089,0.0,0.0,3.9421,3.9954,0.0,3.9889,3.9719,3.866,3.9062,3.9827,3.8803,3.8537,3.8804,3.9967,3.8744,3.7254,3.8323,3.8555,0.0,3.768,3.6652,0.0,3.5,0.0,0.0,0.0,0.0,0.0,0.0,0.0,0.0,0.0,0.0,0.0,0.0,0.0,0.0,0.0,0.0,0.0,0.0,0.0,0.0,0.0,0.0,0.0,0.0,0.0,3.0161,3.0345,3.2536,3.3972,3.4508,3.4508,3.474,3.5221,3.5332,3.5386,3.5385,3.5302,3.5292,3.5241,3.4651,3.425,3.405,3.371,3.345,3.3309,3.3309,3.3309,3.324,3.285,3.2453,3.1936,2.3749,2.3906,0.0,0.0,2.5258,0.0,0.0,0.0,3.2413,0.0,3.6497,3.6684,3.8316,3.7099,3.6737,3.815,3.6891,0.0,4.045,3.5418,0.0,0.0,3.5507,3.3939,3.7104,0.0,0.0,0.0,0.0,0.0,3.0283,2.7764,0.0,0.0,2.7338,0.0,2.8039,3.3212,3.5445,3.5637,3.7018,3.8572,3.9872,3.8078,3.8514,4.0077,3.9933,3.9889,3.9889,3.9889,3.9933,3.9996,4.0077,4.0157,4.0215,4.0272,4.031,4.031,4.0291,4.0098,3.9513,3.7923,0.0,0.0,0.0,0.0,3.3828,0.0,0.0,0.0,0.0,0.0,0.0,0.0,0.0,0.0,0.0,0.0,0.0,0.0,0.0,0.0,0.0,0.0,0.0,0.0,0.0,0.0,0.0,0.0,3.0564,3.1671,3.3758,3.4989,3.5275,3.515,3.5134,3.5294,3.5647,3.5756,3.5735,3.5668,3.5616,3.5526,3.4513,3.4101,3.405,3.3503,3.3309,3.3309,3.3309,3.3309,3.3309,3.324,3.2453,3.1306,2.5547,2.5215,2.537,0.0,2.7164,2.8839,0.0,0.0,0.0,0.0,3.6297,3.7367,3.8385,3.9253,3.8897,3.674,3.7338,0.0,0.0,0.0,0.0,4.0877,3.9565,3.8564,3.8155,3.6649,0.0,3.4167,0.0,0.0,2.939,2.7378,0.0,0.0,0.0,0.0,2.8172,3.3294,3.6161,3.7172,3.6167,3.6799,0.0,0.0,3.8514,4.0077,3.9933,3.9889,3.9889,3.9889,3.9933,3.9996,4.0077,4.0157,4.0215,4.0272,4.031,4.0291,4.0176,4.0117,3.9901,3.9277,3.8169,3.7144,0.0,0.0,0.0,0.0,0.0,0.0,0.0,0.0,0.0,0.0,0.0,0.0,0.0,0.0,0.0,0.0,0.0,0.0,0.0,0.0,0.0,0.0,0.0,0.0,0.0,0.0,0.0,3.1564,3.06,3.1974,3.6042,3.4347,3.4497,3.6474,3.6891,3.6735,3.6063,3.6044,3.5759,3.5283,3.4464,3.4,3.3761,3.345,3.3309,3.3309,3.3309,3.3309,3.3187,3.2272,3.119,3.0068,2.6209,0.0,0.0,2.57,0.0,0.0,3.1259,0.0,0.0,3.7187,3.7705,0.0,3.952,4.05,4.0301,3.8346,3.7698,0.0,3.809,0.0,0.0,4.0857,4.0324,3.9511,3.8511,3.8018,0.0,3.6123,0.0,0.0,3.1256,0.0,0.0,0.0,0.0,2.8291,0.0,3.3275,3.6362,3.777,3.6629,0.0,0.0,3.7775,3.8514,4.0077,3.9933,3.9889,3.9889,3.9889,3.9933,3.9996,4.0077,4.0157,4.0215,4.0272,4.031,4.0253,4.0137,4.0057,3.9954,3.9739,3.901,3.8305,3.8286,3.7197,3.6375,0.0,0.0,0.0,0.0,0.0,0.0,0.0,0.0,0.0,0.0,0.0,0.0,0.0,0.0,0.0,0.0,0.0,0.0,0.0,0.0,0.0,0.0,0.0,0.0,2.9583,3.0356,3.1729,3.3812,3.2495,3.3146,3.5702,3.5721,3.5917,3.6172,3.602,3.5644,3.5038,3.4382,3.4,3.3848,3.345,3.3309,3.3309,3.3309,3.3134,3.2796,3.1823,3.1014,3.0343,2.6207,0.0,0.0,0.0,0.0,0.0,0.0,3.4834,0.0,4.0296,0.0,3.9403,4.0625,4.0964,4.1003,4.0784,0.0,3.7561,4.0474,3.6489,3.608,4.0811,3.9627,3.8848,3.8837,3.8837,0.0,0.0,0.0,0.0,0.0,0.0,0.0,0.0,0.0,0.0,0.0,3.3182,3.6067,3.7775,3.7659,3.8499,3.9681,3.8268,3.8703,4.0057,3.9933,3.9889,3.9889,3.9889,3.9933,3.9996,4.0057,4.0137,4.0196,4.0253,4.0273,4.0234,4.0096,3.9954,3.9826,3.9735,3.9637,3.9626,3.9684,3.9689,3.9735,3.9867,3.9889,3.9456,0.0,0.0,0.0,0.0,0.0,0.0,0.0,0.0,0.0,0.0,0.0,0.0,0.0,0.0,0.0,0.0,0.0,0.0,0.0,0.0,0.0,2.7513,3.111,3.2392,3.0962,0.0,3.1809,3.4356,3.3724,3.4335,3.602,3.5732,3.5316,3.4756,3.43,3.405,3.3949,3.3503,3.3309,3.3309,3.3309,3.2958,3.2453,3.1936,3.1564,3.1304,0.0,0.0,0.0,0.0,0.0,3.2441,3.5986,3.8486,3.9735,3.9058,3.994,4.0223,3.9072,4.0231,4.0528,3.908,3.8466,0.0,0.0,0.0,0.0,4.098,4.0808,4.0633,4.0629,4.0593,4.0485,0.0,0.0,0.0,0.0,0.0,0.0,0.0,0.0,0.0,3.3103,3.321,0.0,3.7708,3.7622,3.7719,3.802,3.9058,3.9665,3.9933,3.9911,3.9889,3.9889,3.9889,3.9933,3.9996,4.0017,4.0057,4.0117,4.0137,4.0117,4.0017,3.9889,3.9804,3.9712,3.9631,3.9602,3.962,3.9674,3.9703,3.9712,3.9804,3.9867,3.9794,3.9532,0.0,0.0,0.0,0.0,0.0,0.0,0.0,0.0,0.0,0.0,0.0,0.0,0.0,0.0,0.0,0.0,0.0,0.0,0.0,0.0,0.0,2.8806,0.0,0.0,0.0,3.2276,3.5815,3.4169,3.4002,3.5148,3.5453,3.5115,3.425,3.4151,3.3848,3.345,3.3346,3.3309,3.3309,3.3309,3.3256,3.3134,3.3011,3.2312,3.1246,0.0,0.0,0.0,0.0,0.0,0.0,0.0,3.8853,0.0,3.9953,4.0574,4.0779,3.9936,4.0608,4.0754,3.9911,3.906,3.8928,3.9786,3.9029,3.9309,4.103,4.1108,0.0,3.9731,4.0557,4.047,3.9389,0.0,0.0,0.0,0.0,0.0,0.0,0.0,3.0814,0.0,0.0,0.0,3.7802,3.8499,3.88,3.8876,3.9629,3.9889,3.9889,3.9889,3.9889,3.9889,3.9889,3.9911,3.9954,3.9996,4.0017,4.0057,4.0077,4.0036,3.9933,3.9826,3.9735,3.9642,3.9602,3.9645,3.965,3.9679,3.9731,3.9758,3.9826,3.9889,3.9602,3.8625,3.6934,0.0,0.0,0.0,0.0,0.0,0.0,0.0,0.0,0.0,0.0,0.0,0.0,0.0,0.0,0.0,0.0,0.0,0.0,0.0,0.0,0.0,0.0,0.0,0.0,0.0,3.4731,3.3599,3.3744,3.5085,3.5299,3.4927,3.4101,3.3949,3.3761,3.3503,3.3346,3.3309,3.3309,3.3309,3.3309,3.324,3.2958,3.2272,3.1349,0.0,2.875,0.0,0.0,3.1669,0.0,3.5822,3.8761,4.0883,4.1071,4.1089,4.1164,4.1354,4.1384,4.131,4.1115,4.0184,3.9876,4.0504,3.9786,3.9774,4.0776,4.0991,4.043,3.9004,4.0279,4.0205,0.0,0.0,0.0,0.0,0.0,0.0,0.0,0.0,0.0,0.0,0.0,3.7955,3.8412,3.9486,3.9994,4.0036,3.9933,3.9889,3.9889,3.9889,3.9889,3.9911,3.9911,3.9911,3.9911,3.9954,3.9975,3.9975,4.0036,3.9954,3.9848,3.9804,3.9689,3.9613,3.9602,3.9645,3.9717,3.9708,3.9758,3.9826,3.9889,3.9889,3.9451,3.7973,3.7197,0.0,0.0,0.0,0.0,0.0,0.0,0.0,0.0,0.0,0.0,0.0,0.0,0.0,0.0,0.0,2.6499,2.5577,2.7459,2.8055,0.0,0.0,3.0267,3.0499,0.0,3.1513,3.4142,3.3173,3.3622,3.5283,3.5191,3.4738,3.4101,3.3899,3.3694,3.3607,3.3398,3.3309,3.3309,3.3309,3.3309,3.324,3.2617,3.1992,3.148,0.0,0.0,0.0,0.0,0.0,0.0,3.9884,4.0168,4.0209,4.0994,4.1091,4.1395,4.2183,4.2286,4.1954,4.1174,4.2405,4.194,3.8935,4.0805,4.14,3.9976,4.0678,4.103,4.0851,4.0824,4.0733,0.0,0.0,0.0,0.0,0.0,0.0,0.0,0.0,0.0,0.0,3.7383,3.8642,3.9986,4.0041,4.0015,3.9911,3.9911,3.9889,3.9889,3.9889,3.9889,3.9911,3.9975,3.9954,3.9889,3.9911,3.9911,3.9911,3.9911,3.9804,3.9712,3.9712,3.9656,3.9602,3.9602,3.9645,3.9717,3.9708,3.9758,3.9826,3.9889,3.9889,3.9851,3.9659,3.8196,3.6363,0.0,0.0,0.0,0.0,0.0,0.0,0.0,0.0,0.0,0.0,2.9357,0.0,0.0,2.6455,2.7513,2.8859,2.7157,2.6339,2.6801,0.0,2.9792,3.0414,3.1151,3.3224,3.6549,3.3934,3.3721,3.5526,3.5102,3.4643,3.4101,3.405,3.3797,3.3361,3.3293,3.3309,3.3309,3.3309,3.3309,3.324,3.2617,3.1992,3.1422,0.0,0.0,0.0,0.0,0.0,0.0,0.0,4.1355,4.2268,4.2611,4.2637,4.2749,4.3138,4.3144,4.3002,4.27,4.3294,4.3103,4.1714,4.2596,4.2877,4.2162,4.2474,4.2405,4.1832,4.1657,4.1305,0.0,0.0,0.0,0.0,0.0,0.0,0.0,0.0,3.6325,3.7437,3.8716,3.9585,4.0118,4.0017,3.9933,3.9889,3.9889,4.0233,4.0688,4.0688,4.0688,4.0688,4.0753,4.0412,3.9954,4.0015,4.0015,3.9994,3.9889,3.9758,3.9623,3.9526,3.9508,3.9495,3.952,3.9626,3.9703,3.9689,3.9781,3.9867,3.9889,3.9781,3.9599,3.9414,3.8588,3.7405,0.0,0.0,0.0,0.0,0.0,0.0,0.0,0.0,0.0,0.0,0.0,0.0,0.0,0.0,2.7335,2.6499,2.7297,2.8362,2.9645,0.0,3.1973,3.469,3.3565,3.4181,3.6464,3.4814,3.4263,3.469,3.448,3.4151,3.3607,3.3607,3.3503,3.3309,3.3309,3.3309,3.3309,3.3309,3.3309,3.324,3.2617,3.2251,3.1945,3.8748,0.0,3.6326,0.0,3.8877,4.0125,4.0174,4.2402,4.3911,4.3381,4.3935,4.4294,4.4106,4.4031,4.3924,4.3719,4.4172,4.4036,4.3006,4.3654,4.3853,4.3333,4.3537,0.0,4.2669,4.2509,4.2106,4.1448,3.8092,0.0,0.0,0.0,0.0,0.0,3.6921,3.8066,3.8635,3.9718,4.0291,4.0439,4.0333,4.0423,4.0628,4.0628,4.1029,4.156,4.156,4.156,4.1582,4.1648,4.1292,4.0724,4.0248,4.0057,3.9975,3.9848,3.9689,3.9526,3.9446,3.9413,3.9444,3.9495,3.9607,3.9689,3.9689,3.9781,3.9889,3.9804,3.9556,3.9287,3.9036,3.8789,3.8083,3.6479,0.0,0.0,0.0,0.0,0.0,0.0,3.3279,3.2781,3.4266,0.0,0.0,0.0,0.0,0.0,2.6322,2.7614,0.0,0.0,0.0,0.0,0.0,3.4115,3.4283,3.6147,3.5345,3.4754,3.4415,3.4134,3.3761,3.3398,3.3346,3.3309,3.3309,3.3309,3.3309,3.3309,3.3309,3.3419,3.3486,3.269,3.2518,3.2556,4.2175,4.231,4.2563,4.3437,4.3609,4.3063,4.1345,4.3308,4.437,4.263,4.4611,4.587,4.5073,4.4985,4.4649,4.3771,4.5262,4.4813,4.1367,4.3541,4.4211,0.0,0.0,4.3507,4.3481,4.3291,4.3175,4.3175,0.0,0.0,3.9219,0.0,3.7469,3.6781,3.9257,4.0375,4.0358,4.0177,4.0573,4.1276,4.1225,4.1673,4.2375,4.2375,4.2393,4.2393,4.2393,4.2439,4.2484,4.255,4.2614,4.237,4.0651,3.9954,3.9804,3.9804,3.9599,3.9401,3.9401,3.9458,3.9495,3.9495,3.9607,3.9689,3.9689,3.9781,3.9826,3.9575,3.9242,3.9008,3.9008,3.8789,3.8083,3.6479,0.0,0.0,0.0,0.0,0.0,0.0,3.1697,3.1159,3.2583,0.0,0.0,0.0,0.0,0.0,0.0,0.0,0.0,2.9195,2.8514,0.0,3.0855,3.1638,3.3384,3.6097,3.5357,3.5081,3.5128,3.4168,3.3694,3.371,3.3414,3.3309,3.3309,3.3309,3.3309,3.3309,3.3309,3.3704,3.4109,3.2849,3.2841,3.3196,3.9998,4.1698,4.3006,4.2146,4.3435,4.4392,4.3845,4.4979,4.5682,4.5131,4.6237,4.699,4.6729,4.6167,4.5709,0.0,4.4883,4.4555,0.0,4.4302,4.4367,4.4902,4.4052,4.326,4.2555,4.2435,4.2086,4.1506,0.0,0.0,0.0,3.9815,4.015,4.0967,4.1738,4.2029,4.1893,4.1831,4.1898,4.2041,4.2014,4.2185,4.2412,4.2412,4.2773,4.3284,4.3284,4.3331,4.3399,4.3406,4.309,4.2619,4.2104,4.1831,4.1589,4.0825,4.0508,4.0176,3.9413,3.9237,3.9309,3.9413,3.9521,3.9665,3.9758,3.9712,3.9532,3.9216,3.8915,3.8658,3.851,3.8401,3.7794,3.6194,3.6591,0.0,0.0,0.0,0.0,0.0,3.2905,3.2435,0.0,3.2683,0.0,0.0,0.0,0.0,0.0,0.0,0.0,0.0,3.292,0.0,3.5421,3.3935,3.4152,3.6147,3.5237,3.4658,3.4415,3.3745,3.345,3.3398,3.3256,3.3203,3.3309,3.3203,3.3471,3.3972,3.3972,3.4415,3.492,3.3575,3.3499,3.3802,4.1152,4.2715,4.3965,4.3242,4.4433,4.5371,4.5058,4.6015,4.6677,4.634,4.7286,4.799,4.7986,4.7504,0.0,4.7244,4.6234,4.6081,4.7178,4.6218,4.5904,4.6553,4.5531,4.448,4.3516,0.0,0.0,4.2546,4.2113,4.1758,4.147,4.1418,4.1944,4.2889,4.2814,4.2735,4.2588,4.2544,4.2671,4.2886,4.2886,4.3076,4.3341,4.3341,4.3682,4.4156,4.4156,4.4204,4.4296,4.4303,4.4026,4.3689,4.3668,4.3542,4.3179,4.1841,4.1299,4.0977,4.0291,3.9891,3.9749,3.9862,3.9721,3.9599,3.9762,3.9623,3.9383,3.9063,3.8789,3.851,3.8241,3.8192,3.7866,3.687,3.7372,3.7557,3.655,0.0,0.0,0.0,0.0,0.0,0.0,3.3882,3.3336,0.0,0.0,0.0,0.0,0.0,0.0,3.4074,3.3864,0.0,3.6001,3.4202,3.4032,3.5537,3.4849,3.4201,3.3694,3.3398,3.3203,3.315,3.3058,3.3238,3.3565,3.3527,3.3975,3.4699,3.4699,3.5142,3.5644,3.4574,3.456,3.4883,4.4609,4.498,0.0,0.0,4.6367,0.0,4.539,4.6638,4.7393,4.6571,4.7869,4.8898,4.8892,4.8937,4.8986,4.897,0.0,0.0,0.0,4.8677,4.8265,4.7506,4.7233,4.6686,4.5819,4.5594,4.5528,4.5586,4.4778,4.4008,4.3278,4.3136,4.3062,4.3043,4.2865,4.2759,4.2737,4.2629,4.3038,4.3777,4.3777,4.4232,4.4895,4.4895,4.4895,4.4895,4.4895,4.4986,4.5103,4.5103,4.517,4.5256,4.5148,4.4943,4.4468,4.275,4.2021,4.1762,4.1706,4.1204,4.0707,4.0768,4.019,3.965,3.9811,3.9613,3.9305,3.9027,3.8759,3.851,3.8241,3.8192,3.8192,3.8192,3.8003,3.7828,3.772,0.0,0.0,0.0,0.0,0.0,0.0,3.4793,3.4811,0.0,0.0,0.0,0.0,0.0,3.1303,3.2772,3.2369,3.2578,3.3617,3.3044,3.3337,3.4448,3.4201,3.3745,3.3096,3.3159,3.3121,3.2975,3.3022,3.349,3.4219,3.4164,3.4699,3.5458,3.5458,3.5884,3.6369,3.5687,3.5815,3.6102,0.0,0.0,4.6621,4.5508,4.6953,4.8203,4.7945,4.8254,4.8443,4.8235,4.9137,4.9789,4.9796,5.0394,5.0776,5.0777,4.84,4.7411,4.8639,4.7469,4.7153,4.8044,4.6836,4.5979,4.5635,4.4966,4.4932,4.5586,4.5393,4.5182,4.5009,4.4881,4.4787,4.4745,4.4579,4.4467,4.4355,4.4308,4.444,4.463,4.463,4.4724,4.4895,4.4895,4.4895,4.4895,4.4895,4.4986,4.5103,4.5103,4.5125,4.5125,4.5057,4.4815,4.4344,4.3273,4.2782,4.247,4.1816,4.1529,4.1465,4.1584,4.1149,4.0669,4.0447,3.9735,3.9027,3.873,3.8478,3.8274,3.8225,3.8192,3.8192,3.8192,3.7881,3.7256,3.6093,3.5315,0.0,0.0,3.3723,3.4357,3.4653,3.5741,3.599,0.0,0.0,0.0,0.0,3.4093,3.4429,3.5962,3.5558,3.5475,3.5838,3.4891,3.4327,3.4201,3.3899,3.3658,3.3414,3.3723,3.385,3.3842,3.4391,3.4832,3.507,3.4974,3.5439,3.6184,3.6184,3.6611,3.7093,3.5873,3.5522,3.5464,4.4902,4.6601,4.789,4.6912,4.7908,4.898,4.9341,4.9391,4.9532,4.9931,5.0362,5.0641,5.0653,5.1109,5.14,5.1405,4.9703,4.8986,4.9781,4.8966,4.8564,4.889,4.8024,4.7291,4.674,4.6278,4.6278,4.674,4.6666,4.6455,4.609,4.5896,4.56,4.5192,4.508,4.4967,4.4895,4.4895,4.4895,4.4895,4.4895,4.4895,4.4895,4.4895,4.4895,4.4895,4.4895,4.4967,4.5038,4.5038,4.5014,4.4991,4.4895,4.4648,4.4327,4.3793,4.3594,4.3353,4.2736,4.2316,4.1957,4.1501,4.1268,4.1045,4.0914,4.0178,3.9441,3.9209,3.8734,3.8354,3.8207,3.8106,3.8038,3.8038,3.7147,3.615,3.526,3.4323,0.0,3.3459,3.4179,3.4969,3.5671,3.6496,3.6675,3.5887,3.5166,0.0,3.5782,3.5094,3.541,3.6995,3.6392,3.6079,3.6122,3.522,3.4448,3.3848,3.4185,3.4122,3.3729,3.4313,3.4572,3.4476,3.4867,3.5326,3.5739,3.5681,3.6164,3.6911,3.6911,3.6939,3.6892,3.6117,3.5657,3.527,4.8906,4.9004,4.9061,4.9016,4.9112,4.9439,5.018,5.0293,5.055,5.1291,5.1342,5.13,5.1308,5.1356,5.1388,5.1362,5.1372,5.1302,5.1187,5.117,5.075,4.9807,4.9772,4.9379,4.8509,4.8355,4.824,4.8105,4.7991,4.7567,4.6876,4.6647,4.6153,4.5464,4.5323,4.5274,4.5274,4.5274,4.5274,4.5274,4.5141,4.5103,4.5085,4.4952,4.4895,4.4895,4.4895,4.4943,4.501,4.4986,4.4938,4.4846,4.4693,4.4486,4.4269,4.4177,4.4184,4.4104,4.3846,4.3264,4.2465,4.1534,4.1277,4.13,4.1314,4.0732,4.0136,3.9795,3.9182,3.8593,3.8259,3.8056,3.7862,3.7593,3.6182,3.5011,3.4694,0.0,3.3301,3.4566,3.4898,3.5548,3.6847,3.6987,3.6987,3.6987,3.5776,3.5601,3.6821,3.5553,3.5409,3.6759,3.6011,3.5532,3.545,3.4823,3.426,3.3768,3.4659,3.4733,3.4123,3.4939,3.5253,3.5107,3.5232,3.5723,3.6373,3.6373,3.6794,3.7464,3.7421,3.7029,3.6507,3.6368,3.5913,3.5255,4.8906,4.9451,4.9916,4.9895,5.051,5.1039,5.1171,5.1199,5.1226,5.1316,5.13,5.1308,5.1303,5.1362,5.1356,5.1234,5.123,5.1167,5.1042,5.0972,5.0828,5.0528,5.0528,5.0452,5.0298,4.9586,4.8836,4.8105,4.8087,4.7953,4.77,4.7611,4.7442,4.7215,4.7068,4.6999,4.6999,4.6999,4.6999,4.6942,4.6259,4.5994,4.5918,4.5179,4.4895,4.4895,4.4895,4.4943,4.4967,4.487,4.4789,4.4693,4.4439,4.4288,4.4195,4.4085,4.4036,4.4036,4.4104,4.3881,4.3569,4.3508,4.2807,4.2062,4.1931,4.1272,4.0452,3.9634,3.9381,3.9057,3.8352,3.8192,3.7672,3.6219,3.5466,3.462,3.3257,0.0,3.4368,3.467,3.5829,3.6724,3.697,3.6987,3.6987,3.6987,3.6759,3.6549,3.6409,3.616,3.5958,3.5837,3.5571,3.5257,3.4856,3.4732,3.4771,3.5015,3.5054,3.5077,3.5027,3.5702,3.6001,3.6032,3.6762,3.7152,3.7306,3.7097,3.71,3.727,3.7105,3.6999,3.68,3.6196,3.5642,3.5044,5.0252,5.0557,5.08,5.0809,5.1128,5.1386,5.1349,5.1349,5.1342,5.13,5.1289,5.1303,5.1291,5.1303,5.1261,5.1217,5.1092,5.1011,5.0945,5.0913,5.0841,5.0721,5.0702,5.0702,5.0702,5.0298,4.9894,4.949,4.9353,4.902,4.8477,4.8353,4.8003,4.7498,4.7422,4.7397,4.7397,4.7397,4.7397,4.7359,4.6999,4.6847,4.679,4.6392,4.6241,4.6241,4.6241,4.6266,4.6234,4.5723,4.5398,4.5143,4.458,4.4248,4.4085,4.4005,4.3923,4.386,4.391,4.3744,4.3542,4.3387,4.3008,4.2612,4.2376,4.176,4.1107,4.0709,4.0293,3.9876,3.9514,3.9046,3.8418,3.761,3.6042,0.0,0.0,3.4339,3.4611,3.4688,3.6039,3.6987,3.6987,3.6987,3.6987,3.6987,3.6987,3.7066,3.7265,3.6947,3.686,3.703,3.6135,3.563,3.5556,3.5433,3.5432,3.5475,3.5742,3.5859,3.5791,3.6542,3.6916,3.6932,3.7338,3.7464,3.7329,3.7254,3.715,3.7105,3.6999,3.6739,3.6399,3.6054,3.5514,3.4927,5.1394,5.1402,5.1401,5.14,5.1388,5.1356,5.1308,5.13,5.13,5.1308,5.1289,5.1289,5.1277,5.1198,5.1152,5.1132,5.0998,5.089,5.0858,5.0858,5.081,5.0702,5.0702,5.0702,5.0702,5.0663,5.0643,5.0643,5.0435,4.9935,4.9243,4.9106,4.8636,4.7965,4.7965,4.7965,4.7965,4.7965,4.7965,4.7965,4.7776,4.77,4.7681,4.7472,4.7397,4.7397,4.7397,4.7397,4.7302,4.6625,4.624,4.5914,4.5237,4.4808,4.4625,4.4625,4.435,4.3985,4.3767,4.3526,4.3301,4.2922,4.2828,4.2788,4.2631,4.2219,4.1809,4.1722,4.1234,4.0727,4.0546,3.9932,3.9283,3.8816,0.0,0.0,0.0,3.4969,3.4926,3.5159,3.6229,3.7058,3.7233,3.7251,3.7321,3.7514,3.7514,3.772,3.8174,3.7767,3.7757,3.8244,3.6851,3.6151,3.6313,3.6188,3.6087,3.5925,3.6463,3.6643,3.6542,3.7212,3.748,3.748,3.748,3.7405,3.7194,3.7134,3.7105,3.6938,3.6877,3.6538,3.5991,3.5928,3.5464,3.481,5.1402,5.1396,5.1394,5.1394,5.1349,5.13,5.13,5.13,5.1308,5.131,5.1248,5.1201,5.1209,5.1092,5.0992,5.0932,5.0902,5.0841,5.0721,5.0721,5.0702,5.0683,5.0702,5.0702,5.0702,5.0563,5.0521,5.0521,5.0371,5.0193,5.0012,5.0012,4.9898,4.9709,4.9709,4.9709,4.9709,4.9709,4.9709,4.9633,4.8894,4.859,4.8515,4.77,4.7397,4.7397,4.7397,4.7397,4.7352,4.7127,4.7024,4.6948,4.6618,4.6539,4.6489,4.6489,4.581,4.4823,4.3933,4.3511,4.3213,4.2885,4.2577,4.2409,4.257,4.2555,4.2382,4.1794,4.1669,4.1397,4.0655,4.0438,3.9806,3.799,0.0,0.0,3.5787,3.5531,3.5754,3.6566,3.6759,3.7131,3.7953,3.8023,3.8339,3.9076,3.9147,3.8978,3.8589,3.8518,3.8372,3.8134,3.7215,3.6625,3.64,3.6515,3.6674,3.6919,3.704,3.7251,3.7401,3.7449,3.748,3.748,3.748,3.7405,3.7194,3.7044,3.6923,3.6723,3.6616,3.6492,3.6414,3.5879,3.535,3.481,5.1391,5.1369,5.1342,5.1342,5.1756,5.2119,5.2119,5.2456,5.2737,5.2777,5.2702,5.2622,5.2632,5.253,5.2481,5.2453,5.2371,5.23,5.2241,5.2241,5.1779,5.0741,5.0702,5.0663,5.0582,5.0521,5.0457,5.0371,5.0255,5.0158,5.0108,5.0012,4.9952,4.9898,4.9898,4.9898,4.9898,4.9898,4.9898,4.986,4.9557,4.9424,4.9405,4.9064,4.8951,4.8951,4.8951,4.8951,4.8829,4.8154,4.7881,4.773,4.6997,4.6738,4.6645,4.6401,4.5856,4.5242,4.4728,4.398,4.3266,4.2867,4.2752,4.2711,4.2631,4.2649,4.2693,4.2464,4.2448,4.2357,4.2031,4.1578,4.0944,4.0109,0.0,3.8857,3.8086,3.793,3.7953,3.8209,3.8244,3.8391,3.8789,3.8848,3.8989,3.9287,3.9203,3.9328,3.9625,3.9465,3.8992,3.8176,3.7861,3.764,3.7648,3.7419,3.7388,3.7583,3.7314,3.7329,3.748,3.748,3.748,3.748,3.7389,3.721,3.7044,3.6862,3.6739,3.6538,3.6492,3.6492,3.6492,3.6289,3.6407,3.655,5.1791,5.1959,5.2119,5.2119,5.2606,5.2987,5.2942,5.3349,5.3623,5.3642,5.3538,5.3464,5.347,5.3384,5.3337,5.3337,5.3244,5.3203,5.3203,5.3161,5.2508,5.1144,5.1048,5.0853,5.05,5.0416,5.0325,5.0231,5.0108,5.0031,5.0031,4.9933,4.9898,4.9898,4.9898,4.9898,4.9898,4.9898,4.9898,4.9898,4.9898,4.9898,4.9898,4.9898,4.9898,4.9879,4.9843,4.9843,4.9721,4.8936,4.8563,4.8278,4.7559,4.7243,4.7021,4.6504,4.6084,4.5664,4.5206,4.444,4.3668,4.3165,4.3111,4.3095,4.2685,4.2688,4.2822,4.29,4.29,4.2862,4.2862,4.2372,4.1897,4.1704,4.1178,4.0535,3.9799,3.9656,3.9441,3.905,3.9033,3.9206,3.9571,3.9631,3.9779,4.0007,3.9921,4.0062,4.0426,3.9948,3.9259,3.8488,3.8278,3.8164,3.8091,3.7743,3.7567,3.7508,3.7314,3.7329,3.748,3.7405,3.7405,3.7405,3.7506,3.7479,3.7327,3.7468,3.7437,3.7327,3.7327,3.7327,3.7327,3.7123,3.7463,3.78,5.2614,5.3307,5.3911,5.3911,5.3911,5.3866,5.3727,5.3716,5.3662,5.3546,5.3472,5.3428,5.3423,5.3302,5.3222,5.3222,5.3222,5.3222,5.3222,5.3097,5.2691,5.1951,5.1792,5.1324,5.0538,5.025,5.0127,5.0127,4.9978,4.9917,4.9917,4.9917,4.9917,4.9917,4.9898,4.9898,4.9898,4.9898,4.9898,4.9898,4.9898,4.9898,4.9898,4.9898,4.9898,4.9898,4.975,4.9692,4.9663,4.9402,4.8986,4.8584,4.8531,4.8254,4.7837,4.7106,4.6673,4.6232,4.5369,4.4881,4.4464,4.3714,4.3567,4.3417,4.2767,4.2724,4.2822,4.29,4.2842,4.2802,4.2783,4.2688,4.253,4.2328,4.2287,4.1837,4.0508,4.0316,3.9949,3.8955,3.8955,3.9382,4.0237,4.0438,4.0797,4.1552,4.1604,4.1363,4.0802,3.98,3.9152,3.899,3.8488,3.7934,3.7433,3.7417,3.7194,3.6739,3.7013,3.7345,3.7496,3.7285,3.721,3.7241,3.7963,3.82,3.8107,3.8921,3.9219,3.9074,3.9074,3.9074,3.9058,3.8492,3.8295,3.8228,5.3502,5.3716,5.3866,5.3719,5.4202,5.4568,5.441,5.4807,5.5127,5.518,5.5037,5.4975,5.4997,5.4975,5.4953,5.4953,5.4953,5.491,5.4802,5.4685,5.4273,5.3475,5.282,5.2308,5.198,5.1903,5.1825,5.1716,5.1689,5.1661,5.1661,5.1661,5.1661,5.1642,5.1054,5.0808,5.077,5.0144,4.9898,4.9898,4.9898,4.9898,4.9898,4.9898,4.9898,4.9898,4.975,4.9692,4.9615,4.8971,4.8674,4.853,4.8141,4.7765,4.7373,4.7157,4.6906,4.6624,4.6364,4.6266,4.5963,4.4729,4.4516,4.4527,4.4335,4.4345,4.4263,4.3664,4.3534,4.3314,4.2757,4.2609,4.253,4.2328,4.2246,4.1888,4.1156,4.0969,4.0809,4.0435,4.0474,4.068,4.1014,4.1182,4.1358,4.1587,4.1515,4.1007,4.0003,3.9645,3.9259,3.8824,3.8622,3.8518,3.8387,3.8229,3.8054,3.7732,3.8372,3.8732,3.8886,3.8825,3.8809,3.8825,3.8937,3.8968,3.8905,3.9077,3.9122,3.9074,3.9074,3.9074,3.9074,3.8929,3.9209,3.9517,5.4305,5.4567,5.475,5.4536,5.4953,5.5253,5.5161,5.5479,5.575,5.5808,5.5726,5.564,5.5703,5.5703,5.5682,5.5618,5.5573,5.5504,5.5432,5.5307,5.5,5.4523,5.3929,5.3312,5.2639,5.2566,5.2484,5.24,5.24,5.24,5.24,5.24,5.24,5.2381,5.1907,5.1679,5.1642,5.1111,5.0884,5.0884,5.0884,5.0884,5.0884,5.0884,5.0884,5.0743,5.0071,4.9784,4.9599,4.8532,4.8062,4.7828,4.7391,4.708,4.689,4.6936,4.6835,4.6731,4.6731,4.6842,4.672,4.5891,4.5556,4.5396,4.5132,4.5106,4.4926,4.4435,4.4263,4.4037,4.3553,4.3171,4.2893,4.2668,4.2257,4.1849,4.1408,4.1255,4.118,4.1047,4.1105,4.118,4.1318,4.1408,4.1453,4.1453,4.1163,4.0748,4.015,3.9834,3.9549,3.9205,3.9071,3.8968,3.8818,3.8966,3.8811,3.845,3.8951,3.9266,3.9503,3.944,3.944,3.9456,3.9613,3.9675,3.969,3.9989,4.0114,4.0114,4.0114,4.0114,4.0049,3.9773,3.9955,4.0215,5.5029,5.5624,5.6107,5.5915,5.588,5.5863,5.5789,5.5769,5.5769,5.5705,5.5703,5.5703,5.5703,5.5703,5.5618,5.5504,5.5358,5.5281,5.5281,5.5149,5.5066,5.5066,5.499,5.4239,5.284,5.2684,5.2627,5.2627,5.2627,5.2627,5.2627,5.2627,5.2627,5.2627,5.2551,5.2532,5.2513,5.2438,5.24,5.24,5.24,5.24,5.24,5.2419,5.2342,5.2111,5.0688,5.0133,4.9788,4.8275,4.7463,4.703,4.6601,4.6504,4.6517,4.656,4.659,4.659,4.659,4.6684,4.6842,4.6934,4.6641,4.6115,4.5521,4.5323,4.5251,4.5178,4.503,4.4843,4.4771,4.4114,4.3504,4.3253,4.2564,4.1912,4.1464,4.1418,4.1261,4.1039,4.1103,4.1209,4.118,4.1261,4.1331,4.1446,4.0961,4.0763,4.1011,4.031,3.9975,4.0062,3.9817,3.9471,3.9004,3.9656,3.9559,3.8862,3.9103,3.9375,3.9692,3.9566,3.9518,3.955,4.0179,4.0446,4.0493,4.1254,4.1588,4.1588,4.1588,4.1588,4.1522,4.0836,4.0547,4.0409,5.5691,5.583,5.5896,5.5691,5.5711,5.569,5.558,5.5599,5.5662,5.5703,5.5703,5.5703,5.5703,5.5596,5.5527,5.5504,5.5281,5.5149,5.5149,5.5028,5.4941,5.4941,5.4931,5.4731,5.44,5.4352,5.4371,5.4371,5.4371,5.4371,5.4371,5.4371,5.4371,5.4333,5.3707,5.3423,5.3366,5.2703,5.24,5.24,5.24,5.24,5.2419,5.2456,5.24,5.2235,5.182,5.1335,5.0731,4.943,4.8829,4.8391,4.7477,4.7234,4.7209,4.6495,4.635,4.6429,4.6429,4.6542,4.6684,4.6934,4.69,4.6847,4.6775,4.6791,4.6618,4.5791,4.5622,4.54,4.4775,4.4482,4.4288,4.4085,4.3701,4.3349,4.3067,4.2843,4.2538,4.1819,4.1864,4.1734,4.1192,4.1847,4.2562,4.3249,4.2774,4.2228,4.1805,4.1166,4.0841,4.0876,4.0767,4.0785,4.0736,4.0892,4.0427,3.9329,4.0251,4.0767,4.0934,4.1065,4.1065,4.1081,4.1238,4.1302,4.1302,4.1525,4.1588,4.1588,4.1588,4.1588,4.1588,4.1456,4.0972,4.0339,5.5769,5.575,5.5711,5.5531,5.5512,5.5535,5.5504,5.5551,5.5618,5.5703,5.564,5.5596,5.5596,5.548,5.5383,5.5314,5.5121,5.5,5.5,5.4931,5.4901,5.4901,5.4901,5.4901,5.4901,5.4901,5.4901,5.4901,5.4901,5.4901,5.4901,5.4901,5.4901,5.4882,5.4465,5.4276,5.4238,5.3802,5.3594,5.3594,5.3594,5.3623,5.3632,5.3661,5.3623,5.3388,5.2661,5.1545,5.0318,4.9482,4.9092,4.8809,4.8335,4.8161,4.8073,4.7668,4.7594,4.7537,4.7117,4.7126,4.7181,4.6884,4.6934,4.7133,4.7205,4.7249,4.708,4.6597,4.6418,4.623,4.582,4.5339,4.491,4.47,4.415,4.362,4.3395,4.3264,4.3059,4.2595,4.261,4.2569,4.222,4.2479,4.2861,4.3325,4.2775,4.2334,4.2139,4.1717,4.1531,4.1739,4.1581,4.1436,4.1307,4.1256,4.08,3.997,4.0628,4.107,4.1323,4.139,4.1522,4.1588,4.1588,4.1588,4.1588,4.1588,4.1588,4.1588,4.1588,4.1588,4.1588,4.1174,4.0409,3.9277,5.563,5.5585,5.5512,5.5409,5.5396,5.5432,5.5504,5.5551,5.5596,5.566,5.5551,5.548,5.548,5.5358,5.5203,5.5066,5.4971,5.4901,5.4901,5.4901,5.4901,5.4901,5.4901,5.4901,5.4901,5.4901,5.4901,5.4901,5.4901,5.4901,5.4901,5.4901,5.4901,5.4901,5.4901,5.4901,5.4901,5.4901,5.4901,5.4901,5.4901,5.4941,5.5,5.5,5.4931,5.4642,5.3365,5.1682,5.0027,4.9581,4.9369,4.9283,4.921,4.9124,4.9038,4.9015,4.8979,4.8838,4.8035,4.8006,4.7992,4.7222,4.7298,4.7509,4.7465,4.7313,4.7178,4.7196,4.7088,4.6998,4.6998,4.6244,4.557,4.5351,4.4568,4.3857,4.3594,4.3561,4.3509,4.3421,4.3301,4.3366,4.3635,4.3318,4.3219,4.3289,4.2658,4.2322,4.2559,4.2239,4.2171,4.2429,4.2141,4.1817,4.139,4.1256,4.0919,4.0524,4.0662,4.0935,4.1272,4.1323,4.139,4.1588,4.1588,4.1588,4.1588,4.1588,4.1588,4.1588,4.1588,4.1588,4.1507,4.0615,3.9478,3.8337,5.5607,5.5504,5.5434,5.5403,5.5446,5.548,5.5504,5.5504,5.5527,5.5527,5.5408,5.5333,5.5333,5.5203,5.5066,5.4931,5.4901,5.4901,5.4901,5.4901,5.4901,5.4901,5.4901,5.4901,5.4901,5.4901,5.4901,5.4901,5.4901,5.4901,5.4901,5.4901,5.4901,5.4901,5.4901,5.4901,5.4901,5.4901,5.4901,5.4901,5.4971,5.5,5.5,5.5,5.4931,5.4698,5.4062,5.3071,5.1943,5.1369,5.1236,5.1162,5.0249,5.0036,4.9962,4.9224,4.8979,4.8962,4.8856,4.882,4.8852,4.8844,4.8875,4.8776,4.8222,4.7635,4.7196,4.7043,4.698,4.6998,4.6998,4.689,4.6635,4.6125,4.594,4.5641,4.5165,4.5113,4.4872,4.4216,4.3712,4.3704,4.4593,4.4645,4.4925,4.5656,4.4692,4.4069,4.4114,4.3098,4.252,4.2571,4.2508,4.2174,4.1588,4.1522,4.1189,4.0524,4.0524,4.0746,4.1102,4.1272,4.139,4.1588,4.1588,4.1588,4.1588,4.1588,4.1588,4.1588,4.1588,4.1588,4.144,3.996,3.9233,3.8723,5.5499,5.544,5.5536,5.5995,5.6104,5.6263,5.6703,5.678,5.678,5.678,5.6649,5.6567,5.6567,5.6473,5.6375,5.6285,5.6304,5.6304,5.6304,5.5887,5.5621,5.5621,5.5166,5.4901,5.4901,5.4901,5.4901,5.4901,5.4901,5.4901,5.4901,5.4901,5.4901,5.4901,5.4901,5.4901,5.4901,5.4901,5.4931,5.496,5.5,5.5,5.4952,5.4697,5.4509,5.4246,5.341,5.2802,5.2315,5.1772,5.1607,5.1536,5.1111,5.0954,5.0901,5.0613,5.0524,5.0368,4.9874,4.9799,4.9759,4.9301,4.9226,4.9167,4.8889,4.8597,4.8097,4.7176,4.6998,4.6998,4.6998,4.6888,4.6637,4.6284,4.6087,4.5837,4.5459,4.5423,4.5303,4.4958,4.4836,4.49,4.5381,4.5213,4.5131,4.5197,4.4361,4.3748,4.341,4.2912,4.2634,4.2634,4.2634,4.2302,4.1588,4.1588,4.1256,4.0524,4.0524,4.0746,4.1117,4.1169,4.1339,4.1588,4.1588,4.1588,4.1588,4.1588,4.1588,4.1588,4.1588,4.1588,4.1522,4.0805,3.9945,3.9073]}]]